<?xml version="1.0" encoding="UTF-8" standalone="no" ?>
<gpx xmlns="http://www.topografix.com/GPX/1/1" xmlns:xsi="http://www.w3.org/2001/XMLSchema-instance" xsi:schemaLocation="http://www.topografix.com/GPX/1/1 http://www.topografix.com/GPX/1/1/gpx.xsd" version="1.1" creator="VisuGPX - https://www.visugpx.com">
  <metadata>
    <name>Riaillé définitif en 153 km</name>
    <desc><![CDATA[Riaillé définitif en 153 km]]></desc>
  </metadata>
  <trk>
    <name><![CDATA[11632257-Riaillé en 153 km]]></name>
    <trkseg>
      <trkpt lat="47.47286" lon="-0.5821">
        <ele>32</ele>
        <time>2020-09-20T09:09:54Z</time>
      </trkpt>
      <trkpt lat="47.4726" lon="-0.58314">
        <ele>30</ele>
        <time>2020-09-20T09:10:07Z</time>
      </trkpt>
      <trkpt lat="47.47243" lon="-0.58419">
        <ele>32</ele>
        <time>2020-09-20T09:10:20Z</time>
      </trkpt>
      <trkpt lat="47.47216" lon="-0.58544">
        <ele>33</ele>
        <time>2020-09-20T09:10:36Z</time>
      </trkpt>
      <trkpt lat="47.47219" lon="-0.58552">
        <ele>34</ele>
        <time>2020-09-20T09:10:37Z</time>
      </trkpt>
      <trkpt lat="47.47216" lon="-0.58557">
        <ele>34</ele>
        <time>2020-09-20T09:10:38Z</time>
      </trkpt>
      <trkpt lat="47.47213" lon="-0.58557">
        <ele>34</ele>
        <time>2020-09-20T09:10:39Z</time>
      </trkpt>
      <trkpt lat="47.47204" lon="-0.58582">
        <ele>34</ele>
        <time>2020-09-20T09:10:42Z</time>
      </trkpt>
      <trkpt lat="47.47206" lon="-0.58585">
        <ele>34</ele>
        <time>2020-09-20T09:10:42Z</time>
      </trkpt>
      <trkpt lat="47.47205" lon="-0.58717">
        <ele>35</ele>
        <time>2020-09-20T09:10:58Z</time>
      </trkpt>
      <trkpt lat="47.4721" lon="-0.58843">
        <ele>36</ele>
        <time>2020-09-20T09:11:14Z</time>
      </trkpt>
      <trkpt lat="47.47209" lon="-0.59122">
        <ele>38</ele>
        <time>2020-09-20T09:11:47Z</time>
      </trkpt>
      <trkpt lat="47.47205" lon="-0.59205">
        <ele>39</ele>
        <time>2020-09-20T09:11:57Z</time>
      </trkpt>
      <trkpt lat="47.47205" lon="-0.59261">
        <ele>40</ele>
        <time>2020-09-20T09:12:04Z</time>
      </trkpt>
      <trkpt lat="47.47213" lon="-0.59326">
        <ele>41</ele>
        <time>2020-09-20T09:12:12Z</time>
      </trkpt>
      <trkpt lat="47.47239" lon="-0.59692">
        <ele>51</ele>
        <time>2020-09-20T09:12:56Z</time>
      </trkpt>
      <trkpt lat="47.47325" lon="-0.59663">
        <ele>51</ele>
        <time>2020-09-20T09:13:12Z</time>
      </trkpt>
      <trkpt lat="47.47325" lon="-0.59686">
        <ele>51</ele>
        <time>2020-09-20T09:13:14Z</time>
      </trkpt>
      <trkpt lat="47.47317" lon="-0.59985">
        <ele>54</ele>
        <time>2020-09-20T09:13:50Z</time>
      </trkpt>
      <trkpt lat="47.47312" lon="-0.60072">
        <ele>54</ele>
        <time>2020-09-20T09:14:01Z</time>
      </trkpt>
      <trkpt lat="47.4729" lon="-0.6075">
        <ele>52</ele>
        <time>2020-09-20T09:15:23Z</time>
      </trkpt>
      <trkpt lat="47.47286" lon="-0.60797">
        <ele>51</ele>
        <time>2020-09-20T09:15:28Z</time>
      </trkpt>
      <trkpt lat="47.47268" lon="-0.6089">
        <ele>52</ele>
        <time>2020-09-20T09:15:40Z</time>
      </trkpt>
      <trkpt lat="47.47217" lon="-0.61058">
        <ele>52</ele>
        <time>2020-09-20T09:16:02Z</time>
      </trkpt>
      <trkpt lat="47.47211" lon="-0.61089">
        <ele>53</ele>
        <time>2020-09-20T09:16:06Z</time>
      </trkpt>
      <trkpt lat="47.47219" lon="-0.61089">
        <ele>52</ele>
        <time>2020-09-20T09:16:07Z</time>
      </trkpt>
      <trkpt lat="47.47228" lon="-0.611">
        <ele>51</ele>
        <time>2020-09-20T09:16:09Z</time>
      </trkpt>
      <trkpt lat="47.47229" lon="-0.61112">
        <ele>51</ele>
        <time>2020-09-20T09:16:11Z</time>
      </trkpt>
      <trkpt lat="47.47222" lon="-0.61125">
        <ele>51</ele>
        <time>2020-09-20T09:16:13Z</time>
      </trkpt>
      <trkpt lat="47.47247" lon="-0.61172">
        <ele>49</ele>
        <time>2020-09-20T09:16:20Z</time>
      </trkpt>
      <trkpt lat="47.47332" lon="-0.61295">
        <ele>49</ele>
        <time>2020-09-20T09:16:41Z</time>
      </trkpt>
      <trkpt lat="47.47364" lon="-0.61337">
        <ele>49</ele>
        <time>2020-09-20T09:16:49Z</time>
      </trkpt>
      <trkpt lat="47.47374" lon="-0.61331">
        <ele>49</ele>
        <time>2020-09-20T09:16:51Z</time>
      </trkpt>
      <trkpt lat="47.47388" lon="-0.61335">
        <ele>50</ele>
        <time>2020-09-20T09:16:53Z</time>
      </trkpt>
      <trkpt lat="47.47397" lon="-0.61351">
        <ele>49</ele>
        <time>2020-09-20T09:16:56Z</time>
      </trkpt>
      <trkpt lat="47.47398" lon="-0.61363">
        <ele>49</ele>
        <time>2020-09-20T09:16:57Z</time>
      </trkpt>
      <trkpt lat="47.47395" lon="-0.61375">
        <ele>49</ele>
        <time>2020-09-20T09:16:59Z</time>
      </trkpt>
      <trkpt lat="47.47387" lon="-0.61386">
        <ele>49</ele>
        <time>2020-09-20T09:17:01Z</time>
      </trkpt>
      <trkpt lat="47.47379" lon="-0.61389">
        <ele>49</ele>
        <time>2020-09-20T09:17:02Z</time>
      </trkpt>
      <trkpt lat="47.47408" lon="-0.61716">
        <ele>48</ele>
        <time>2020-09-20T09:17:42Z</time>
      </trkpt>
      <trkpt lat="47.47415" lon="-0.61835">
        <ele>48</ele>
        <time>2020-09-20T09:17:56Z</time>
      </trkpt>
      <trkpt lat="47.47451" lon="-0.6184">
        <ele>48</ele>
        <time>2020-09-20T09:18:03Z</time>
      </trkpt>
      <trkpt lat="47.47471" lon="-0.61845">
        <ele>48</ele>
        <time>2020-09-20T09:18:06Z</time>
      </trkpt>
      <trkpt lat="47.47484" lon="-0.61852">
        <ele>47</ele>
        <time>2020-09-20T09:18:09Z</time>
      </trkpt>
      <trkpt lat="47.47498" lon="-0.61867">
        <ele>47</ele>
        <time>2020-09-20T09:18:12Z</time>
      </trkpt>
      <trkpt lat="47.47515" lon="-0.61896">
        <ele>47</ele>
        <time>2020-09-20T09:18:16Z</time>
      </trkpt>
      <trkpt lat="47.47522" lon="-0.61924">
        <ele>47</ele>
        <time>2020-09-20T09:18:20Z</time>
      </trkpt>
      <trkpt lat="47.47523" lon="-0.61967">
        <ele>47</ele>
        <time>2020-09-20T09:18:25Z</time>
      </trkpt>
      <trkpt lat="47.47516" lon="-0.62008">
        <ele>47</ele>
        <time>2020-09-20T09:18:30Z</time>
      </trkpt>
      <trkpt lat="47.47506" lon="-0.62026">
        <ele>47</ele>
        <time>2020-09-20T09:18:33Z</time>
      </trkpt>
      <trkpt lat="47.47523" lon="-0.62048">
        <ele>47</ele>
        <time>2020-09-20T09:18:37Z</time>
      </trkpt>
      <trkpt lat="47.47548" lon="-0.6207">
        <ele>47</ele>
        <time>2020-09-20T09:18:42Z</time>
      </trkpt>
      <trkpt lat="47.47629" lon="-0.62093">
        <ele>45</ele>
        <time>2020-09-20T09:18:57Z</time>
      </trkpt>
      <trkpt lat="47.47737" lon="-0.62143">
        <ele>46</ele>
        <time>2020-09-20T09:19:17Z</time>
      </trkpt>
      <trkpt lat="47.47953" lon="-0.62221">
        <ele>41</ele>
        <time>2020-09-20T09:19:57Z</time>
      </trkpt>
      <trkpt lat="47.47971" lon="-0.62231">
        <ele>40</ele>
        <time>2020-09-20T09:20:00Z</time>
      </trkpt>
      <trkpt lat="47.47983" lon="-0.62246">
        <ele>40</ele>
        <time>2020-09-20T09:20:03Z</time>
      </trkpt>
      <trkpt lat="47.48101" lon="-0.62512">
        <ele>43</ele>
        <time>2020-09-20T09:20:41Z</time>
      </trkpt>
      <trkpt lat="47.48118" lon="-0.62553">
        <ele>44</ele>
        <time>2020-09-20T09:20:47Z</time>
      </trkpt>
      <trkpt lat="47.48134" lon="-0.62604">
        <ele>45</ele>
        <time>2020-09-20T09:20:54Z</time>
      </trkpt>
      <trkpt lat="47.48162" lon="-0.62707">
        <ele>46</ele>
        <time>2020-09-20T09:21:07Z</time>
      </trkpt>
      <trkpt lat="47.48167" lon="-0.62732">
        <ele>46</ele>
        <time>2020-09-20T09:21:10Z</time>
      </trkpt>
      <trkpt lat="47.48168" lon="-0.62751">
        <ele>46</ele>
        <time>2020-09-20T09:21:12Z</time>
      </trkpt>
      <trkpt lat="47.48172" lon="-0.62757">
        <ele>46</ele>
        <time>2020-09-20T09:21:14Z</time>
      </trkpt>
      <trkpt lat="47.48169" lon="-0.62768">
        <ele>46</ele>
        <time>2020-09-20T09:21:15Z</time>
      </trkpt>
      <trkpt lat="47.48181" lon="-0.62786">
        <ele>47</ele>
        <time>2020-09-20T09:21:18Z</time>
      </trkpt>
      <trkpt lat="47.48193" lon="-0.62828">
        <ele>48</ele>
        <time>2020-09-20T09:21:23Z</time>
      </trkpt>
      <trkpt lat="47.48222" lon="-0.62969">
        <ele>50</ele>
        <time>2020-09-20T09:21:41Z</time>
      </trkpt>
      <trkpt lat="47.48249" lon="-0.63147">
        <ele>48</ele>
        <time>2020-09-20T09:22:03Z</time>
      </trkpt>
      <trkpt lat="47.48267" lon="-0.63149">
        <ele>48</ele>
        <time>2020-09-20T09:22:06Z</time>
      </trkpt>
      <trkpt lat="47.48282" lon="-0.63154">
        <ele>48</ele>
        <time>2020-09-20T09:22:09Z</time>
      </trkpt>
      <trkpt lat="47.48285" lon="-0.63141">
        <ele>48</ele>
        <time>2020-09-20T09:22:11Z</time>
      </trkpt>
      <trkpt lat="47.48291" lon="-0.6313">
        <ele>48</ele>
        <time>2020-09-20T09:22:12Z</time>
      </trkpt>
      <trkpt lat="47.48303" lon="-0.63122">
        <ele>47</ele>
        <time>2020-09-20T09:22:15Z</time>
      </trkpt>
      <trkpt lat="47.48313" lon="-0.63123">
        <ele>47</ele>
        <time>2020-09-20T09:22:17Z</time>
      </trkpt>
      <trkpt lat="47.48318" lon="-0.63126">
        <ele>47</ele>
        <time>2020-09-20T09:22:17Z</time>
      </trkpt>
      <trkpt lat="47.48326" lon="-0.63139">
        <ele>47</ele>
        <time>2020-09-20T09:22:20Z</time>
      </trkpt>
      <trkpt lat="47.48329" lon="-0.63154">
        <ele>47</ele>
        <time>2020-09-20T09:22:21Z</time>
      </trkpt>
      <trkpt lat="47.48328" lon="-0.63174">
        <ele>47</ele>
        <time>2020-09-20T09:22:24Z</time>
      </trkpt>
      <trkpt lat="47.48319" lon="-0.63189">
        <ele>47</ele>
        <time>2020-09-20T09:22:26Z</time>
      </trkpt>
      <trkpt lat="47.48311" lon="-0.63194">
        <ele>47</ele>
        <time>2020-09-20T09:22:28Z</time>
      </trkpt>
      <trkpt lat="47.48352" lon="-0.63731">
        <ele>42</ele>
        <time>2020-09-20T09:23:33Z</time>
      </trkpt>
      <trkpt lat="47.48357" lon="-0.63998">
        <ele>42</ele>
        <time>2020-09-20T09:24:05Z</time>
      </trkpt>
      <trkpt lat="47.4836" lon="-0.64051">
        <ele>41</ele>
        <time>2020-09-20T09:24:11Z</time>
      </trkpt>
      <trkpt lat="47.48366" lon="-0.64091">
        <ele>40</ele>
        <time>2020-09-20T09:24:16Z</time>
      </trkpt>
      <trkpt lat="47.48374" lon="-0.64123">
        <ele>39</ele>
        <time>2020-09-20T09:24:20Z</time>
      </trkpt>
      <trkpt lat="47.4849" lon="-0.64493">
        <ele>41</ele>
        <time>2020-09-20T09:25:09Z</time>
      </trkpt>
      <trkpt lat="47.48519" lon="-0.64613">
        <ele>42</ele>
        <time>2020-09-20T09:25:25Z</time>
      </trkpt>
      <trkpt lat="47.48553" lon="-0.64782">
        <ele>46</ele>
        <time>2020-09-20T09:25:46Z</time>
      </trkpt>
      <trkpt lat="47.48626" lon="-0.65117">
        <ele>56</ele>
        <time>2020-09-20T09:26:28Z</time>
      </trkpt>
      <trkpt lat="47.48652" lon="-0.65225">
        <ele>60</ele>
        <time>2020-09-20T09:26:42Z</time>
      </trkpt>
      <trkpt lat="47.48692" lon="-0.65334">
        <ele>63</ele>
        <time>2020-09-20T09:26:57Z</time>
      </trkpt>
      <trkpt lat="47.48705" lon="-0.654">
        <ele>63</ele>
        <time>2020-09-20T09:27:05Z</time>
      </trkpt>
      <trkpt lat="47.48706" lon="-0.65422">
        <ele>63</ele>
        <time>2020-09-20T09:27:08Z</time>
      </trkpt>
      <trkpt lat="47.48703" lon="-0.65474">
        <ele>63</ele>
        <time>2020-09-20T09:27:14Z</time>
      </trkpt>
      <trkpt lat="47.48694" lon="-0.65519">
        <ele>63</ele>
        <time>2020-09-20T09:27:20Z</time>
      </trkpt>
      <trkpt lat="47.48667" lon="-0.65605">
        <ele>62</ele>
        <time>2020-09-20T09:27:31Z</time>
      </trkpt>
      <trkpt lat="47.48658" lon="-0.65661">
        <ele>62</ele>
        <time>2020-09-20T09:27:38Z</time>
      </trkpt>
      <trkpt lat="47.48657" lon="-0.65682">
        <ele>61</ele>
        <time>2020-09-20T09:27:41Z</time>
      </trkpt>
      <trkpt lat="47.48659" lon="-0.65717">
        <ele>60</ele>
        <time>2020-09-20T09:27:45Z</time>
      </trkpt>
      <trkpt lat="47.4867" lon="-0.65788">
        <ele>59</ele>
        <time>2020-09-20T09:27:54Z</time>
      </trkpt>
      <trkpt lat="47.48696" lon="-0.65922">
        <ele>58</ele>
        <time>2020-09-20T09:28:10Z</time>
      </trkpt>
      <trkpt lat="47.48711" lon="-0.66017">
        <ele>57</ele>
        <time>2020-09-20T09:28:22Z</time>
      </trkpt>
      <trkpt lat="47.48717" lon="-0.66104">
        <ele>58</ele>
        <time>2020-09-20T09:28:33Z</time>
      </trkpt>
      <trkpt lat="47.48719" lon="-0.66204">
        <ele>61</ele>
        <time>2020-09-20T09:28:45Z</time>
      </trkpt>
      <trkpt lat="47.48726" lon="-0.66206">
        <ele>61</ele>
        <time>2020-09-20T09:28:46Z</time>
      </trkpt>
      <trkpt lat="47.48729" lon="-0.6621">
        <ele>62</ele>
        <time>2020-09-20T09:28:47Z</time>
      </trkpt>
      <trkpt lat="47.48732" lon="-0.66221">
        <ele>63</ele>
        <time>2020-09-20T09:28:48Z</time>
      </trkpt>
      <trkpt lat="47.48731" lon="-0.66231">
        <ele>64</ele>
        <time>2020-09-20T09:28:49Z</time>
      </trkpt>
      <trkpt lat="47.48723" lon="-0.66242">
        <ele>64</ele>
        <time>2020-09-20T09:28:51Z</time>
      </trkpt>
      <trkpt lat="47.48719" lon="-0.66243">
        <ele>64</ele>
        <time>2020-09-20T09:28:52Z</time>
      </trkpt>
      <trkpt lat="47.48712" lon="-0.6624">
        <ele>63</ele>
        <time>2020-09-20T09:28:53Z</time>
      </trkpt>
      <trkpt lat="47.48706" lon="-0.66226">
        <ele>62</ele>
        <time>2020-09-20T09:28:55Z</time>
      </trkpt>
      <trkpt lat="47.48612" lon="-0.66237">
        <ele>61</ele>
        <time>2020-09-20T09:29:12Z</time>
      </trkpt>
      <trkpt lat="47.48593" lon="-0.66245">
        <ele>61</ele>
        <time>2020-09-20T09:29:16Z</time>
      </trkpt>
      <trkpt lat="47.48565" lon="-0.66266">
        <ele>61</ele>
        <time>2020-09-20T09:29:21Z</time>
      </trkpt>
      <trkpt lat="47.4855" lon="-0.66286">
        <ele>62</ele>
        <time>2020-09-20T09:29:25Z</time>
      </trkpt>
      <trkpt lat="47.48535" lon="-0.66315">
        <ele>62</ele>
        <time>2020-09-20T09:29:29Z</time>
      </trkpt>
      <trkpt lat="47.48524" lon="-0.66355">
        <ele>63</ele>
        <time>2020-09-20T09:29:34Z</time>
      </trkpt>
      <trkpt lat="47.48521" lon="-0.66409">
        <ele>62</ele>
        <time>2020-09-20T09:29:41Z</time>
      </trkpt>
      <trkpt lat="47.48531" lon="-0.66536">
        <ele>61</ele>
        <time>2020-09-20T09:29:56Z</time>
      </trkpt>
      <trkpt lat="47.48532" lon="-0.66639">
        <ele>60</ele>
        <time>2020-09-20T09:30:09Z</time>
      </trkpt>
      <trkpt lat="47.48525" lon="-0.66777">
        <ele>59</ele>
        <time>2020-09-20T09:30:25Z</time>
      </trkpt>
      <trkpt lat="47.48503" lon="-0.66991">
        <ele>59</ele>
        <time>2020-09-20T09:30:51Z</time>
      </trkpt>
      <trkpt lat="47.48482" lon="-0.67121">
        <ele>58</ele>
        <time>2020-09-20T09:31:07Z</time>
      </trkpt>
      <trkpt lat="47.48466" lon="-0.6724">
        <ele>59</ele>
        <time>2020-09-20T09:31:22Z</time>
      </trkpt>
      <trkpt lat="47.48456" lon="-0.6727">
        <ele>59</ele>
        <time>2020-09-20T09:31:26Z</time>
      </trkpt>
      <trkpt lat="47.48417" lon="-0.67358">
        <ele>61</ele>
        <time>2020-09-20T09:31:39Z</time>
      </trkpt>
      <trkpt lat="47.48376" lon="-0.67434">
        <ele>60</ele>
        <time>2020-09-20T09:31:50Z</time>
      </trkpt>
      <trkpt lat="47.48361" lon="-0.6747">
        <ele>60</ele>
        <time>2020-09-20T09:31:55Z</time>
      </trkpt>
      <trkpt lat="47.48344" lon="-0.67549">
        <ele>60</ele>
        <time>2020-09-20T09:32:05Z</time>
      </trkpt>
      <trkpt lat="47.48349" lon="-0.67572">
        <ele>60</ele>
        <time>2020-09-20T09:32:08Z</time>
      </trkpt>
      <trkpt lat="47.48337" lon="-0.67607">
        <ele>60</ele>
        <time>2020-09-20T09:32:13Z</time>
      </trkpt>
      <trkpt lat="47.48332" lon="-0.67641">
        <ele>60</ele>
        <time>2020-09-20T09:32:17Z</time>
      </trkpt>
      <trkpt lat="47.48329" lon="-0.6775">
        <ele>60</ele>
        <time>2020-09-20T09:32:30Z</time>
      </trkpt>
      <trkpt lat="47.48319" lon="-0.67783">
        <ele>59</ele>
        <time>2020-09-20T09:32:35Z</time>
      </trkpt>
      <trkpt lat="47.4829" lon="-0.67841">
        <ele>58</ele>
        <time>2020-09-20T09:32:43Z</time>
      </trkpt>
      <trkpt lat="47.48275" lon="-0.67885">
        <ele>57</ele>
        <time>2020-09-20T09:32:49Z</time>
      </trkpt>
      <trkpt lat="47.48258" lon="-0.67953">
        <ele>57</ele>
        <time>2020-09-20T09:32:58Z</time>
      </trkpt>
      <trkpt lat="47.4824" lon="-0.6804">
        <ele>57</ele>
        <time>2020-09-20T09:33:09Z</time>
      </trkpt>
      <trkpt lat="47.48235" lon="-0.68095">
        <ele>56</ele>
        <time>2020-09-20T09:33:16Z</time>
      </trkpt>
      <trkpt lat="47.48235" lon="-0.68127">
        <ele>56</ele>
        <time>2020-09-20T09:33:19Z</time>
      </trkpt>
      <trkpt lat="47.48243" lon="-0.68371">
        <ele>57</ele>
        <time>2020-09-20T09:33:49Z</time>
      </trkpt>
      <trkpt lat="47.48246" lon="-0.68378">
        <ele>57</ele>
        <time>2020-09-20T09:33:50Z</time>
      </trkpt>
      <trkpt lat="47.48241" lon="-0.68384">
        <ele>57</ele>
        <time>2020-09-20T09:33:51Z</time>
      </trkpt>
      <trkpt lat="47.48233" lon="-0.68435">
        <ele>57</ele>
        <time>2020-09-20T09:33:57Z</time>
      </trkpt>
      <trkpt lat="47.48218" lon="-0.68578">
        <ele>56</ele>
        <time>2020-09-20T09:34:15Z</time>
      </trkpt>
      <trkpt lat="47.4823" lon="-0.68583">
        <ele>56</ele>
        <time>2020-09-20T09:34:17Z</time>
      </trkpt>
      <trkpt lat="47.48238" lon="-0.68597">
        <ele>56</ele>
        <time>2020-09-20T09:34:19Z</time>
      </trkpt>
      <trkpt lat="47.48264" lon="-0.68841">
        <ele>56</ele>
        <time>2020-09-20T09:34:49Z</time>
      </trkpt>
      <trkpt lat="47.4828" lon="-0.68915">
        <ele>56</ele>
        <time>2020-09-20T09:34:58Z</time>
      </trkpt>
      <trkpt lat="47.4831" lon="-0.6899">
        <ele>54</ele>
        <time>2020-09-20T09:35:09Z</time>
      </trkpt>
      <trkpt lat="47.48319" lon="-0.69043">
        <ele>56</ele>
        <time>2020-09-20T09:35:15Z</time>
      </trkpt>
      <trkpt lat="47.48368" lon="-0.69513">
        <ele>56</ele>
        <time>2020-09-20T09:36:12Z</time>
      </trkpt>
      <trkpt lat="47.48405" lon="-0.69741">
        <ele>58</ele>
        <time>2020-09-20T09:36:41Z</time>
      </trkpt>
      <trkpt lat="47.48423" lon="-0.69801">
        <ele>58</ele>
        <time>2020-09-20T09:36:48Z</time>
      </trkpt>
      <trkpt lat="47.48496" lon="-0.69977">
        <ele>59</ele>
        <time>2020-09-20T09:37:13Z</time>
      </trkpt>
      <trkpt lat="47.48519" lon="-0.70021">
        <ele>59</ele>
        <time>2020-09-20T09:37:20Z</time>
      </trkpt>
      <trkpt lat="47.48596" lon="-0.70131">
        <ele>59</ele>
        <time>2020-09-20T09:37:39Z</time>
      </trkpt>
      <trkpt lat="47.48672" lon="-0.70218">
        <ele>60</ele>
        <time>2020-09-20T09:37:56Z</time>
      </trkpt>
      <trkpt lat="47.48688" lon="-0.70242">
        <ele>60</ele>
        <time>2020-09-20T09:38:00Z</time>
      </trkpt>
      <trkpt lat="47.48699" lon="-0.70264">
        <ele>60</ele>
        <time>2020-09-20T09:38:03Z</time>
      </trkpt>
      <trkpt lat="47.48713" lon="-0.70313">
        <ele>60</ele>
        <time>2020-09-20T09:38:10Z</time>
      </trkpt>
      <trkpt lat="47.48745" lon="-0.70399">
        <ele>60</ele>
        <time>2020-09-20T09:38:22Z</time>
      </trkpt>
      <trkpt lat="47.4882" lon="-0.70567">
        <ele>62</ele>
        <time>2020-09-20T09:38:46Z</time>
      </trkpt>
      <trkpt lat="47.48834" lon="-0.70607">
        <ele>62</ele>
        <time>2020-09-20T09:38:51Z</time>
      </trkpt>
      <trkpt lat="47.48859" lon="-0.70711">
        <ele>62</ele>
        <time>2020-09-20T09:39:05Z</time>
      </trkpt>
      <trkpt lat="47.48874" lon="-0.70755">
        <ele>63</ele>
        <time>2020-09-20T09:39:10Z</time>
      </trkpt>
      <trkpt lat="47.4892" lon="-0.70833">
        <ele>61</ele>
        <time>2020-09-20T09:39:23Z</time>
      </trkpt>
      <trkpt lat="47.48991" lon="-0.71006">
        <ele>62</ele>
        <time>2020-09-20T09:39:47Z</time>
      </trkpt>
      <trkpt lat="47.49011" lon="-0.7106">
        <ele>61</ele>
        <time>2020-09-20T09:39:55Z</time>
      </trkpt>
      <trkpt lat="47.49034" lon="-0.71265">
        <ele>60</ele>
        <time>2020-09-20T09:40:20Z</time>
      </trkpt>
      <trkpt lat="47.49058" lon="-0.71376">
        <ele>60</ele>
        <time>2020-09-20T09:40:34Z</time>
      </trkpt>
      <trkpt lat="47.49071" lon="-0.71508">
        <ele>62</ele>
        <time>2020-09-20T09:40:50Z</time>
      </trkpt>
      <trkpt lat="47.49096" lon="-0.71661">
        <ele>61</ele>
        <time>2020-09-20T09:41:09Z</time>
      </trkpt>
      <trkpt lat="47.49125" lon="-0.71963">
        <ele>60</ele>
        <time>2020-09-20T09:41:45Z</time>
      </trkpt>
      <trkpt lat="47.49105" lon="-0.72116">
        <ele>60</ele>
        <time>2020-09-20T09:42:04Z</time>
      </trkpt>
      <trkpt lat="47.491" lon="-0.72138">
        <ele>60</ele>
        <time>2020-09-20T09:42:07Z</time>
      </trkpt>
      <trkpt lat="47.49065" lon="-0.72222">
        <ele>60</ele>
        <time>2020-09-20T09:42:19Z</time>
      </trkpt>
      <trkpt lat="47.4913" lon="-0.72285">
        <ele>60</ele>
        <time>2020-09-20T09:42:32Z</time>
      </trkpt>
      <trkpt lat="47.49218" lon="-0.72334">
        <ele>60</ele>
        <time>2020-09-20T09:42:49Z</time>
      </trkpt>
      <trkpt lat="47.49239" lon="-0.72352">
        <ele>60</ele>
        <time>2020-09-20T09:42:54Z</time>
      </trkpt>
      <trkpt lat="47.49278" lon="-0.72401">
        <ele>62</ele>
        <time>2020-09-20T09:43:03Z</time>
      </trkpt>
      <trkpt lat="47.49288" lon="-0.72409">
        <ele>62</ele>
        <time>2020-09-20T09:43:05Z</time>
      </trkpt>
      <trkpt lat="47.49297" lon="-0.72414">
        <ele>63</ele>
        <time>2020-09-20T09:43:06Z</time>
      </trkpt>
      <trkpt lat="47.49309" lon="-0.72413">
        <ele>63</ele>
        <time>2020-09-20T09:43:08Z</time>
      </trkpt>
      <trkpt lat="47.49325" lon="-0.72409">
        <ele>64</ele>
        <time>2020-09-20T09:43:11Z</time>
      </trkpt>
      <trkpt lat="47.49351" lon="-0.72398">
        <ele>63</ele>
        <time>2020-09-20T09:43:16Z</time>
      </trkpt>
      <trkpt lat="47.49365" lon="-0.72398">
        <ele>63</ele>
        <time>2020-09-20T09:43:19Z</time>
      </trkpt>
      <trkpt lat="47.49376" lon="-0.72403">
        <ele>63</ele>
        <time>2020-09-20T09:43:21Z</time>
      </trkpt>
      <trkpt lat="47.49388" lon="-0.72415">
        <ele>63</ele>
        <time>2020-09-20T09:43:23Z</time>
      </trkpt>
      <trkpt lat="47.49398" lon="-0.72438">
        <ele>62</ele>
        <time>2020-09-20T09:43:27Z</time>
      </trkpt>
      <trkpt lat="47.4943" lon="-0.72559">
        <ele>62</ele>
        <time>2020-09-20T09:43:42Z</time>
      </trkpt>
      <trkpt lat="47.49447" lon="-0.72589">
        <ele>61</ele>
        <time>2020-09-20T09:43:47Z</time>
      </trkpt>
      <trkpt lat="47.49468" lon="-0.72618">
        <ele>60</ele>
        <time>2020-09-20T09:43:52Z</time>
      </trkpt>
      <trkpt lat="47.49536" lon="-0.7269">
        <ele>58</ele>
        <time>2020-09-20T09:44:07Z</time>
      </trkpt>
      <trkpt lat="47.4955" lon="-0.72708">
        <ele>57</ele>
        <time>2020-09-20T09:44:10Z</time>
      </trkpt>
      <trkpt lat="47.49567" lon="-0.72737">
        <ele>56</ele>
        <time>2020-09-20T09:44:15Z</time>
      </trkpt>
      <trkpt lat="47.49697" lon="-0.73002">
        <ele>55</ele>
        <time>2020-09-20T09:44:54Z</time>
      </trkpt>
      <trkpt lat="47.49733" lon="-0.73081">
        <ele>54</ele>
        <time>2020-09-20T09:45:06Z</time>
      </trkpt>
      <trkpt lat="47.49766" lon="-0.73169">
        <ele>53</ele>
        <time>2020-09-20T09:45:18Z</time>
      </trkpt>
      <trkpt lat="47.49804" lon="-0.73282">
        <ele>54</ele>
        <time>2020-09-20T09:45:33Z</time>
      </trkpt>
      <trkpt lat="47.49817" lon="-0.73306">
        <ele>55</ele>
        <time>2020-09-20T09:45:37Z</time>
      </trkpt>
      <trkpt lat="47.49859" lon="-0.73362">
        <ele>54</ele>
        <time>2020-09-20T09:45:47Z</time>
      </trkpt>
      <trkpt lat="47.4994" lon="-0.73458">
        <ele>54</ele>
        <time>2020-09-20T09:46:05Z</time>
      </trkpt>
      <trkpt lat="47.49954" lon="-0.73483">
        <ele>54</ele>
        <time>2020-09-20T09:46:09Z</time>
      </trkpt>
      <trkpt lat="47.49998" lon="-0.73591">
        <ele>53</ele>
        <time>2020-09-20T09:46:24Z</time>
      </trkpt>
      <trkpt lat="47.50014" lon="-0.73616">
        <ele>54</ele>
        <time>2020-09-20T09:46:28Z</time>
      </trkpt>
      <trkpt lat="47.50031" lon="-0.73634">
        <ele>54</ele>
        <time>2020-09-20T09:46:32Z</time>
      </trkpt>
      <trkpt lat="47.50139" lon="-0.7371">
        <ele>55</ele>
        <time>2020-09-20T09:46:53Z</time>
      </trkpt>
      <trkpt lat="47.50162" lon="-0.73731">
        <ele>56</ele>
        <time>2020-09-20T09:46:58Z</time>
      </trkpt>
      <trkpt lat="47.50242" lon="-0.73831">
        <ele>55</ele>
        <time>2020-09-20T09:47:17Z</time>
      </trkpt>
      <trkpt lat="47.50277" lon="-0.73785">
        <ele>55</ele>
        <time>2020-09-20T09:47:25Z</time>
      </trkpt>
      <trkpt lat="47.50294" lon="-0.73774">
        <ele>55</ele>
        <time>2020-09-20T09:47:28Z</time>
      </trkpt>
      <trkpt lat="47.50489" lon="-0.73839">
        <ele>53</ele>
        <time>2020-09-20T09:48:04Z</time>
      </trkpt>
      <trkpt lat="47.50551" lon="-0.73888">
        <ele>53</ele>
        <time>2020-09-20T09:48:16Z</time>
      </trkpt>
      <trkpt lat="47.50565" lon="-0.73902">
        <ele>53</ele>
        <time>2020-09-20T09:48:19Z</time>
      </trkpt>
      <trkpt lat="47.50719" lon="-0.74018">
        <ele>55</ele>
        <time>2020-09-20T09:48:50Z</time>
      </trkpt>
      <trkpt lat="47.50743" lon="-0.74034">
        <ele>56</ele>
        <time>2020-09-20T09:48:55Z</time>
      </trkpt>
      <trkpt lat="47.5082" lon="-0.74068">
        <ele>61</ele>
        <time>2020-09-20T09:49:09Z</time>
      </trkpt>
      <trkpt lat="47.50842" lon="-0.74082">
        <ele>63</ele>
        <time>2020-09-20T09:49:13Z</time>
      </trkpt>
      <trkpt lat="47.50869" lon="-0.74106">
        <ele>64</ele>
        <time>2020-09-20T09:49:19Z</time>
      </trkpt>
      <trkpt lat="47.50909" lon="-0.7415">
        <ele>68</ele>
        <time>2020-09-20T09:49:28Z</time>
      </trkpt>
      <trkpt lat="47.50929" lon="-0.74168">
        <ele>69</ele>
        <time>2020-09-20T09:49:32Z</time>
      </trkpt>
      <trkpt lat="47.50949" lon="-0.7418">
        <ele>69</ele>
        <time>2020-09-20T09:49:36Z</time>
      </trkpt>
      <trkpt lat="47.50974" lon="-0.74189">
        <ele>69</ele>
        <time>2020-09-20T09:49:41Z</time>
      </trkpt>
      <trkpt lat="47.51009" lon="-0.74191">
        <ele>69</ele>
        <time>2020-09-20T09:49:47Z</time>
      </trkpt>
      <trkpt lat="47.51048" lon="-0.74188">
        <ele>68</ele>
        <time>2020-09-20T09:49:54Z</time>
      </trkpt>
      <trkpt lat="47.51077" lon="-0.74185">
        <ele>68</ele>
        <time>2020-09-20T09:49:59Z</time>
      </trkpt>
      <trkpt lat="47.51126" lon="-0.74172">
        <ele>66</ele>
        <time>2020-09-20T09:50:08Z</time>
      </trkpt>
      <trkpt lat="47.51255" lon="-0.74163">
        <ele>63</ele>
        <time>2020-09-20T09:50:31Z</time>
      </trkpt>
      <trkpt lat="47.51293" lon="-0.74164">
        <ele>62</ele>
        <time>2020-09-20T09:50:37Z</time>
      </trkpt>
      <trkpt lat="47.51338" lon="-0.74177">
        <ele>62</ele>
        <time>2020-09-20T09:50:46Z</time>
      </trkpt>
      <trkpt lat="47.51363" lon="-0.74178">
        <ele>62</ele>
        <time>2020-09-20T09:50:50Z</time>
      </trkpt>
      <trkpt lat="47.51468" lon="-0.74168">
        <ele>61</ele>
        <time>2020-09-20T09:51:09Z</time>
      </trkpt>
      <trkpt lat="47.51516" lon="-0.7417">
        <ele>61</ele>
        <time>2020-09-20T09:51:17Z</time>
      </trkpt>
      <trkpt lat="47.51581" lon="-0.74157">
        <ele>61</ele>
        <time>2020-09-20T09:51:29Z</time>
      </trkpt>
      <trkpt lat="47.51607" lon="-0.74155">
        <ele>61</ele>
        <time>2020-09-20T09:51:34Z</time>
      </trkpt>
      <trkpt lat="47.51641" lon="-0.74161">
        <ele>61</ele>
        <time>2020-09-20T09:51:40Z</time>
      </trkpt>
      <trkpt lat="47.51714" lon="-0.74187">
        <ele>60</ele>
        <time>2020-09-20T09:51:53Z</time>
      </trkpt>
      <trkpt lat="47.51735" lon="-0.74191">
        <ele>60</ele>
        <time>2020-09-20T09:51:57Z</time>
      </trkpt>
      <trkpt lat="47.51817" lon="-0.74195">
        <ele>60</ele>
        <time>2020-09-20T09:52:11Z</time>
      </trkpt>
      <trkpt lat="47.51878" lon="-0.74195">
        <ele>59</ele>
        <time>2020-09-20T09:52:22Z</time>
      </trkpt>
      <trkpt lat="47.51885" lon="-0.74018">
        <ele>59</ele>
        <time>2020-09-20T09:52:44Z</time>
      </trkpt>
      <trkpt lat="47.51898" lon="-0.73951">
        <ele>59</ele>
        <time>2020-09-20T09:52:52Z</time>
      </trkpt>
      <trkpt lat="47.51993" lon="-0.74032">
        <ele>57</ele>
        <time>2020-09-20T09:53:12Z</time>
      </trkpt>
      <trkpt lat="47.52251" lon="-0.74236">
        <ele>52</ele>
        <time>2020-09-20T09:54:04Z</time>
      </trkpt>
      <trkpt lat="47.52267" lon="-0.74255">
        <ele>52</ele>
        <time>2020-09-20T09:54:07Z</time>
      </trkpt>
      <trkpt lat="47.52313" lon="-0.74327">
        <ele>54</ele>
        <time>2020-09-20T09:54:19Z</time>
      </trkpt>
      <trkpt lat="47.5234" lon="-0.74361">
        <ele>56</ele>
        <time>2020-09-20T09:54:25Z</time>
      </trkpt>
      <trkpt lat="47.52396" lon="-0.74423">
        <ele>60</ele>
        <time>2020-09-20T09:54:38Z</time>
      </trkpt>
      <trkpt lat="47.52431" lon="-0.74451">
        <ele>62</ele>
        <time>2020-09-20T09:54:45Z</time>
      </trkpt>
      <trkpt lat="47.52452" lon="-0.74473">
        <ele>63</ele>
        <time>2020-09-20T09:54:50Z</time>
      </trkpt>
      <trkpt lat="47.52479" lon="-0.74517">
        <ele>64</ele>
        <time>2020-09-20T09:54:57Z</time>
      </trkpt>
      <trkpt lat="47.52481" lon="-0.74528">
        <ele>64</ele>
        <time>2020-09-20T09:54:58Z</time>
      </trkpt>
      <trkpt lat="47.52486" lon="-0.74534">
        <ele>64</ele>
        <time>2020-09-20T09:54:59Z</time>
      </trkpt>
      <trkpt lat="47.52511" lon="-0.74593">
        <ele>65</ele>
        <time>2020-09-20T09:55:08Z</time>
      </trkpt>
      <trkpt lat="47.52563" lon="-0.74599">
        <ele>65</ele>
        <time>2020-09-20T09:55:17Z</time>
      </trkpt>
      <trkpt lat="47.52586" lon="-0.74613">
        <ele>65</ele>
        <time>2020-09-20T09:55:21Z</time>
      </trkpt>
      <trkpt lat="47.52601" lon="-0.74628">
        <ele>64</ele>
        <time>2020-09-20T09:55:24Z</time>
      </trkpt>
      <trkpt lat="47.52623" lon="-0.74666">
        <ele>64</ele>
        <time>2020-09-20T09:55:30Z</time>
      </trkpt>
      <trkpt lat="47.52641" lon="-0.74721">
        <ele>63</ele>
        <time>2020-09-20T09:55:38Z</time>
      </trkpt>
      <trkpt lat="47.52659" lon="-0.74758">
        <ele>63</ele>
        <time>2020-09-20T09:55:43Z</time>
      </trkpt>
      <trkpt lat="47.52798" lon="-0.74961">
        <ele>65</ele>
        <time>2020-09-20T09:56:18Z</time>
      </trkpt>
      <trkpt lat="47.52828" lon="-0.75009">
        <ele>67</ele>
        <time>2020-09-20T09:56:26Z</time>
      </trkpt>
      <trkpt lat="47.52847" lon="-0.75047">
        <ele>67</ele>
        <time>2020-09-20T09:56:32Z</time>
      </trkpt>
      <trkpt lat="47.52862" lon="-0.75091">
        <ele>67</ele>
        <time>2020-09-20T09:56:37Z</time>
      </trkpt>
      <trkpt lat="47.52891" lon="-0.752">
        <ele>68</ele>
        <time>2020-09-20T09:56:52Z</time>
      </trkpt>
      <trkpt lat="47.52896" lon="-0.75241">
        <ele>69</ele>
        <time>2020-09-20T09:56:57Z</time>
      </trkpt>
      <trkpt lat="47.52901" lon="-0.75245">
        <ele>69</ele>
        <time>2020-09-20T09:56:58Z</time>
      </trkpt>
      <trkpt lat="47.52898" lon="-0.75253">
        <ele>69</ele>
        <time>2020-09-20T09:56:59Z</time>
      </trkpt>
      <trkpt lat="47.52903" lon="-0.75261">
        <ele>69</ele>
        <time>2020-09-20T09:57:00Z</time>
      </trkpt>
      <trkpt lat="47.52918" lon="-0.75304">
        <ele>69</ele>
        <time>2020-09-20T09:57:06Z</time>
      </trkpt>
      <trkpt lat="47.52935" lon="-0.75392">
        <ele>69</ele>
        <time>2020-09-20T09:57:17Z</time>
      </trkpt>
      <trkpt lat="47.52966" lon="-0.75654">
        <ele>68</ele>
        <time>2020-09-20T09:57:49Z</time>
      </trkpt>
      <trkpt lat="47.52981" lon="-0.7572">
        <ele>68</ele>
        <time>2020-09-20T09:57:57Z</time>
      </trkpt>
      <trkpt lat="47.53119" lon="-0.76073">
        <ele>69</ele>
        <time>2020-09-20T09:58:46Z</time>
      </trkpt>
      <trkpt lat="47.53127" lon="-0.76102">
        <ele>68</ele>
        <time>2020-09-20T09:58:50Z</time>
      </trkpt>
      <trkpt lat="47.53133" lon="-0.76159">
        <ele>68</ele>
        <time>2020-09-20T09:58:57Z</time>
      </trkpt>
      <trkpt lat="47.53172" lon="-0.77028">
        <ele>69</ele>
        <time>2020-09-20T10:00:41Z</time>
      </trkpt>
      <trkpt lat="47.53176" lon="-0.77075">
        <ele>70</ele>
        <time>2020-09-20T10:00:47Z</time>
      </trkpt>
      <trkpt lat="47.53192" lon="-0.77158">
        <ele>71</ele>
        <time>2020-09-20T10:00:58Z</time>
      </trkpt>
      <trkpt lat="47.53251" lon="-0.77371">
        <ele>70</ele>
        <time>2020-09-20T10:01:25Z</time>
      </trkpt>
      <trkpt lat="47.53264" lon="-0.77402">
        <ele>70</ele>
        <time>2020-09-20T10:01:30Z</time>
      </trkpt>
      <trkpt lat="47.5328" lon="-0.7743">
        <ele>70</ele>
        <time>2020-09-20T10:01:34Z</time>
      </trkpt>
      <trkpt lat="47.53297" lon="-0.77453">
        <ele>70</ele>
        <time>2020-09-20T10:01:38Z</time>
      </trkpt>
      <trkpt lat="47.53319" lon="-0.77473">
        <ele>70</ele>
        <time>2020-09-20T10:01:43Z</time>
      </trkpt>
      <trkpt lat="47.53359" lon="-0.77494">
        <ele>69</ele>
        <time>2020-09-20T10:01:50Z</time>
      </trkpt>
      <trkpt lat="47.534" lon="-0.77511">
        <ele>67</ele>
        <time>2020-09-20T10:01:58Z</time>
      </trkpt>
      <trkpt lat="47.53451" lon="-0.77527">
        <ele>66</ele>
        <time>2020-09-20T10:02:07Z</time>
      </trkpt>
      <trkpt lat="47.53463" lon="-0.77533">
        <ele>66</ele>
        <time>2020-09-20T10:02:09Z</time>
      </trkpt>
      <trkpt lat="47.53489" lon="-0.77551">
        <ele>66</ele>
        <time>2020-09-20T10:02:14Z</time>
      </trkpt>
      <trkpt lat="47.53514" lon="-0.77585">
        <ele>66</ele>
        <time>2020-09-20T10:02:20Z</time>
      </trkpt>
      <trkpt lat="47.53533" lon="-0.77631">
        <ele>67</ele>
        <time>2020-09-20T10:02:27Z</time>
      </trkpt>
      <trkpt lat="47.53615" lon="-0.77879">
        <ele>68</ele>
        <time>2020-09-20T10:03:00Z</time>
      </trkpt>
      <trkpt lat="47.5363" lon="-0.77913">
        <ele>68</ele>
        <time>2020-09-20T10:03:05Z</time>
      </trkpt>
      <trkpt lat="47.53709" lon="-0.78059">
        <ele>68</ele>
        <time>2020-09-20T10:03:27Z</time>
      </trkpt>
      <trkpt lat="47.53737" lon="-0.78124">
        <ele>68</ele>
        <time>2020-09-20T10:03:37Z</time>
      </trkpt>
      <trkpt lat="47.5376" lon="-0.78191">
        <ele>68</ele>
        <time>2020-09-20T10:03:46Z</time>
      </trkpt>
      <trkpt lat="47.53848" lon="-0.78498">
        <ele>61</ele>
        <time>2020-09-20T10:04:26Z</time>
      </trkpt>
      <trkpt lat="47.53866" lon="-0.78536">
        <ele>61</ele>
        <time>2020-09-20T10:04:31Z</time>
      </trkpt>
      <trkpt lat="47.53885" lon="-0.78557">
        <ele>61</ele>
        <time>2020-09-20T10:04:36Z</time>
      </trkpt>
      <trkpt lat="47.53904" lon="-0.78565">
        <ele>60</ele>
        <time>2020-09-20T10:04:39Z</time>
      </trkpt>
      <trkpt lat="47.53981" lon="-0.78575">
        <ele>57</ele>
        <time>2020-09-20T10:04:53Z</time>
      </trkpt>
      <trkpt lat="47.54015" lon="-0.78586">
        <ele>56</ele>
        <time>2020-09-20T10:04:59Z</time>
      </trkpt>
      <trkpt lat="47.5408" lon="-0.78624">
        <ele>55</ele>
        <time>2020-09-20T10:05:11Z</time>
      </trkpt>
      <trkpt lat="47.5417" lon="-0.78685">
        <ele>56</ele>
        <time>2020-09-20T10:05:29Z</time>
      </trkpt>
      <trkpt lat="47.54462" lon="-0.78949">
        <ele>55</ele>
        <time>2020-09-20T10:06:30Z</time>
      </trkpt>
      <trkpt lat="47.54501" lon="-0.78994">
        <ele>54</ele>
        <time>2020-09-20T10:06:39Z</time>
      </trkpt>
      <trkpt lat="47.54604" lon="-0.79133">
        <ele>55</ele>
        <time>2020-09-20T10:07:04Z</time>
      </trkpt>
      <trkpt lat="47.54628" lon="-0.79158">
        <ele>55</ele>
        <time>2020-09-20T10:07:09Z</time>
      </trkpt>
      <trkpt lat="47.54647" lon="-0.79175">
        <ele>55</ele>
        <time>2020-09-20T10:07:13Z</time>
      </trkpt>
      <trkpt lat="47.54669" lon="-0.79186">
        <ele>55</ele>
        <time>2020-09-20T10:07:17Z</time>
      </trkpt>
      <trkpt lat="47.54735" lon="-0.79207">
        <ele>57</ele>
        <time>2020-09-20T10:07:29Z</time>
      </trkpt>
      <trkpt lat="47.54758" lon="-0.79219">
        <ele>57</ele>
        <time>2020-09-20T10:07:33Z</time>
      </trkpt>
      <trkpt lat="47.54776" lon="-0.79236">
        <ele>57</ele>
        <time>2020-09-20T10:07:37Z</time>
      </trkpt>
      <trkpt lat="47.54799" lon="-0.79278">
        <ele>58</ele>
        <time>2020-09-20T10:07:44Z</time>
      </trkpt>
      <trkpt lat="47.54834" lon="-0.79366">
        <ele>59</ele>
        <time>2020-09-20T10:07:56Z</time>
      </trkpt>
      <trkpt lat="47.54853" lon="-0.794">
        <ele>60</ele>
        <time>2020-09-20T10:08:01Z</time>
      </trkpt>
      <trkpt lat="47.54884" lon="-0.7944">
        <ele>61</ele>
        <time>2020-09-20T10:08:08Z</time>
      </trkpt>
      <trkpt lat="47.54934" lon="-0.79492">
        <ele>60</ele>
        <time>2020-09-20T10:08:19Z</time>
      </trkpt>
      <trkpt lat="47.54963" lon="-0.79537">
        <ele>62</ele>
        <time>2020-09-20T10:08:27Z</time>
      </trkpt>
      <trkpt lat="47.54977" lon="-0.79577">
        <ele>63</ele>
        <time>2020-09-20T10:08:32Z</time>
      </trkpt>
      <trkpt lat="47.55094" lon="-0.80078">
        <ele>65</ele>
        <time>2020-09-20T10:09:36Z</time>
      </trkpt>
      <trkpt lat="47.55105" lon="-0.80139">
        <ele>64</ele>
        <time>2020-09-20T10:09:43Z</time>
      </trkpt>
      <trkpt lat="47.55086" lon="-0.80139">
        <ele>65</ele>
        <time>2020-09-20T10:09:47Z</time>
      </trkpt>
      <trkpt lat="47.55027" lon="-0.80157">
        <ele>69</ele>
        <time>2020-09-20T10:09:57Z</time>
      </trkpt>
      <trkpt lat="47.54985" lon="-0.80166">
        <ele>71</ele>
        <time>2020-09-20T10:10:05Z</time>
      </trkpt>
      <trkpt lat="47.54928" lon="-0.80172">
        <ele>71</ele>
        <time>2020-09-20T10:10:15Z</time>
      </trkpt>
      <trkpt lat="47.5495" lon="-0.804">
        <ele>72</ele>
        <time>2020-09-20T10:10:43Z</time>
      </trkpt>
      <trkpt lat="47.54952" lon="-0.8047">
        <ele>73</ele>
        <time>2020-09-20T10:10:51Z</time>
      </trkpt>
      <trkpt lat="47.54948" lon="-0.80549">
        <ele>72</ele>
        <time>2020-09-20T10:11:01Z</time>
      </trkpt>
      <trkpt lat="47.54949" lon="-0.80617">
        <ele>71</ele>
        <time>2020-09-20T10:11:09Z</time>
      </trkpt>
      <trkpt lat="47.54952" lon="-0.80638">
        <ele>71</ele>
        <time>2020-09-20T10:11:12Z</time>
      </trkpt>
      <trkpt lat="47.54961" lon="-0.8067">
        <ele>72</ele>
        <time>2020-09-20T10:11:16Z</time>
      </trkpt>
      <trkpt lat="47.54965" lon="-0.80705">
        <ele>71</ele>
        <time>2020-09-20T10:11:20Z</time>
      </trkpt>
      <trkpt lat="47.54967" lon="-0.8081">
        <ele>70</ele>
        <time>2020-09-20T10:11:33Z</time>
      </trkpt>
      <trkpt lat="47.54973" lon="-0.80908">
        <ele>70</ele>
        <time>2020-09-20T10:11:44Z</time>
      </trkpt>
      <trkpt lat="47.55159" lon="-0.80912">
        <ele>72</ele>
        <time>2020-09-20T10:12:17Z</time>
      </trkpt>
      <trkpt lat="47.55296" lon="-0.80946">
        <ele>70</ele>
        <time>2020-09-20T10:12:42Z</time>
      </trkpt>
      <trkpt lat="47.55308" lon="-0.80953">
        <ele>69</ele>
        <time>2020-09-20T10:12:45Z</time>
      </trkpt>
      <trkpt lat="47.55313" lon="-0.8096">
        <ele>69</ele>
        <time>2020-09-20T10:12:46Z</time>
      </trkpt>
      <trkpt lat="47.55368" lon="-0.81063">
        <ele>69</ele>
        <time>2020-09-20T10:13:01Z</time>
      </trkpt>
      <trkpt lat="47.55389" lon="-0.81089">
        <ele>70</ele>
        <time>2020-09-20T10:13:06Z</time>
      </trkpt>
      <trkpt lat="47.55412" lon="-0.81103">
        <ele>71</ele>
        <time>2020-09-20T10:13:11Z</time>
      </trkpt>
      <trkpt lat="47.5571" lon="-0.81253">
        <ele>70</ele>
        <time>2020-09-20T10:14:07Z</time>
      </trkpt>
      <trkpt lat="47.55595" lon="-0.82097">
        <ele>66</ele>
        <time>2020-09-20T10:15:50Z</time>
      </trkpt>
      <trkpt lat="47.55582" lon="-0.82174">
        <ele>66</ele>
        <time>2020-09-20T10:16:00Z</time>
      </trkpt>
      <trkpt lat="47.55551" lon="-0.82327">
        <ele>68</ele>
        <time>2020-09-20T10:16:19Z</time>
      </trkpt>
      <trkpt lat="47.55544" lon="-0.82388">
        <ele>69</ele>
        <time>2020-09-20T10:16:26Z</time>
      </trkpt>
      <trkpt lat="47.55545" lon="-0.82439">
        <ele>70</ele>
        <time>2020-09-20T10:16:32Z</time>
      </trkpt>
      <trkpt lat="47.55549" lon="-0.82476">
        <ele>71</ele>
        <time>2020-09-20T10:16:37Z</time>
      </trkpt>
      <trkpt lat="47.55554" lon="-0.82504">
        <ele>71</ele>
        <time>2020-09-20T10:16:40Z</time>
      </trkpt>
      <trkpt lat="47.55565" lon="-0.8254">
        <ele>71</ele>
        <time>2020-09-20T10:16:45Z</time>
      </trkpt>
      <trkpt lat="47.55583" lon="-0.82583">
        <ele>72</ele>
        <time>2020-09-20T10:16:51Z</time>
      </trkpt>
      <trkpt lat="47.5561" lon="-0.82637">
        <ele>72</ele>
        <time>2020-09-20T10:16:59Z</time>
      </trkpt>
      <trkpt lat="47.55618" lon="-0.82667">
        <ele>71</ele>
        <time>2020-09-20T10:17:03Z</time>
      </trkpt>
      <trkpt lat="47.55618" lon="-0.82718">
        <ele>71</ele>
        <time>2020-09-20T10:17:09Z</time>
      </trkpt>
      <trkpt lat="47.55608" lon="-0.82767">
        <ele>71</ele>
        <time>2020-09-20T10:17:15Z</time>
      </trkpt>
      <trkpt lat="47.55606" lon="-0.82789">
        <ele>71</ele>
        <time>2020-09-20T10:17:18Z</time>
      </trkpt>
      <trkpt lat="47.55609" lon="-0.8284">
        <ele>71</ele>
        <time>2020-09-20T10:17:24Z</time>
      </trkpt>
      <trkpt lat="47.55617" lon="-0.82879">
        <ele>71</ele>
        <time>2020-09-20T10:17:29Z</time>
      </trkpt>
      <trkpt lat="47.55629" lon="-0.8292">
        <ele>71</ele>
        <time>2020-09-20T10:17:35Z</time>
      </trkpt>
      <trkpt lat="47.55661" lon="-0.83008">
        <ele>71</ele>
        <time>2020-09-20T10:17:47Z</time>
      </trkpt>
      <trkpt lat="47.55711" lon="-0.83128">
        <ele>68</ele>
        <time>2020-09-20T10:18:03Z</time>
      </trkpt>
      <trkpt lat="47.55789" lon="-0.83347">
        <ele>70</ele>
        <time>2020-09-20T10:18:33Z</time>
      </trkpt>
      <trkpt lat="47.55837" lon="-0.83451">
        <ele>72</ele>
        <time>2020-09-20T10:18:48Z</time>
      </trkpt>
      <trkpt lat="47.55865" lon="-0.83585">
        <ele>73</ele>
        <time>2020-09-20T10:19:05Z</time>
      </trkpt>
      <trkpt lat="47.55886" lon="-0.83804">
        <ele>76</ele>
        <time>2020-09-20T10:19:32Z</time>
      </trkpt>
      <trkpt lat="47.5591" lon="-0.83945">
        <ele>79</ele>
        <time>2020-09-20T10:19:49Z</time>
      </trkpt>
      <trkpt lat="47.55914" lon="-0.8401">
        <ele>80</ele>
        <time>2020-09-20T10:19:57Z</time>
      </trkpt>
      <trkpt lat="47.55911" lon="-0.84064">
        <ele>80</ele>
        <time>2020-09-20T10:20:04Z</time>
      </trkpt>
      <trkpt lat="47.55912" lon="-0.84091">
        <ele>81</ele>
        <time>2020-09-20T10:20:07Z</time>
      </trkpt>
      <trkpt lat="47.55948" lon="-0.84262">
        <ele>79</ele>
        <time>2020-09-20T10:20:28Z</time>
      </trkpt>
      <trkpt lat="47.55953" lon="-0.84298">
        <ele>79</ele>
        <time>2020-09-20T10:20:33Z</time>
      </trkpt>
      <trkpt lat="47.5595" lon="-0.84472">
        <ele>79</ele>
        <time>2020-09-20T10:20:54Z</time>
      </trkpt>
      <trkpt lat="47.55971" lon="-0.84704">
        <ele>80</ele>
        <time>2020-09-20T10:21:22Z</time>
      </trkpt>
      <trkpt lat="47.55977" lon="-0.84833">
        <ele>80</ele>
        <time>2020-09-20T10:21:37Z</time>
      </trkpt>
      <trkpt lat="47.55991" lon="-0.84927">
        <ele>80</ele>
        <time>2020-09-20T10:21:49Z</time>
      </trkpt>
      <trkpt lat="47.55993" lon="-0.85005">
        <ele>79</ele>
        <time>2020-09-20T10:21:58Z</time>
      </trkpt>
      <trkpt lat="47.56006" lon="-0.85115">
        <ele>76</ele>
        <time>2020-09-20T10:22:12Z</time>
      </trkpt>
      <trkpt lat="47.56024" lon="-0.85161">
        <ele>74</ele>
        <time>2020-09-20T10:22:18Z</time>
      </trkpt>
      <trkpt lat="47.56051" lon="-0.85216">
        <ele>72</ele>
        <time>2020-09-20T10:22:26Z</time>
      </trkpt>
      <trkpt lat="47.56067" lon="-0.85265">
        <ele>72</ele>
        <time>2020-09-20T10:22:33Z</time>
      </trkpt>
      <trkpt lat="47.56079" lon="-0.85292">
        <ele>71</ele>
        <time>2020-09-20T10:22:37Z</time>
      </trkpt>
      <trkpt lat="47.56096" lon="-0.85316">
        <ele>71</ele>
        <time>2020-09-20T10:22:41Z</time>
      </trkpt>
      <trkpt lat="47.56147" lon="-0.85366">
        <ele>70</ele>
        <time>2020-09-20T10:22:52Z</time>
      </trkpt>
      <trkpt lat="47.56171" lon="-0.85394">
        <ele>70</ele>
        <time>2020-09-20T10:22:57Z</time>
      </trkpt>
      <trkpt lat="47.56255" lon="-0.85522">
        <ele>70</ele>
        <time>2020-09-20T10:23:18Z</time>
      </trkpt>
      <trkpt lat="47.5627" lon="-0.85553">
        <ele>70</ele>
        <time>2020-09-20T10:23:23Z</time>
      </trkpt>
      <trkpt lat="47.5628" lon="-0.85593">
        <ele>70</ele>
        <time>2020-09-20T10:23:28Z</time>
      </trkpt>
      <trkpt lat="47.56283" lon="-0.85624">
        <ele>71</ele>
        <time>2020-09-20T10:23:32Z</time>
      </trkpt>
      <trkpt lat="47.56284" lon="-0.85676">
        <ele>71</ele>
        <time>2020-09-20T10:23:38Z</time>
      </trkpt>
      <trkpt lat="47.5628" lon="-0.85756">
        <ele>72</ele>
        <time>2020-09-20T10:23:48Z</time>
      </trkpt>
      <trkpt lat="47.56264" lon="-0.85956">
        <ele>72</ele>
        <time>2020-09-20T10:24:12Z</time>
      </trkpt>
      <trkpt lat="47.56263" lon="-0.86023">
        <ele>71</ele>
        <time>2020-09-20T10:24:20Z</time>
      </trkpt>
      <trkpt lat="47.56274" lon="-0.86194">
        <ele>69</ele>
        <time>2020-09-20T10:24:41Z</time>
      </trkpt>
      <trkpt lat="47.56269" lon="-0.86432">
        <ele>66</ele>
        <time>2020-09-20T10:25:09Z</time>
      </trkpt>
      <trkpt lat="47.56273" lon="-0.86535">
        <ele>65</ele>
        <time>2020-09-20T10:25:22Z</time>
      </trkpt>
      <trkpt lat="47.56279" lon="-0.86568">
        <ele>65</ele>
        <time>2020-09-20T10:25:26Z</time>
      </trkpt>
      <trkpt lat="47.56369" lon="-0.86888">
        <ele>65</ele>
        <time>2020-09-20T10:26:07Z</time>
      </trkpt>
      <trkpt lat="47.56383" lon="-0.86922">
        <ele>66</ele>
        <time>2020-09-20T10:26:12Z</time>
      </trkpt>
      <trkpt lat="47.564" lon="-0.86955">
        <ele>66</ele>
        <time>2020-09-20T10:26:17Z</time>
      </trkpt>
      <trkpt lat="47.56421" lon="-0.86991">
        <ele>67</ele>
        <time>2020-09-20T10:26:23Z</time>
      </trkpt>
      <trkpt lat="47.56473" lon="-0.87067">
        <ele>66</ele>
        <time>2020-09-20T10:26:36Z</time>
      </trkpt>
      <trkpt lat="47.56486" lon="-0.87097">
        <ele>66</ele>
        <time>2020-09-20T10:26:40Z</time>
      </trkpt>
      <trkpt lat="47.56498" lon="-0.87144">
        <ele>67</ele>
        <time>2020-09-20T10:26:46Z</time>
      </trkpt>
      <trkpt lat="47.56504" lon="-0.87206">
        <ele>68</ele>
        <time>2020-09-20T10:26:54Z</time>
      </trkpt>
      <trkpt lat="47.56504" lon="-0.87252">
        <ele>69</ele>
        <time>2020-09-20T10:26:59Z</time>
      </trkpt>
      <trkpt lat="47.56498" lon="-0.87374">
        <ele>70</ele>
        <time>2020-09-20T10:27:14Z</time>
      </trkpt>
      <trkpt lat="47.56503" lon="-0.87463">
        <ele>70</ele>
        <time>2020-09-20T10:27:25Z</time>
      </trkpt>
      <trkpt lat="47.56502" lon="-0.87521">
        <ele>70</ele>
        <time>2020-09-20T10:27:32Z</time>
      </trkpt>
      <trkpt lat="47.56498" lon="-0.87575">
        <ele>70</ele>
        <time>2020-09-20T10:27:38Z</time>
      </trkpt>
      <trkpt lat="47.56499" lon="-0.876">
        <ele>70</ele>
        <time>2020-09-20T10:27:41Z</time>
      </trkpt>
      <trkpt lat="47.56502" lon="-0.87624">
        <ele>70</ele>
        <time>2020-09-20T10:27:44Z</time>
      </trkpt>
      <trkpt lat="47.56508" lon="-0.87642">
        <ele>69</ele>
        <time>2020-09-20T10:27:46Z</time>
      </trkpt>
      <trkpt lat="47.56554" lon="-0.87743">
        <ele>69</ele>
        <time>2020-09-20T10:28:01Z</time>
      </trkpt>
      <trkpt lat="47.56563" lon="-0.87772">
        <ele>69</ele>
        <time>2020-09-20T10:28:05Z</time>
      </trkpt>
      <trkpt lat="47.56568" lon="-0.87805">
        <ele>69</ele>
        <time>2020-09-20T10:28:09Z</time>
      </trkpt>
      <trkpt lat="47.56578" lon="-0.87936">
        <ele>71</ele>
        <time>2020-09-20T10:28:25Z</time>
      </trkpt>
      <trkpt lat="47.56579" lon="-0.88012">
        <ele>72</ele>
        <time>2020-09-20T10:28:34Z</time>
      </trkpt>
      <trkpt lat="47.56574" lon="-0.88083">
        <ele>72</ele>
        <time>2020-09-20T10:28:42Z</time>
      </trkpt>
      <trkpt lat="47.56571" lon="-0.88198">
        <ele>73</ele>
        <time>2020-09-20T10:28:56Z</time>
      </trkpt>
      <trkpt lat="47.56588" lon="-0.88296">
        <ele>74</ele>
        <time>2020-09-20T10:29:08Z</time>
      </trkpt>
      <trkpt lat="47.56593" lon="-0.88341">
        <ele>75</ele>
        <time>2020-09-20T10:29:14Z</time>
      </trkpt>
      <trkpt lat="47.56593" lon="-0.88377">
        <ele>75</ele>
        <time>2020-09-20T10:29:18Z</time>
      </trkpt>
      <trkpt lat="47.56601" lon="-0.88528">
        <ele>77</ele>
        <time>2020-09-20T10:29:36Z</time>
      </trkpt>
      <trkpt lat="47.56601" lon="-0.88596">
        <ele>77</ele>
        <time>2020-09-20T10:29:45Z</time>
      </trkpt>
      <trkpt lat="47.56571" lon="-0.88779">
        <ele>75</ele>
        <time>2020-09-20T10:30:07Z</time>
      </trkpt>
      <trkpt lat="47.56571" lon="-0.88824">
        <ele>76</ele>
        <time>2020-09-20T10:30:13Z</time>
      </trkpt>
      <trkpt lat="47.56574" lon="-0.88856">
        <ele>76</ele>
        <time>2020-09-20T10:30:16Z</time>
      </trkpt>
      <trkpt lat="47.56578" lon="-0.88876">
        <ele>76</ele>
        <time>2020-09-20T10:30:19Z</time>
      </trkpt>
      <trkpt lat="47.56643" lon="-0.89018">
        <ele>78</ele>
        <time>2020-09-20T10:30:40Z</time>
      </trkpt>
      <trkpt lat="47.56653" lon="-0.89052">
        <ele>80</ele>
        <time>2020-09-20T10:30:44Z</time>
      </trkpt>
      <trkpt lat="47.56658" lon="-0.89082">
        <ele>81</ele>
        <time>2020-09-20T10:30:48Z</time>
      </trkpt>
      <trkpt lat="47.56657" lon="-0.89138">
        <ele>82</ele>
        <time>2020-09-20T10:30:54Z</time>
      </trkpt>
      <trkpt lat="47.56674" lon="-0.89225">
        <ele>82</ele>
        <time>2020-09-20T10:31:05Z</time>
      </trkpt>
      <trkpt lat="47.56671" lon="-0.8934">
        <ele>80</ele>
        <time>2020-09-20T10:31:19Z</time>
      </trkpt>
      <trkpt lat="47.56676" lon="-0.89371">
        <ele>80</ele>
        <time>2020-09-20T10:31:23Z</time>
      </trkpt>
      <trkpt lat="47.56689" lon="-0.89436">
        <ele>78</ele>
        <time>2020-09-20T10:31:31Z</time>
      </trkpt>
      <trkpt lat="47.56771" lon="-0.89729">
        <ele>74</ele>
        <time>2020-09-20T10:32:09Z</time>
      </trkpt>
      <trkpt lat="47.56792" lon="-0.8984">
        <ele>76</ele>
        <time>2020-09-20T10:32:23Z</time>
      </trkpt>
      <trkpt lat="47.56816" lon="-0.90076">
        <ele>73</ele>
        <time>2020-09-20T10:32:52Z</time>
      </trkpt>
      <trkpt lat="47.56814" lon="-0.90129">
        <ele>73</ele>
        <time>2020-09-20T10:32:58Z</time>
      </trkpt>
      <trkpt lat="47.56787" lon="-0.90336">
        <ele>74</ele>
        <time>2020-09-20T10:33:23Z</time>
      </trkpt>
      <trkpt lat="47.56788" lon="-0.90358">
        <ele>74</ele>
        <time>2020-09-20T10:33:26Z</time>
      </trkpt>
      <trkpt lat="47.56802" lon="-0.9041">
        <ele>75</ele>
        <time>2020-09-20T10:33:33Z</time>
      </trkpt>
      <trkpt lat="47.5683" lon="-0.90482">
        <ele>75</ele>
        <time>2020-09-20T10:33:43Z</time>
      </trkpt>
      <trkpt lat="47.56844" lon="-0.90563">
        <ele>75</ele>
        <time>2020-09-20T10:33:53Z</time>
      </trkpt>
      <trkpt lat="47.56874" lon="-0.90699">
        <ele>73</ele>
        <time>2020-09-20T10:34:10Z</time>
      </trkpt>
      <trkpt lat="47.56902" lon="-0.90708">
        <ele>73</ele>
        <time>2020-09-20T10:34:15Z</time>
      </trkpt>
      <trkpt lat="47.56919" lon="-0.90707">
        <ele>72</ele>
        <time>2020-09-20T10:34:18Z</time>
      </trkpt>
      <trkpt lat="47.56947" lon="-0.90697">
        <ele>72</ele>
        <time>2020-09-20T10:34:23Z</time>
      </trkpt>
      <trkpt lat="47.56969" lon="-0.90686">
        <ele>72</ele>
        <time>2020-09-20T10:34:27Z</time>
      </trkpt>
      <trkpt lat="47.56969" lon="-0.90748">
        <ele>72</ele>
        <time>2020-09-20T10:34:35Z</time>
      </trkpt>
      <trkpt lat="47.56966" lon="-0.90772">
        <ele>72</ele>
        <time>2020-09-20T10:34:38Z</time>
      </trkpt>
      <trkpt lat="47.56912" lon="-0.90989">
        <ele>70</ele>
        <time>2020-09-20T10:35:05Z</time>
      </trkpt>
      <trkpt lat="47.56884" lon="-0.91142">
        <ele>68</ele>
        <time>2020-09-20T10:35:25Z</time>
      </trkpt>
      <trkpt lat="47.56874" lon="-0.91232">
        <ele>68</ele>
        <time>2020-09-20T10:35:35Z</time>
      </trkpt>
      <trkpt lat="47.56875" lon="-0.91386">
        <ele>66</ele>
        <time>2020-09-20T10:35:54Z</time>
      </trkpt>
      <trkpt lat="47.56877" lon="-0.914">
        <ele>66</ele>
        <time>2020-09-20T10:35:56Z</time>
      </trkpt>
      <trkpt lat="47.56888" lon="-0.91432">
        <ele>65</ele>
        <time>2020-09-20T10:36:00Z</time>
      </trkpt>
      <trkpt lat="47.56918" lon="-0.91484">
        <ele>66</ele>
        <time>2020-09-20T10:36:08Z</time>
      </trkpt>
      <trkpt lat="47.57023" lon="-0.91646">
        <ele>68</ele>
        <time>2020-09-20T10:36:35Z</time>
      </trkpt>
      <trkpt lat="47.57048" lon="-0.9169">
        <ele>69</ele>
        <time>2020-09-20T10:36:42Z</time>
      </trkpt>
      <trkpt lat="47.57149" lon="-0.91916">
        <ele>69</ele>
        <time>2020-09-20T10:37:15Z</time>
      </trkpt>
      <trkpt lat="47.57158" lon="-0.91943">
        <ele>69</ele>
        <time>2020-09-20T10:37:18Z</time>
      </trkpt>
      <trkpt lat="47.5718" lon="-0.92043">
        <ele>68</ele>
        <time>2020-09-20T10:37:31Z</time>
      </trkpt>
      <trkpt lat="47.57183" lon="-0.92088">
        <ele>68</ele>
        <time>2020-09-20T10:37:36Z</time>
      </trkpt>
      <trkpt lat="47.57166" lon="-0.92316">
        <ele>70</ele>
        <time>2020-09-20T10:38:04Z</time>
      </trkpt>
      <trkpt lat="47.57173" lon="-0.9237">
        <ele>69</ele>
        <time>2020-09-20T10:38:10Z</time>
      </trkpt>
      <trkpt lat="47.57185" lon="-0.92417">
        <ele>69</ele>
        <time>2020-09-20T10:38:16Z</time>
      </trkpt>
      <trkpt lat="47.57193" lon="-0.92462">
        <ele>69</ele>
        <time>2020-09-20T10:38:22Z</time>
      </trkpt>
      <trkpt lat="47.57204" lon="-0.92556">
        <ele>70</ele>
        <time>2020-09-20T10:38:33Z</time>
      </trkpt>
      <trkpt lat="47.57204" lon="-0.92638">
        <ele>70</ele>
        <time>2020-09-20T10:38:43Z</time>
      </trkpt>
      <trkpt lat="47.57187" lon="-0.92836">
        <ele>68</ele>
        <time>2020-09-20T10:39:07Z</time>
      </trkpt>
      <trkpt lat="47.5716" lon="-0.92939">
        <ele>68</ele>
        <time>2020-09-20T10:39:21Z</time>
      </trkpt>
      <trkpt lat="47.57097" lon="-0.9338">
        <ele>66</ele>
        <time>2020-09-20T10:40:15Z</time>
      </trkpt>
      <trkpt lat="47.57095" lon="-0.93416">
        <ele>66</ele>
        <time>2020-09-20T10:40:19Z</time>
      </trkpt>
      <trkpt lat="47.57099" lon="-0.9349">
        <ele>67</ele>
        <time>2020-09-20T10:40:28Z</time>
      </trkpt>
      <trkpt lat="47.57088" lon="-0.93654">
        <ele>67</ele>
        <time>2020-09-20T10:40:48Z</time>
      </trkpt>
      <trkpt lat="47.57088" lon="-0.93748">
        <ele>66</ele>
        <time>2020-09-20T10:40:59Z</time>
      </trkpt>
      <trkpt lat="47.57085" lon="-0.93787">
        <ele>66</ele>
        <time>2020-09-20T10:41:04Z</time>
      </trkpt>
      <trkpt lat="47.57076" lon="-0.9383">
        <ele>66</ele>
        <time>2020-09-20T10:41:09Z</time>
      </trkpt>
      <trkpt lat="47.57047" lon="-0.93934">
        <ele>66</ele>
        <time>2020-09-20T10:41:23Z</time>
      </trkpt>
      <trkpt lat="47.57036" lon="-0.93989">
        <ele>66</ele>
        <time>2020-09-20T10:41:29Z</time>
      </trkpt>
      <trkpt lat="47.57032" lon="-0.94023">
        <ele>67</ele>
        <time>2020-09-20T10:41:34Z</time>
      </trkpt>
      <trkpt lat="47.57034" lon="-0.94047">
        <ele>67</ele>
        <time>2020-09-20T10:41:37Z</time>
      </trkpt>
      <trkpt lat="47.5706" lon="-0.94183">
        <ele>66</ele>
        <time>2020-09-20T10:41:54Z</time>
      </trkpt>
      <trkpt lat="47.57072" lon="-0.94326">
        <ele>65</ele>
        <time>2020-09-20T10:42:11Z</time>
      </trkpt>
      <trkpt lat="47.57074" lon="-0.94381">
        <ele>65</ele>
        <time>2020-09-20T10:42:17Z</time>
      </trkpt>
      <trkpt lat="47.57068" lon="-0.94531">
        <ele>65</ele>
        <time>2020-09-20T10:42:35Z</time>
      </trkpt>
      <trkpt lat="47.57076" lon="-0.94837">
        <ele>63</ele>
        <time>2020-09-20T10:43:12Z</time>
      </trkpt>
      <trkpt lat="47.57087" lon="-0.94991">
        <ele>62</ele>
        <time>2020-09-20T10:43:31Z</time>
      </trkpt>
      <trkpt lat="47.5709" lon="-0.95065">
        <ele>62</ele>
        <time>2020-09-20T10:43:40Z</time>
      </trkpt>
      <trkpt lat="47.57096" lon="-0.95102">
        <ele>62</ele>
        <time>2020-09-20T10:43:44Z</time>
      </trkpt>
      <trkpt lat="47.57113" lon="-0.95157">
        <ele>62</ele>
        <time>2020-09-20T10:43:52Z</time>
      </trkpt>
      <trkpt lat="47.57204" lon="-0.95155">
        <ele>61</ele>
        <time>2020-09-20T10:44:08Z</time>
      </trkpt>
      <trkpt lat="47.57326" lon="-0.95174">
        <ele>62</ele>
        <time>2020-09-20T10:44:30Z</time>
      </trkpt>
      <trkpt lat="47.57485" lon="-0.95215">
        <ele>64</ele>
        <time>2020-09-20T10:44:58Z</time>
      </trkpt>
      <trkpt lat="47.57559" lon="-0.95229">
        <ele>65</ele>
        <time>2020-09-20T10:45:12Z</time>
      </trkpt>
      <trkpt lat="47.57204" lon="-0.96894">
        <ele>64</ele>
        <time>2020-09-20T10:48:41Z</time>
      </trkpt>
      <trkpt lat="47.57143" lon="-0.97192">
        <ele>68</ele>
        <time>2020-09-20T10:49:19Z</time>
      </trkpt>
      <trkpt lat="47.57128" lon="-0.97259">
        <ele>67</ele>
        <time>2020-09-20T10:49:27Z</time>
      </trkpt>
      <trkpt lat="47.57123" lon="-0.97274">
        <ele>67</ele>
        <time>2020-09-20T10:49:29Z</time>
      </trkpt>
      <trkpt lat="47.57112" lon="-0.97291">
        <ele>67</ele>
        <time>2020-09-20T10:49:32Z</time>
      </trkpt>
      <trkpt lat="47.57126" lon="-0.97302">
        <ele>66</ele>
        <time>2020-09-20T10:49:35Z</time>
      </trkpt>
      <trkpt lat="47.57198" lon="-0.97311">
        <ele>66</ele>
        <time>2020-09-20T10:49:48Z</time>
      </trkpt>
      <trkpt lat="47.57217" lon="-0.97316">
        <ele>66</ele>
        <time>2020-09-20T10:49:51Z</time>
      </trkpt>
      <trkpt lat="47.57295" lon="-0.97358">
        <ele>65</ele>
        <time>2020-09-20T10:50:06Z</time>
      </trkpt>
      <trkpt lat="47.57317" lon="-0.97374">
        <ele>64</ele>
        <time>2020-09-20T10:50:10Z</time>
      </trkpt>
      <trkpt lat="47.57354" lon="-0.97405">
        <ele>63</ele>
        <time>2020-09-20T10:50:18Z</time>
      </trkpt>
      <trkpt lat="47.57389" lon="-0.9744">
        <ele>64</ele>
        <time>2020-09-20T10:50:25Z</time>
      </trkpt>
      <trkpt lat="47.57469" lon="-0.97534">
        <ele>64</ele>
        <time>2020-09-20T10:50:43Z</time>
      </trkpt>
      <trkpt lat="47.57501" lon="-0.9758">
        <ele>65</ele>
        <time>2020-09-20T10:50:51Z</time>
      </trkpt>
      <trkpt lat="47.57526" lon="-0.97621">
        <ele>64</ele>
        <time>2020-09-20T10:50:58Z</time>
      </trkpt>
      <trkpt lat="47.57538" lon="-0.97656">
        <ele>63</ele>
        <time>2020-09-20T10:51:03Z</time>
      </trkpt>
      <trkpt lat="47.57549" lon="-0.97744">
        <ele>62</ele>
        <time>2020-09-20T10:51:13Z</time>
      </trkpt>
      <trkpt lat="47.57569" lon="-0.97859">
        <ele>59</ele>
        <time>2020-09-20T10:51:28Z</time>
      </trkpt>
      <trkpt lat="47.57573" lon="-0.97936">
        <ele>58</ele>
        <time>2020-09-20T10:51:37Z</time>
      </trkpt>
      <trkpt lat="47.57576" lon="-0.97947">
        <ele>58</ele>
        <time>2020-09-20T10:51:38Z</time>
      </trkpt>
      <trkpt lat="47.57588" lon="-0.97984">
        <ele>57</ele>
        <time>2020-09-20T10:51:43Z</time>
      </trkpt>
      <trkpt lat="47.57637" lon="-0.98109">
        <ele>56</ele>
        <time>2020-09-20T10:52:01Z</time>
      </trkpt>
      <trkpt lat="47.57644" lon="-0.98124">
        <ele>57</ele>
        <time>2020-09-20T10:52:03Z</time>
      </trkpt>
      <trkpt lat="47.57691" lon="-0.98197">
        <ele>55</ele>
        <time>2020-09-20T10:52:15Z</time>
      </trkpt>
      <trkpt lat="47.57729" lon="-0.98277">
        <ele>53</ele>
        <time>2020-09-20T10:52:27Z</time>
      </trkpt>
      <trkpt lat="47.57828" lon="-0.98522">
        <ele>49</ele>
        <time>2020-09-20T10:53:01Z</time>
      </trkpt>
      <trkpt lat="47.57858" lon="-0.98611">
        <ele>49</ele>
        <time>2020-09-20T10:53:13Z</time>
      </trkpt>
      <trkpt lat="47.57917" lon="-0.98907">
        <ele>51</ele>
        <time>2020-09-20T10:53:50Z</time>
      </trkpt>
      <trkpt lat="47.57941" lon="-0.98911">
        <ele>51</ele>
        <time>2020-09-20T10:53:54Z</time>
      </trkpt>
      <trkpt lat="47.58058" lon="-0.98942">
        <ele>50</ele>
        <time>2020-09-20T10:54:15Z</time>
      </trkpt>
      <trkpt lat="47.58077" lon="-0.98949">
        <ele>50</ele>
        <time>2020-09-20T10:54:19Z</time>
      </trkpt>
      <trkpt lat="47.58107" lon="-0.98976">
        <ele>49</ele>
        <time>2020-09-20T10:54:25Z</time>
      </trkpt>
      <trkpt lat="47.58142" lon="-0.99018">
        <ele>49</ele>
        <time>2020-09-20T10:54:33Z</time>
      </trkpt>
      <trkpt lat="47.58183" lon="-0.9906">
        <ele>48</ele>
        <time>2020-09-20T10:54:42Z</time>
      </trkpt>
      <trkpt lat="47.58193" lon="-0.99073">
        <ele>48</ele>
        <time>2020-09-20T10:54:44Z</time>
      </trkpt>
      <trkpt lat="47.58214" lon="-0.9911">
        <ele>48</ele>
        <time>2020-09-20T10:54:50Z</time>
      </trkpt>
      <trkpt lat="47.58235" lon="-0.99154">
        <ele>48</ele>
        <time>2020-09-20T10:54:57Z</time>
      </trkpt>
      <trkpt lat="47.58251" lon="-0.99206">
        <ele>48</ele>
        <time>2020-09-20T10:55:03Z</time>
      </trkpt>
      <trkpt lat="47.58258" lon="-0.9924">
        <ele>49</ele>
        <time>2020-09-20T10:55:08Z</time>
      </trkpt>
      <trkpt lat="47.58285" lon="-0.99433">
        <ele>49</ele>
        <time>2020-09-20T10:55:31Z</time>
      </trkpt>
      <trkpt lat="47.58304" lon="-0.99528">
        <ele>49</ele>
        <time>2020-09-20T10:55:43Z</time>
      </trkpt>
      <trkpt lat="47.58336" lon="-0.99656">
        <ele>46</ele>
        <time>2020-09-20T10:56:00Z</time>
      </trkpt>
      <trkpt lat="47.58338" lon="-0.99681">
        <ele>46</ele>
        <time>2020-09-20T10:56:03Z</time>
      </trkpt>
      <trkpt lat="47.58336" lon="-0.99747">
        <ele>47</ele>
        <time>2020-09-20T10:56:11Z</time>
      </trkpt>
      <trkpt lat="47.5834" lon="-0.99772">
        <ele>47</ele>
        <time>2020-09-20T10:56:14Z</time>
      </trkpt>
      <trkpt lat="47.58363" lon="-0.99795">
        <ele>46</ele>
        <time>2020-09-20T10:56:19Z</time>
      </trkpt>
      <trkpt lat="47.58423" lon="-0.99842">
        <ele>43</ele>
        <time>2020-09-20T10:56:31Z</time>
      </trkpt>
      <trkpt lat="47.58531" lon="-0.99965">
        <ele>41</ele>
        <time>2020-09-20T10:56:55Z</time>
      </trkpt>
      <trkpt lat="47.58544" lon="-0.99987">
        <ele>42</ele>
        <time>2020-09-20T10:56:58Z</time>
      </trkpt>
      <trkpt lat="47.58557" lon="-1.00019">
        <ele>42</ele>
        <time>2020-09-20T10:57:03Z</time>
      </trkpt>
      <trkpt lat="47.58605" lon="-1.00098">
        <ele>42</ele>
        <time>2020-09-20T10:57:16Z</time>
      </trkpt>
      <trkpt lat="47.58712" lon="-1.00265">
        <ele>42</ele>
        <time>2020-09-20T10:57:43Z</time>
      </trkpt>
      <trkpt lat="47.58732" lon="-1.00307">
        <ele>42</ele>
        <time>2020-09-20T10:57:49Z</time>
      </trkpt>
      <trkpt lat="47.58743" lon="-1.00336">
        <ele>42</ele>
        <time>2020-09-20T10:57:53Z</time>
      </trkpt>
      <trkpt lat="47.5883" lon="-1.00611">
        <ele>47</ele>
        <time>2020-09-20T10:58:30Z</time>
      </trkpt>
      <trkpt lat="47.58842" lon="-1.00659">
        <ele>46</ele>
        <time>2020-09-20T10:58:36Z</time>
      </trkpt>
      <trkpt lat="47.58924" lon="-1.01202">
        <ele>46</ele>
        <time>2020-09-20T10:59:43Z</time>
      </trkpt>
      <trkpt lat="47.58928" lon="-1.01261">
        <ele>47</ele>
        <time>2020-09-20T10:59:50Z</time>
      </trkpt>
      <trkpt lat="47.58929" lon="-1.01383">
        <ele>46</ele>
        <time>2020-09-20T11:00:05Z</time>
      </trkpt>
      <trkpt lat="47.58942" lon="-1.01678">
        <ele>46</ele>
        <time>2020-09-20T11:00:40Z</time>
      </trkpt>
      <trkpt lat="47.58948" lon="-1.01763">
        <ele>47</ele>
        <time>2020-09-20T11:00:50Z</time>
      </trkpt>
      <trkpt lat="47.58988" lon="-1.0216">
        <ele>50</ele>
        <time>2020-09-20T11:01:39Z</time>
      </trkpt>
      <trkpt lat="47.58987" lon="-1.02176">
        <ele>50</ele>
        <time>2020-09-20T11:01:40Z</time>
      </trkpt>
      <trkpt lat="47.58979" lon="-1.02204">
        <ele>51</ele>
        <time>2020-09-20T11:01:44Z</time>
      </trkpt>
      <trkpt lat="47.58964" lon="-1.02229">
        <ele>51</ele>
        <time>2020-09-20T11:01:48Z</time>
      </trkpt>
      <trkpt lat="47.58803" lon="-1.02396">
        <ele>52</ele>
        <time>2020-09-20T11:02:23Z</time>
      </trkpt>
      <trkpt lat="47.58717" lon="-1.02514">
        <ele>52</ele>
        <time>2020-09-20T11:02:44Z</time>
      </trkpt>
      <trkpt lat="47.58696" lon="-1.02551">
        <ele>52</ele>
        <time>2020-09-20T11:02:50Z</time>
      </trkpt>
      <trkpt lat="47.58679" lon="-1.02591">
        <ele>51</ele>
        <time>2020-09-20T11:02:55Z</time>
      </trkpt>
      <trkpt lat="47.58629" lon="-1.02747">
        <ele>51</ele>
        <time>2020-09-20T11:03:16Z</time>
      </trkpt>
      <trkpt lat="47.58549" lon="-1.02954">
        <ele>49</ele>
        <time>2020-09-20T11:03:45Z</time>
      </trkpt>
      <trkpt lat="47.58532" lon="-1.03008">
        <ele>49</ele>
        <time>2020-09-20T11:03:52Z</time>
      </trkpt>
      <trkpt lat="47.58511" lon="-1.03118">
        <ele>49</ele>
        <time>2020-09-20T11:04:06Z</time>
      </trkpt>
      <trkpt lat="47.58507" lon="-1.03184">
        <ele>49</ele>
        <time>2020-09-20T11:04:14Z</time>
      </trkpt>
      <trkpt lat="47.58519" lon="-1.03438">
        <ele>53</ele>
        <time>2020-09-20T11:04:44Z</time>
      </trkpt>
      <trkpt lat="47.58524" lon="-1.03487">
        <ele>54</ele>
        <time>2020-09-20T11:04:50Z</time>
      </trkpt>
      <trkpt lat="47.58531" lon="-1.03522">
        <ele>55</ele>
        <time>2020-09-20T11:04:54Z</time>
      </trkpt>
      <trkpt lat="47.58571" lon="-1.03662">
        <ele>58</ele>
        <time>2020-09-20T11:05:13Z</time>
      </trkpt>
      <trkpt lat="47.58581" lon="-1.03711">
        <ele>58</ele>
        <time>2020-09-20T11:05:19Z</time>
      </trkpt>
      <trkpt lat="47.58581" lon="-1.0373">
        <ele>58</ele>
        <time>2020-09-20T11:05:21Z</time>
      </trkpt>
      <trkpt lat="47.58576" lon="-1.03766">
        <ele>58</ele>
        <time>2020-09-20T11:05:26Z</time>
      </trkpt>
      <trkpt lat="47.58448" lon="-1.04277">
        <ele>49</ele>
        <time>2020-09-20T11:06:31Z</time>
      </trkpt>
      <trkpt lat="47.58443" lon="-1.04315">
        <ele>49</ele>
        <time>2020-09-20T11:06:36Z</time>
      </trkpt>
      <trkpt lat="47.58444" lon="-1.04348">
        <ele>49</ele>
        <time>2020-09-20T11:06:40Z</time>
      </trkpt>
      <trkpt lat="47.58472" lon="-1.04465">
        <ele>49</ele>
        <time>2020-09-20T11:06:54Z</time>
      </trkpt>
      <trkpt lat="47.58588" lon="-1.04906">
        <ele>51</ele>
        <time>2020-09-20T11:07:51Z</time>
      </trkpt>
      <trkpt lat="47.58603" lon="-1.0497">
        <ele>52</ele>
        <time>2020-09-20T11:07:59Z</time>
      </trkpt>
      <trkpt lat="47.58618" lon="-1.05019">
        <ele>53</ele>
        <time>2020-09-20T11:08:06Z</time>
      </trkpt>
      <trkpt lat="47.58702" lon="-1.05206">
        <ele>56</ele>
        <time>2020-09-20T11:08:33Z</time>
      </trkpt>
      <trkpt lat="47.58719" lon="-1.05254">
        <ele>57</ele>
        <time>2020-09-20T11:08:39Z</time>
      </trkpt>
      <trkpt lat="47.58733" lon="-1.0534">
        <ele>58</ele>
        <time>2020-09-20T11:08:50Z</time>
      </trkpt>
      <trkpt lat="47.58765" lon="-1.05677">
        <ele>59</ele>
        <time>2020-09-20T11:09:31Z</time>
      </trkpt>
      <trkpt lat="47.58753" lon="-1.0572">
        <ele>58</ele>
        <time>2020-09-20T11:09:36Z</time>
      </trkpt>
      <trkpt lat="47.58746" lon="-1.05733">
        <ele>58</ele>
        <time>2020-09-20T11:09:38Z</time>
      </trkpt>
      <trkpt lat="47.58511" lon="-1.06066">
        <ele>55</ele>
        <time>2020-09-20T11:10:36Z</time>
      </trkpt>
      <trkpt lat="47.58494" lon="-1.06084">
        <ele>55</ele>
        <time>2020-09-20T11:10:40Z</time>
      </trkpt>
      <trkpt lat="47.58475" lon="-1.06093">
        <ele>55</ele>
        <time>2020-09-20T11:10:43Z</time>
      </trkpt>
      <trkpt lat="47.584" lon="-1.06114">
        <ele>55</ele>
        <time>2020-09-20T11:10:57Z</time>
      </trkpt>
      <trkpt lat="47.58382" lon="-1.06128">
        <ele>54</ele>
        <time>2020-09-20T11:11:01Z</time>
      </trkpt>
      <trkpt lat="47.5837" lon="-1.06143">
        <ele>54</ele>
        <time>2020-09-20T11:11:03Z</time>
      </trkpt>
      <trkpt lat="47.58266" lon="-1.06331">
        <ele>54</ele>
        <time>2020-09-20T11:11:33Z</time>
      </trkpt>
      <trkpt lat="47.58251" lon="-1.06375">
        <ele>53</ele>
        <time>2020-09-20T11:11:39Z</time>
      </trkpt>
      <trkpt lat="47.58218" lon="-1.06492">
        <ele>50</ele>
        <time>2020-09-20T11:11:54Z</time>
      </trkpt>
      <trkpt lat="47.58201" lon="-1.0653">
        <ele>49</ele>
        <time>2020-09-20T11:11:59Z</time>
      </trkpt>
      <trkpt lat="47.58176" lon="-1.06564">
        <ele>47</ele>
        <time>2020-09-20T11:12:05Z</time>
      </trkpt>
      <trkpt lat="47.58103" lon="-1.06614">
        <ele>47</ele>
        <time>2020-09-20T11:12:20Z</time>
      </trkpt>
      <trkpt lat="47.58086" lon="-1.06629">
        <ele>47</ele>
        <time>2020-09-20T11:12:23Z</time>
      </trkpt>
      <trkpt lat="47.58073" lon="-1.06647">
        <ele>48</ele>
        <time>2020-09-20T11:12:26Z</time>
      </trkpt>
      <trkpt lat="47.58063" lon="-1.06668">
        <ele>48</ele>
        <time>2020-09-20T11:12:29Z</time>
      </trkpt>
      <trkpt lat="47.58058" lon="-1.06695">
        <ele>49</ele>
        <time>2020-09-20T11:12:33Z</time>
      </trkpt>
      <trkpt lat="47.58058" lon="-1.06721">
        <ele>50</ele>
        <time>2020-09-20T11:12:36Z</time>
      </trkpt>
      <trkpt lat="47.58066" lon="-1.06761">
        <ele>51</ele>
        <time>2020-09-20T11:12:41Z</time>
      </trkpt>
      <trkpt lat="47.58109" lon="-1.0692">
        <ele>51</ele>
        <time>2020-09-20T11:13:01Z</time>
      </trkpt>
      <trkpt lat="47.58112" lon="-1.06943">
        <ele>51</ele>
        <time>2020-09-20T11:13:04Z</time>
      </trkpt>
      <trkpt lat="47.58111" lon="-1.0697">
        <ele>51</ele>
        <time>2020-09-20T11:13:07Z</time>
      </trkpt>
      <trkpt lat="47.58127" lon="-1.06982">
        <ele>51</ele>
        <time>2020-09-20T11:13:11Z</time>
      </trkpt>
      <trkpt lat="47.58147" lon="-1.07007">
        <ele>50</ele>
        <time>2020-09-20T11:13:15Z</time>
      </trkpt>
      <trkpt lat="47.58178" lon="-1.07158">
        <ele>49</ele>
        <time>2020-09-20T11:13:34Z</time>
      </trkpt>
      <trkpt lat="47.58223" lon="-1.07355">
        <ele>52</ele>
        <time>2020-09-20T11:13:59Z</time>
      </trkpt>
      <trkpt lat="47.58265" lon="-1.07503">
        <ele>53</ele>
        <time>2020-09-20T11:14:18Z</time>
      </trkpt>
      <trkpt lat="47.58288" lon="-1.07564">
        <ele>53</ele>
        <time>2020-09-20T11:14:27Z</time>
      </trkpt>
      <trkpt lat="47.58294" lon="-1.07586">
        <ele>53</ele>
        <time>2020-09-20T11:14:30Z</time>
      </trkpt>
      <trkpt lat="47.58292" lon="-1.07999">
        <ele>55</ele>
        <time>2020-09-20T11:15:19Z</time>
      </trkpt>
      <trkpt lat="47.58286" lon="-1.08071">
        <ele>55</ele>
        <time>2020-09-20T11:15:28Z</time>
      </trkpt>
      <trkpt lat="47.58276" lon="-1.08616">
        <ele>57</ele>
        <time>2020-09-20T11:16:33Z</time>
      </trkpt>
      <trkpt lat="47.58269" lon="-1.08661">
        <ele>56</ele>
        <time>2020-09-20T11:16:39Z</time>
      </trkpt>
      <trkpt lat="47.58287" lon="-1.08707">
        <ele>56</ele>
        <time>2020-09-20T11:16:45Z</time>
      </trkpt>
      <trkpt lat="47.58306" lon="-1.08772">
        <ele>56</ele>
        <time>2020-09-20T11:16:54Z</time>
      </trkpt>
      <trkpt lat="47.5838" lon="-1.09248">
        <ele>58</ele>
        <time>2020-09-20T11:17:52Z</time>
      </trkpt>
      <trkpt lat="47.58385" lon="-1.09362">
        <ele>59</ele>
        <time>2020-09-20T11:18:06Z</time>
      </trkpt>
      <trkpt lat="47.58391" lon="-1.09749">
        <ele>64</ele>
        <time>2020-09-20T11:18:53Z</time>
      </trkpt>
      <trkpt lat="47.58397" lon="-1.09825">
        <ele>65</ele>
        <time>2020-09-20T11:19:02Z</time>
      </trkpt>
      <trkpt lat="47.58413" lon="-1.09931">
        <ele>66</ele>
        <time>2020-09-20T11:19:15Z</time>
      </trkpt>
      <trkpt lat="47.58431" lon="-1.10018">
        <ele>66</ele>
        <time>2020-09-20T11:19:26Z</time>
      </trkpt>
      <trkpt lat="47.58458" lon="-1.10117">
        <ele>67</ele>
        <time>2020-09-20T11:19:39Z</time>
      </trkpt>
      <trkpt lat="47.5852" lon="-1.1029">
        <ele>70</ele>
        <time>2020-09-20T11:20:02Z</time>
      </trkpt>
      <trkpt lat="47.58583" lon="-1.10426">
        <ele>72</ele>
        <time>2020-09-20T11:20:22Z</time>
      </trkpt>
      <trkpt lat="47.58745" lon="-1.109">
        <ele>74</ele>
        <time>2020-09-20T11:21:26Z</time>
      </trkpt>
      <trkpt lat="47.58763" lon="-1.10958">
        <ele>74</ele>
        <time>2020-09-20T11:21:33Z</time>
      </trkpt>
      <trkpt lat="47.58989" lon="-1.11789">
        <ele>76</ele>
        <time>2020-09-20T11:23:21Z</time>
      </trkpt>
      <trkpt lat="47.59057" lon="-1.1209">
        <ele>78</ele>
        <time>2020-09-20T11:23:59Z</time>
      </trkpt>
      <trkpt lat="47.59068" lon="-1.12152">
        <ele>78</ele>
        <time>2020-09-20T11:24:07Z</time>
      </trkpt>
      <trkpt lat="47.59183" lon="-1.13146">
        <ele>76</ele>
        <time>2020-09-20T11:26:08Z</time>
      </trkpt>
      <trkpt lat="47.59194" lon="-1.13235">
        <ele>75</ele>
        <time>2020-09-20T11:26:19Z</time>
      </trkpt>
      <trkpt lat="47.59209" lon="-1.13309">
        <ele>74</ele>
        <time>2020-09-20T11:26:28Z</time>
      </trkpt>
      <trkpt lat="47.59199" lon="-1.13317">
        <ele>75</ele>
        <time>2020-09-20T11:26:30Z</time>
      </trkpt>
      <trkpt lat="47.59187" lon="-1.13337">
        <ele>75</ele>
        <time>2020-09-20T11:26:33Z</time>
      </trkpt>
      <trkpt lat="47.59182" lon="-1.13379">
        <ele>75</ele>
        <time>2020-09-20T11:26:38Z</time>
      </trkpt>
      <trkpt lat="47.59148" lon="-1.1417">
        <ele>71</ele>
        <time>2020-09-20T11:28:13Z</time>
      </trkpt>
      <trkpt lat="47.59157" lon="-1.14455">
        <ele>71</ele>
        <time>2020-09-20T11:28:48Z</time>
      </trkpt>
      <trkpt lat="47.59154" lon="-1.14506">
        <ele>71</ele>
        <time>2020-09-20T11:28:54Z</time>
      </trkpt>
      <trkpt lat="47.59137" lon="-1.14645">
        <ele>73</ele>
        <time>2020-09-20T11:29:11Z</time>
      </trkpt>
      <trkpt lat="47.59128" lon="-1.14701">
        <ele>73</ele>
        <time>2020-09-20T11:29:18Z</time>
      </trkpt>
      <trkpt lat="47.59031" lon="-1.15189">
        <ele>75</ele>
        <time>2020-09-20T11:30:19Z</time>
      </trkpt>
      <trkpt lat="47.59032" lon="-1.15204">
        <ele>75</ele>
        <time>2020-09-20T11:30:20Z</time>
      </trkpt>
      <trkpt lat="47.59036" lon="-1.1521">
        <ele>75</ele>
        <time>2020-09-20T11:30:21Z</time>
      </trkpt>
      <trkpt lat="47.58905" lon="-1.15353">
        <ele>76</ele>
        <time>2020-09-20T11:30:50Z</time>
      </trkpt>
      <trkpt lat="47.58897" lon="-1.1537">
        <ele>76</ele>
        <time>2020-09-20T11:30:53Z</time>
      </trkpt>
      <trkpt lat="47.58895" lon="-1.15417">
        <ele>75</ele>
        <time>2020-09-20T11:30:58Z</time>
      </trkpt>
      <trkpt lat="47.58953" lon="-1.15466">
        <ele>76</ele>
        <time>2020-09-20T11:31:10Z</time>
      </trkpt>
      <trkpt lat="47.5901" lon="-1.15506">
        <ele>77</ele>
        <time>2020-09-20T11:31:22Z</time>
      </trkpt>
      <trkpt lat="47.59089" lon="-1.15697">
        <ele>77</ele>
        <time>2020-09-20T11:31:48Z</time>
      </trkpt>
      <trkpt lat="47.5911" lon="-1.15756">
        <ele>78</ele>
        <time>2020-09-20T11:31:56Z</time>
      </trkpt>
      <trkpt lat="47.59148" lon="-1.15911">
        <ele>77</ele>
        <time>2020-09-20T11:32:16Z</time>
      </trkpt>
      <trkpt lat="47.59155" lon="-1.15953">
        <ele>78</ele>
        <time>2020-09-20T11:32:21Z</time>
      </trkpt>
      <trkpt lat="47.59248" lon="-1.16394">
        <ele>78</ele>
        <time>2020-09-20T11:33:17Z</time>
      </trkpt>
      <trkpt lat="47.59265" lon="-1.16513">
        <ele>76</ele>
        <time>2020-09-20T11:33:31Z</time>
      </trkpt>
      <trkpt lat="47.59268" lon="-1.16621">
        <ele>74</ele>
        <time>2020-09-20T11:33:44Z</time>
      </trkpt>
      <trkpt lat="47.59248" lon="-1.17156">
        <ele>71</ele>
        <time>2020-09-20T11:34:49Z</time>
      </trkpt>
      <trkpt lat="47.59254" lon="-1.17227">
        <ele>72</ele>
        <time>2020-09-20T11:34:57Z</time>
      </trkpt>
      <trkpt lat="47.59318" lon="-1.17459">
        <ele>75</ele>
        <time>2020-09-20T11:35:27Z</time>
      </trkpt>
      <trkpt lat="47.59325" lon="-1.17478">
        <ele>75</ele>
        <time>2020-09-20T11:35:30Z</time>
      </trkpt>
      <trkpt lat="47.59342" lon="-1.17511">
        <ele>75</ele>
        <time>2020-09-20T11:35:35Z</time>
      </trkpt>
      <trkpt lat="47.59398" lon="-1.17597">
        <ele>76</ele>
        <time>2020-09-20T11:35:49Z</time>
      </trkpt>
      <trkpt lat="47.59427" lon="-1.17659">
        <ele>75</ele>
        <time>2020-09-20T11:35:58Z</time>
      </trkpt>
      <trkpt lat="47.59501" lon="-1.17905">
        <ele>75</ele>
        <time>2020-09-20T11:36:31Z</time>
      </trkpt>
      <trkpt lat="47.59525" lon="-1.18023">
        <ele>75</ele>
        <time>2020-09-20T11:36:46Z</time>
      </trkpt>
      <trkpt lat="47.59538" lon="-1.18112">
        <ele>74</ele>
        <time>2020-09-20T11:36:56Z</time>
      </trkpt>
      <trkpt lat="47.59625" lon="-1.1882">
        <ele>76</ele>
        <time>2020-09-20T11:38:23Z</time>
      </trkpt>
      <trkpt lat="47.59655" lon="-1.19026">
        <ele>76</ele>
        <time>2020-09-20T11:38:48Z</time>
      </trkpt>
      <trkpt lat="47.59693" lon="-1.19218">
        <ele>77</ele>
        <time>2020-09-20T11:39:12Z</time>
      </trkpt>
      <trkpt lat="47.59825" lon="-1.19833">
        <ele>76</ele>
        <time>2020-09-20T11:40:30Z</time>
      </trkpt>
      <trkpt lat="47.59825" lon="-1.19865">
        <ele>75</ele>
        <time>2020-09-20T11:40:33Z</time>
      </trkpt>
      <trkpt lat="47.59819" lon="-1.19881">
        <ele>74</ele>
        <time>2020-09-20T11:40:36Z</time>
      </trkpt>
      <trkpt lat="47.59818" lon="-1.19892">
        <ele>73</ele>
        <time>2020-09-20T11:40:37Z</time>
      </trkpt>
      <trkpt lat="47.5982" lon="-1.19919">
        <ele>72</ele>
        <time>2020-09-20T11:40:40Z</time>
      </trkpt>
      <trkpt lat="47.59852" lon="-1.19982">
        <ele>72</ele>
        <time>2020-09-20T11:40:50Z</time>
      </trkpt>
      <trkpt lat="47.59864" lon="-1.20015">
        <ele>71</ele>
        <time>2020-09-20T11:40:54Z</time>
      </trkpt>
      <trkpt lat="47.5989" lon="-1.20132">
        <ele>71</ele>
        <time>2020-09-20T11:41:09Z</time>
      </trkpt>
      <trkpt lat="47.59904" lon="-1.20182">
        <ele>72</ele>
        <time>2020-09-20T11:41:15Z</time>
      </trkpt>
      <trkpt lat="47.59921" lon="-1.20225">
        <ele>73</ele>
        <time>2020-09-20T11:41:21Z</time>
      </trkpt>
      <trkpt lat="47.6015" lon="-1.20732">
        <ele>71</ele>
        <time>2020-09-20T11:42:35Z</time>
      </trkpt>
      <trkpt lat="47.60148" lon="-1.20737">
        <ele>71</ele>
        <time>2020-09-20T11:42:35Z</time>
      </trkpt>
      <trkpt lat="47.60146" lon="-1.21412">
        <ele>66</ele>
        <time>2020-09-20T11:43:56Z</time>
      </trkpt>
      <trkpt lat="47.60152" lon="-1.21513">
        <ele>66</ele>
        <time>2020-09-20T11:44:08Z</time>
      </trkpt>
      <trkpt lat="47.6017" lon="-1.21605">
        <ele>66</ele>
        <time>2020-09-20T11:44:20Z</time>
      </trkpt>
      <trkpt lat="47.60351" lon="-1.22255">
        <ele>67</ele>
        <time>2020-09-20T11:45:44Z</time>
      </trkpt>
      <trkpt lat="47.60363" lon="-1.22321">
        <ele>67</ele>
        <time>2020-09-20T11:45:52Z</time>
      </trkpt>
      <trkpt lat="47.60369" lon="-1.22381">
        <ele>67</ele>
        <time>2020-09-20T11:46:00Z</time>
      </trkpt>
      <trkpt lat="47.60372" lon="-1.22544">
        <ele>66</ele>
        <time>2020-09-20T11:46:19Z</time>
      </trkpt>
      <trkpt lat="47.60366" lon="-1.22605">
        <ele>65</ele>
        <time>2020-09-20T11:46:27Z</time>
      </trkpt>
      <trkpt lat="47.60351" lon="-1.22653">
        <ele>64</ele>
        <time>2020-09-20T11:46:33Z</time>
      </trkpt>
      <trkpt lat="47.60332" lon="-1.22696">
        <ele>64</ele>
        <time>2020-09-20T11:46:39Z</time>
      </trkpt>
      <trkpt lat="47.60319" lon="-1.22733">
        <ele>64</ele>
        <time>2020-09-20T11:46:44Z</time>
      </trkpt>
      <trkpt lat="47.6031" lon="-1.22772">
        <ele>64</ele>
        <time>2020-09-20T11:46:49Z</time>
      </trkpt>
      <trkpt lat="47.60306" lon="-1.22798">
        <ele>64</ele>
        <time>2020-09-20T11:46:52Z</time>
      </trkpt>
      <trkpt lat="47.60278" lon="-1.23148">
        <ele>68</ele>
        <time>2020-09-20T11:47:35Z</time>
      </trkpt>
      <trkpt lat="47.60262" lon="-1.23227">
        <ele>69</ele>
        <time>2020-09-20T11:47:45Z</time>
      </trkpt>
      <trkpt lat="47.60254" lon="-1.23251">
        <ele>69</ele>
        <time>2020-09-20T11:47:48Z</time>
      </trkpt>
      <trkpt lat="47.60237" lon="-1.23288">
        <ele>68</ele>
        <time>2020-09-20T11:47:53Z</time>
      </trkpt>
      <trkpt lat="47.60193" lon="-1.23358">
        <ele>68</ele>
        <time>2020-09-20T11:48:05Z</time>
      </trkpt>
      <trkpt lat="47.60181" lon="-1.23381">
        <ele>68</ele>
        <time>2020-09-20T11:48:08Z</time>
      </trkpt>
      <trkpt lat="47.60152" lon="-1.23449">
        <ele>68</ele>
        <time>2020-09-20T11:48:18Z</time>
      </trkpt>
      <trkpt lat="47.60104" lon="-1.23603">
        <ele>69</ele>
        <time>2020-09-20T11:48:38Z</time>
      </trkpt>
      <trkpt lat="47.60093" lon="-1.23656">
        <ele>69</ele>
        <time>2020-09-20T11:48:45Z</time>
      </trkpt>
      <trkpt lat="47.6009" lon="-1.23683">
        <ele>69</ele>
        <time>2020-09-20T11:48:48Z</time>
      </trkpt>
      <trkpt lat="47.60091" lon="-1.23742">
        <ele>70</ele>
        <time>2020-09-20T11:48:55Z</time>
      </trkpt>
      <trkpt lat="47.60095" lon="-1.23772">
        <ele>70</ele>
        <time>2020-09-20T11:48:59Z</time>
      </trkpt>
      <trkpt lat="47.60127" lon="-1.23912">
        <ele>68</ele>
        <time>2020-09-20T11:49:17Z</time>
      </trkpt>
      <trkpt lat="47.6014" lon="-1.2398">
        <ele>69</ele>
        <time>2020-09-20T11:49:25Z</time>
      </trkpt>
      <trkpt lat="47.60146" lon="-1.24022">
        <ele>69</ele>
        <time>2020-09-20T11:49:30Z</time>
      </trkpt>
      <trkpt lat="47.60155" lon="-1.24133">
        <ele>69</ele>
        <time>2020-09-20T11:49:44Z</time>
      </trkpt>
      <trkpt lat="47.60153" lon="-1.24515">
        <ele>73</ele>
        <time>2020-09-20T11:50:29Z</time>
      </trkpt>
      <trkpt lat="47.60158" lon="-1.24561">
        <ele>73</ele>
        <time>2020-09-20T11:50:35Z</time>
      </trkpt>
      <trkpt lat="47.60176" lon="-1.24637">
        <ele>75</ele>
        <time>2020-09-20T11:50:45Z</time>
      </trkpt>
      <trkpt lat="47.60181" lon="-1.24669">
        <ele>75</ele>
        <time>2020-09-20T11:50:49Z</time>
      </trkpt>
      <trkpt lat="47.60186" lon="-1.24935">
        <ele>76</ele>
        <time>2020-09-20T11:51:21Z</time>
      </trkpt>
      <trkpt lat="47.60231" lon="-1.25542">
        <ele>74</ele>
        <time>2020-09-20T11:52:34Z</time>
      </trkpt>
      <trkpt lat="47.6023" lon="-1.25589">
        <ele>74</ele>
        <time>2020-09-20T11:52:39Z</time>
      </trkpt>
      <trkpt lat="47.60219" lon="-1.25733">
        <ele>72</ele>
        <time>2020-09-20T11:52:57Z</time>
      </trkpt>
      <trkpt lat="47.60219" lon="-1.25786">
        <ele>69</ele>
        <time>2020-09-20T11:53:03Z</time>
      </trkpt>
      <trkpt lat="47.60226" lon="-1.25837">
        <ele>66</ele>
        <time>2020-09-20T11:53:09Z</time>
      </trkpt>
      <trkpt lat="47.60249" lon="-1.25948">
        <ele>61</ele>
        <time>2020-09-20T11:53:23Z</time>
      </trkpt>
      <trkpt lat="47.60256" lon="-1.26001">
        <ele>60</ele>
        <time>2020-09-20T11:53:30Z</time>
      </trkpt>
      <trkpt lat="47.60253" lon="-1.26047">
        <ele>60</ele>
        <time>2020-09-20T11:53:35Z</time>
      </trkpt>
      <trkpt lat="47.60233" lon="-1.26128">
        <ele>61</ele>
        <time>2020-09-20T11:53:46Z</time>
      </trkpt>
      <trkpt lat="47.60232" lon="-1.26146">
        <ele>61</ele>
        <time>2020-09-20T11:53:48Z</time>
      </trkpt>
      <trkpt lat="47.60233" lon="-1.26187">
        <ele>61</ele>
        <time>2020-09-20T11:53:53Z</time>
      </trkpt>
      <trkpt lat="47.60243" lon="-1.26319">
        <ele>61</ele>
        <time>2020-09-20T11:54:09Z</time>
      </trkpt>
      <trkpt lat="47.60246" lon="-1.26339">
        <ele>61</ele>
        <time>2020-09-20T11:54:11Z</time>
      </trkpt>
      <trkpt lat="47.60257" lon="-1.26379">
        <ele>61</ele>
        <time>2020-09-20T11:54:16Z</time>
      </trkpt>
      <trkpt lat="47.60273" lon="-1.26411">
        <ele>61</ele>
        <time>2020-09-20T11:54:21Z</time>
      </trkpt>
      <trkpt lat="47.60303" lon="-1.26447">
        <ele>59</ele>
        <time>2020-09-20T11:54:28Z</time>
      </trkpt>
      <trkpt lat="47.60374" lon="-1.26521">
        <ele>58</ele>
        <time>2020-09-20T11:54:43Z</time>
      </trkpt>
      <trkpt lat="47.6039" lon="-1.26549">
        <ele>58</ele>
        <time>2020-09-20T11:54:48Z</time>
      </trkpt>
      <trkpt lat="47.60396" lon="-1.26586">
        <ele>59</ele>
        <time>2020-09-20T11:54:52Z</time>
      </trkpt>
      <trkpt lat="47.60395" lon="-1.26611">
        <ele>59</ele>
        <time>2020-09-20T11:54:55Z</time>
      </trkpt>
      <trkpt lat="47.60336" lon="-1.27108">
        <ele>68</ele>
        <time>2020-09-20T11:55:56Z</time>
      </trkpt>
      <trkpt lat="47.60336" lon="-1.27149">
        <ele>69</ele>
        <time>2020-09-20T11:56:01Z</time>
      </trkpt>
      <trkpt lat="47.6034" lon="-1.27167">
        <ele>69</ele>
        <time>2020-09-20T11:56:03Z</time>
      </trkpt>
      <trkpt lat="47.60346" lon="-1.27181">
        <ele>69</ele>
        <time>2020-09-20T11:56:05Z</time>
      </trkpt>
      <trkpt lat="47.60355" lon="-1.27194">
        <ele>69</ele>
        <time>2020-09-20T11:56:07Z</time>
      </trkpt>
      <trkpt lat="47.60423" lon="-1.27255">
        <ele>71</ele>
        <time>2020-09-20T11:56:22Z</time>
      </trkpt>
      <trkpt lat="47.60431" lon="-1.27267">
        <ele>72</ele>
        <time>2020-09-20T11:56:24Z</time>
      </trkpt>
      <trkpt lat="47.6044" lon="-1.27296">
        <ele>72</ele>
        <time>2020-09-20T11:56:27Z</time>
      </trkpt>
      <trkpt lat="47.60444" lon="-1.27329">
        <ele>73</ele>
        <time>2020-09-20T11:56:31Z</time>
      </trkpt>
      <trkpt lat="47.6044" lon="-1.27364">
        <ele>73</ele>
        <time>2020-09-20T11:56:36Z</time>
      </trkpt>
      <trkpt lat="47.60422" lon="-1.27441">
        <ele>72</ele>
        <time>2020-09-20T11:56:45Z</time>
      </trkpt>
      <trkpt lat="47.6042" lon="-1.27468">
        <ele>73</ele>
        <time>2020-09-20T11:56:49Z</time>
      </trkpt>
      <trkpt lat="47.60421" lon="-1.27506">
        <ele>73</ele>
        <time>2020-09-20T11:56:53Z</time>
      </trkpt>
      <trkpt lat="47.60434" lon="-1.27598">
        <ele>72</ele>
        <time>2020-09-20T11:57:05Z</time>
      </trkpt>
      <trkpt lat="47.60467" lon="-1.27787">
        <ele>71</ele>
        <time>2020-09-20T11:57:28Z</time>
      </trkpt>
      <trkpt lat="47.60481" lon="-1.27849">
        <ele>70</ele>
        <time>2020-09-20T11:57:36Z</time>
      </trkpt>
      <trkpt lat="47.6052" lon="-1.27993">
        <ele>71</ele>
        <time>2020-09-20T11:57:54Z</time>
      </trkpt>
      <trkpt lat="47.60547" lon="-1.28074">
        <ele>70</ele>
        <time>2020-09-20T11:58:05Z</time>
      </trkpt>
      <trkpt lat="47.60598" lon="-1.28195">
        <ele>70</ele>
        <time>2020-09-20T11:58:22Z</time>
      </trkpt>
      <trkpt lat="47.60613" lon="-1.28243">
        <ele>69</ele>
        <time>2020-09-20T11:58:29Z</time>
      </trkpt>
      <trkpt lat="47.6062" lon="-1.28276">
        <ele>69</ele>
        <time>2020-09-20T11:58:33Z</time>
      </trkpt>
      <trkpt lat="47.60634" lon="-1.28365">
        <ele>68</ele>
        <time>2020-09-20T11:58:44Z</time>
      </trkpt>
      <trkpt lat="47.60634" lon="-1.2841">
        <ele>68</ele>
        <time>2020-09-20T11:58:49Z</time>
      </trkpt>
      <trkpt lat="47.60624" lon="-1.28481">
        <ele>67</ele>
        <time>2020-09-20T11:58:58Z</time>
      </trkpt>
      <trkpt lat="47.60624" lon="-1.28527">
        <ele>67</ele>
        <time>2020-09-20T11:59:03Z</time>
      </trkpt>
      <trkpt lat="47.60649" lon="-1.2871">
        <ele>63</ele>
        <time>2020-09-20T11:59:26Z</time>
      </trkpt>
      <trkpt lat="47.60678" lon="-1.28727">
        <ele>63</ele>
        <time>2020-09-20T11:59:31Z</time>
      </trkpt>
      <trkpt lat="47.60703" lon="-1.28747">
        <ele>62</ele>
        <time>2020-09-20T11:59:36Z</time>
      </trkpt>
      <trkpt lat="47.6072" lon="-1.28763">
        <ele>61</ele>
        <time>2020-09-20T11:59:40Z</time>
      </trkpt>
      <trkpt lat="47.60752" lon="-1.28802">
        <ele>59</ele>
        <time>2020-09-20T11:59:47Z</time>
      </trkpt>
      <trkpt lat="47.60776" lon="-1.2884">
        <ele>58</ele>
        <time>2020-09-20T11:59:54Z</time>
      </trkpt>
      <trkpt lat="47.60842" lon="-1.2897">
        <ele>55</ele>
        <time>2020-09-20T12:00:13Z</time>
      </trkpt>
      <trkpt lat="47.6086" lon="-1.28998">
        <ele>55</ele>
        <time>2020-09-20T12:00:18Z</time>
      </trkpt>
      <trkpt lat="47.60882" lon="-1.29016">
        <ele>54</ele>
        <time>2020-09-20T12:00:22Z</time>
      </trkpt>
      <trkpt lat="47.60922" lon="-1.29033">
        <ele>55</ele>
        <time>2020-09-20T12:00:30Z</time>
      </trkpt>
      <trkpt lat="47.60966" lon="-1.29059">
        <ele>55</ele>
        <time>2020-09-20T12:00:38Z</time>
      </trkpt>
      <trkpt lat="47.6097" lon="-1.29056">
        <ele>55</ele>
        <time>2020-09-20T12:00:39Z</time>
      </trkpt>
      <trkpt lat="47.60974" lon="-1.29059">
        <ele>55</ele>
        <time>2020-09-20T12:00:40Z</time>
      </trkpt>
      <trkpt lat="47.60975" lon="-1.29063">
        <ele>55</ele>
        <time>2020-09-20T12:00:40Z</time>
      </trkpt>
      <trkpt lat="47.60974" lon="-1.29067">
        <ele>55</ele>
        <time>2020-09-20T12:00:41Z</time>
      </trkpt>
      <trkpt lat="47.6097" lon="-1.2907">
        <ele>55</ele>
        <time>2020-09-20T12:00:42Z</time>
      </trkpt>
      <trkpt lat="47.60968" lon="-1.29069">
        <ele>55</ele>
        <time>2020-09-20T12:00:42Z</time>
      </trkpt>
      <trkpt lat="47.60963" lon="-1.2909">
        <ele>54</ele>
        <time>2020-09-20T12:00:45Z</time>
      </trkpt>
      <trkpt lat="47.60966" lon="-1.29096">
        <ele>53</ele>
        <time>2020-09-20T12:00:46Z</time>
      </trkpt>
      <trkpt lat="47.60964" lon="-1.29101">
        <ele>53</ele>
        <time>2020-09-20T12:00:46Z</time>
      </trkpt>
      <trkpt lat="47.60958" lon="-1.29102">
        <ele>53</ele>
        <time>2020-09-20T12:00:47Z</time>
      </trkpt>
      <trkpt lat="47.60951" lon="-1.29115">
        <ele>52</ele>
        <time>2020-09-20T12:00:49Z</time>
      </trkpt>
      <trkpt lat="47.60849" lon="-1.29352">
        <ele>47</ele>
        <time>2020-09-20T12:01:23Z</time>
      </trkpt>
      <trkpt lat="47.60852" lon="-1.29358">
        <ele>47</ele>
        <time>2020-09-20T12:01:24Z</time>
      </trkpt>
      <trkpt lat="47.60851" lon="-1.29362">
        <ele>47</ele>
        <time>2020-09-20T12:01:24Z</time>
      </trkpt>
      <trkpt lat="47.60847" lon="-1.29365">
        <ele>47</ele>
        <time>2020-09-20T12:01:25Z</time>
      </trkpt>
      <trkpt lat="47.60845" lon="-1.29364">
        <ele>48</ele>
        <time>2020-09-20T12:01:26Z</time>
      </trkpt>
      <trkpt lat="47.60809" lon="-1.29438">
        <ele>48</ele>
        <time>2020-09-20T12:01:37Z</time>
      </trkpt>
      <trkpt lat="47.6076" lon="-1.29525">
        <ele>50</ele>
        <time>2020-09-20T12:01:50Z</time>
      </trkpt>
      <trkpt lat="47.60737" lon="-1.29557">
        <ele>51</ele>
        <time>2020-09-20T12:01:56Z</time>
      </trkpt>
      <trkpt lat="47.60697" lon="-1.29604">
        <ele>51</ele>
        <time>2020-09-20T12:02:05Z</time>
      </trkpt>
      <trkpt lat="47.6012" lon="-1.30262">
        <ele>62</ele>
        <time>2020-09-20T12:04:14Z</time>
      </trkpt>
      <trkpt lat="47.60073" lon="-1.30325">
        <ele>62</ele>
        <time>2020-09-20T12:04:26Z</time>
      </trkpt>
      <trkpt lat="47.5985" lon="-1.3066">
        <ele>64</ele>
        <time>2020-09-20T12:05:22Z</time>
      </trkpt>
      <trkpt lat="47.59807" lon="-1.30729">
        <ele>64</ele>
        <time>2020-09-20T12:05:33Z</time>
      </trkpt>
      <trkpt lat="47.59784" lon="-1.30774">
        <ele>64</ele>
        <time>2020-09-20T12:05:40Z</time>
      </trkpt>
      <trkpt lat="47.59757" lon="-1.30843">
        <ele>64</ele>
        <time>2020-09-20T12:05:50Z</time>
      </trkpt>
      <trkpt lat="47.59602" lon="-1.31368">
        <ele>66</ele>
        <time>2020-09-20T12:06:58Z</time>
      </trkpt>
      <trkpt lat="47.59553" lon="-1.31506">
        <ele>64</ele>
        <time>2020-09-20T12:07:17Z</time>
      </trkpt>
      <trkpt lat="47.59428" lon="-1.31832">
        <ele>65</ele>
        <time>2020-09-20T12:08:02Z</time>
      </trkpt>
      <trkpt lat="47.59403" lon="-1.31915">
        <ele>66</ele>
        <time>2020-09-20T12:08:13Z</time>
      </trkpt>
      <trkpt lat="47.59384" lon="-1.32008">
        <ele>67</ele>
        <time>2020-09-20T12:08:25Z</time>
      </trkpt>
      <trkpt lat="47.59265" lon="-1.32687">
        <ele>61</ele>
        <time>2020-09-20T12:09:49Z</time>
      </trkpt>
      <trkpt lat="47.59239" lon="-1.32768">
        <ele>60</ele>
        <time>2020-09-20T12:10:00Z</time>
      </trkpt>
      <trkpt lat="47.59181" lon="-1.32911">
        <ele>63</ele>
        <time>2020-09-20T12:10:20Z</time>
      </trkpt>
      <trkpt lat="47.59177" lon="-1.3294">
        <ele>64</ele>
        <time>2020-09-20T12:10:23Z</time>
      </trkpt>
      <trkpt lat="47.59181" lon="-1.32943">
        <ele>64</ele>
        <time>2020-09-20T12:10:24Z</time>
      </trkpt>
      <trkpt lat="47.59181" lon="-1.32951">
        <ele>64</ele>
        <time>2020-09-20T12:10:25Z</time>
      </trkpt>
      <trkpt lat="47.59177" lon="-1.32954">
        <ele>64</ele>
        <time>2020-09-20T12:10:26Z</time>
      </trkpt>
      <trkpt lat="47.59172" lon="-1.32947">
        <ele>64</ele>
        <time>2020-09-20T12:10:27Z</time>
      </trkpt>
      <trkpt lat="47.59163" lon="-1.32958">
        <ele>65</ele>
        <time>2020-09-20T12:10:29Z</time>
      </trkpt>
      <trkpt lat="47.59131" lon="-1.33013">
        <ele>65</ele>
        <time>2020-09-20T12:10:38Z</time>
      </trkpt>
      <trkpt lat="47.59134" lon="-1.33019">
        <ele>65</ele>
        <time>2020-09-20T12:10:39Z</time>
      </trkpt>
      <trkpt lat="47.59129" lon="-1.33026">
        <ele>65</ele>
        <time>2020-09-20T12:10:40Z</time>
      </trkpt>
      <trkpt lat="47.59125" lon="-1.33023">
        <ele>65</ele>
        <time>2020-09-20T12:10:41Z</time>
      </trkpt>
      <trkpt lat="47.59124" lon="-1.33019">
        <ele>65</ele>
        <time>2020-09-20T12:10:41Z</time>
      </trkpt>
      <trkpt lat="47.59106" lon="-1.33017">
        <ele>66</ele>
        <time>2020-09-20T12:10:44Z</time>
      </trkpt>
      <trkpt lat="47.59075" lon="-1.33003">
        <ele>66</ele>
        <time>2020-09-20T12:10:50Z</time>
      </trkpt>
      <trkpt lat="47.5907" lon="-1.33008">
        <ele>66</ele>
        <time>2020-09-20T12:10:51Z</time>
      </trkpt>
      <trkpt lat="47.59067" lon="-1.33006">
        <ele>66</ele>
        <time>2020-09-20T12:10:52Z</time>
      </trkpt>
      <trkpt lat="47.59064" lon="-1.32998">
        <ele>65</ele>
        <time>2020-09-20T12:10:53Z</time>
      </trkpt>
      <trkpt lat="47.59065" lon="-1.32993">
        <ele>65</ele>
        <time>2020-09-20T12:10:54Z</time>
      </trkpt>
      <trkpt lat="47.59056" lon="-1.3298">
        <ele>65</ele>
        <time>2020-09-20T12:10:56Z</time>
      </trkpt>
      <trkpt lat="47.58937" lon="-1.32863">
        <ele>66</ele>
        <time>2020-09-20T12:11:21Z</time>
      </trkpt>
      <trkpt lat="47.58899" lon="-1.32835">
        <ele>67</ele>
        <time>2020-09-20T12:11:29Z</time>
      </trkpt>
      <trkpt lat="47.58874" lon="-1.32823">
        <ele>67</ele>
        <time>2020-09-20T12:11:33Z</time>
      </trkpt>
      <trkpt lat="47.58526" lon="-1.32681">
        <ele>70</ele>
        <time>2020-09-20T12:12:38Z</time>
      </trkpt>
      <trkpt lat="47.58493" lon="-1.32663">
        <ele>70</ele>
        <time>2020-09-20T12:12:44Z</time>
      </trkpt>
      <trkpt lat="47.58471" lon="-1.32646">
        <ele>69</ele>
        <time>2020-09-20T12:12:48Z</time>
      </trkpt>
      <trkpt lat="47.58446" lon="-1.32618">
        <ele>67</ele>
        <time>2020-09-20T12:12:54Z</time>
      </trkpt>
      <trkpt lat="47.58432" lon="-1.32597">
        <ele>67</ele>
        <time>2020-09-20T12:12:58Z</time>
      </trkpt>
      <trkpt lat="47.58412" lon="-1.32558">
        <ele>65</ele>
        <time>2020-09-20T12:13:03Z</time>
      </trkpt>
      <trkpt lat="47.58402" lon="-1.32532">
        <ele>64</ele>
        <time>2020-09-20T12:13:07Z</time>
      </trkpt>
      <trkpt lat="47.58384" lon="-1.32466">
        <ele>63</ele>
        <time>2020-09-20T12:13:16Z</time>
      </trkpt>
      <trkpt lat="47.58343" lon="-1.32292">
        <ele>59</ele>
        <time>2020-09-20T12:13:38Z</time>
      </trkpt>
      <trkpt lat="47.58323" lon="-1.3224">
        <ele>57</ele>
        <time>2020-09-20T12:13:45Z</time>
      </trkpt>
      <trkpt lat="47.58306" lon="-1.32218">
        <ele>56</ele>
        <time>2020-09-20T12:13:49Z</time>
      </trkpt>
      <trkpt lat="47.58289" lon="-1.32201">
        <ele>55</ele>
        <time>2020-09-20T12:13:52Z</time>
      </trkpt>
      <trkpt lat="47.58259" lon="-1.32183">
        <ele>53</ele>
        <time>2020-09-20T12:13:58Z</time>
      </trkpt>
      <trkpt lat="47.57282" lon="-1.31934">
        <ele>56</ele>
        <time>2020-09-20T12:16:55Z</time>
      </trkpt>
      <trkpt lat="47.57204" lon="-1.3192">
        <ele>59</ele>
        <time>2020-09-20T12:17:09Z</time>
      </trkpt>
      <trkpt lat="47.5709" lon="-1.31906">
        <ele>63</ele>
        <time>2020-09-20T12:17:29Z</time>
      </trkpt>
      <trkpt lat="47.57032" lon="-1.31904">
        <ele>64</ele>
        <time>2020-09-20T12:17:39Z</time>
      </trkpt>
      <trkpt lat="47.56795" lon="-1.31916">
        <ele>72</ele>
        <time>2020-09-20T12:18:21Z</time>
      </trkpt>
      <trkpt lat="47.55502" lon="-1.31969">
        <ele>79</ele>
        <time>2020-09-20T12:22:12Z</time>
      </trkpt>
      <trkpt lat="47.55367" lon="-1.31977">
        <ele>78</ele>
        <time>2020-09-20T12:22:36Z</time>
      </trkpt>
      <trkpt lat="47.5531" lon="-1.31978">
        <ele>79</ele>
        <time>2020-09-20T12:22:46Z</time>
      </trkpt>
      <trkpt lat="47.55283" lon="-1.31974">
        <ele>80</ele>
        <time>2020-09-20T12:22:51Z</time>
      </trkpt>
      <trkpt lat="47.55249" lon="-1.31963">
        <ele>82</ele>
        <time>2020-09-20T12:22:57Z</time>
      </trkpt>
      <trkpt lat="47.54128" lon="-1.31344">
        <ele>63</ele>
        <time>2020-09-20T12:26:30Z</time>
      </trkpt>
      <trkpt lat="47.53702" lon="-1.31106">
        <ele>55</ele>
        <time>2020-09-20T12:27:51Z</time>
      </trkpt>
      <trkpt lat="47.53528" lon="-1.31006">
        <ele>47</ele>
        <time>2020-09-20T12:28:24Z</time>
      </trkpt>
      <trkpt lat="47.53497" lon="-1.30973">
        <ele>47</ele>
        <time>2020-09-20T12:28:31Z</time>
      </trkpt>
      <trkpt lat="47.53481" lon="-1.3095">
        <ele>47</ele>
        <time>2020-09-20T12:28:35Z</time>
      </trkpt>
      <trkpt lat="47.53404" lon="-1.30817">
        <ele>43</ele>
        <time>2020-09-20T12:28:56Z</time>
      </trkpt>
      <trkpt lat="47.53356" lon="-1.30727">
        <ele>42</ele>
        <time>2020-09-20T12:29:10Z</time>
      </trkpt>
      <trkpt lat="47.53343" lon="-1.30706">
        <ele>42</ele>
        <time>2020-09-20T12:29:13Z</time>
      </trkpt>
      <trkpt lat="47.53331" lon="-1.30692">
        <ele>43</ele>
        <time>2020-09-20T12:29:16Z</time>
      </trkpt>
      <trkpt lat="47.53235" lon="-1.30639">
        <ele>45</ele>
        <time>2020-09-20T12:29:34Z</time>
      </trkpt>
      <trkpt lat="47.5312" lon="-1.30542">
        <ele>48</ele>
        <time>2020-09-20T12:29:57Z</time>
      </trkpt>
      <trkpt lat="47.52729" lon="-1.30229">
        <ele>47</ele>
        <time>2020-09-20T12:31:16Z</time>
      </trkpt>
      <trkpt lat="47.52693" lon="-1.30211">
        <ele>47</ele>
        <time>2020-09-20T12:31:23Z</time>
      </trkpt>
      <trkpt lat="47.52259" lon="-1.30082">
        <ele>52</ele>
        <time>2020-09-20T12:32:42Z</time>
      </trkpt>
      <trkpt lat="47.52216" lon="-1.3006">
        <ele>53</ele>
        <time>2020-09-20T12:32:50Z</time>
      </trkpt>
      <trkpt lat="47.52181" lon="-1.30032">
        <ele>53</ele>
        <time>2020-09-20T12:32:57Z</time>
      </trkpt>
      <trkpt lat="47.52134" lon="-1.29987">
        <ele>52</ele>
        <time>2020-09-20T12:33:07Z</time>
      </trkpt>
      <trkpt lat="47.52128" lon="-1.29985">
        <ele>52</ele>
        <time>2020-09-20T12:33:08Z</time>
      </trkpt>
      <trkpt lat="47.52111" lon="-1.29972">
        <ele>51</ele>
        <time>2020-09-20T12:33:12Z</time>
      </trkpt>
      <trkpt lat="47.52102" lon="-1.29972">
        <ele>51</ele>
        <time>2020-09-20T12:33:13Z</time>
      </trkpt>
      <trkpt lat="47.52098" lon="-1.29966">
        <ele>50</ele>
        <time>2020-09-20T12:33:14Z</time>
      </trkpt>
      <trkpt lat="47.52099" lon="-1.29955">
        <ele>50</ele>
        <time>2020-09-20T12:33:16Z</time>
      </trkpt>
      <trkpt lat="47.52102" lon="-1.29951">
        <ele>51</ele>
        <time>2020-09-20T12:33:16Z</time>
      </trkpt>
      <trkpt lat="47.51937" lon="-1.29582">
        <ele>50</ele>
        <time>2020-09-20T12:34:09Z</time>
      </trkpt>
      <trkpt lat="47.51898" lon="-1.29521">
        <ele>47</ele>
        <time>2020-09-20T12:34:20Z</time>
      </trkpt>
      <trkpt lat="47.51813" lon="-1.29401">
        <ele>42</ele>
        <time>2020-09-20T12:34:40Z</time>
      </trkpt>
      <trkpt lat="47.51791" lon="-1.29374">
        <ele>40</ele>
        <time>2020-09-20T12:34:46Z</time>
      </trkpt>
      <trkpt lat="47.51761" lon="-1.29358">
        <ele>38</ele>
        <time>2020-09-20T12:34:51Z</time>
      </trkpt>
      <trkpt lat="47.5174" lon="-1.29362">
        <ele>36</ele>
        <time>2020-09-20T12:34:55Z</time>
      </trkpt>
      <trkpt lat="47.51696" lon="-1.29363">
        <ele>34</ele>
        <time>2020-09-20T12:35:03Z</time>
      </trkpt>
      <trkpt lat="47.51661" lon="-1.2917">
        <ele>34</ele>
        <time>2020-09-20T12:35:27Z</time>
      </trkpt>
      <trkpt lat="47.51638" lon="-1.29141">
        <ele>33</ele>
        <time>2020-09-20T12:35:32Z</time>
      </trkpt>
      <trkpt lat="47.51606" lon="-1.29107">
        <ele>32</ele>
        <time>2020-09-20T12:35:39Z</time>
      </trkpt>
      <trkpt lat="47.51572" lon="-1.29096">
        <ele>31</ele>
        <time>2020-09-20T12:35:45Z</time>
      </trkpt>
      <trkpt lat="47.51119" lon="-1.29028">
        <ele>24</ele>
        <time>2020-09-20T12:37:06Z</time>
      </trkpt>
      <trkpt lat="47.51114" lon="-1.29004">
        <ele>25</ele>
        <time>2020-09-20T12:37:09Z</time>
      </trkpt>
      <trkpt lat="47.51105" lon="-1.2898">
        <ele>25</ele>
        <time>2020-09-20T12:37:13Z</time>
      </trkpt>
      <trkpt lat="47.50572" lon="-1.27655">
        <ele>47</ele>
        <time>2020-09-20T12:40:18Z</time>
      </trkpt>
      <trkpt lat="47.50517" lon="-1.27538">
        <ele>51</ele>
        <time>2020-09-20T12:40:35Z</time>
      </trkpt>
      <trkpt lat="47.50439" lon="-1.27385">
        <ele>52</ele>
        <time>2020-09-20T12:40:58Z</time>
      </trkpt>
      <trkpt lat="47.50134" lon="-1.26766">
        <ele>48</ele>
        <time>2020-09-20T12:42:30Z</time>
      </trkpt>
      <trkpt lat="47.50103" lon="-1.26715">
        <ele>47</ele>
        <time>2020-09-20T12:42:39Z</time>
      </trkpt>
      <trkpt lat="47.49818" lon="-1.26317">
        <ele>44</ele>
        <time>2020-09-20T12:43:48Z</time>
      </trkpt>
      <trkpt lat="47.49467" lon="-1.25833">
        <ele>38</ele>
        <time>2020-09-20T12:45:14Z</time>
      </trkpt>
      <trkpt lat="47.48924" lon="-1.25091">
        <ele>38</ele>
        <time>2020-09-20T12:47:25Z</time>
      </trkpt>
      <trkpt lat="47.48774" lon="-1.24882">
        <ele>35</ele>
        <time>2020-09-20T12:48:02Z</time>
      </trkpt>
      <trkpt lat="47.48758" lon="-1.2485">
        <ele>35</ele>
        <time>2020-09-20T12:48:07Z</time>
      </trkpt>
      <trkpt lat="47.48748" lon="-1.24821">
        <ele>35</ele>
        <time>2020-09-20T12:48:11Z</time>
      </trkpt>
      <trkpt lat="47.48662" lon="-1.2451">
        <ele>36</ele>
        <time>2020-09-20T12:48:51Z</time>
      </trkpt>
      <trkpt lat="47.48648" lon="-1.24468">
        <ele>35</ele>
        <time>2020-09-20T12:48:57Z</time>
      </trkpt>
      <trkpt lat="47.48629" lon="-1.24435">
        <ele>35</ele>
        <time>2020-09-20T12:49:02Z</time>
      </trkpt>
      <trkpt lat="47.48567" lon="-1.24358">
        <ele>33</ele>
        <time>2020-09-20T12:49:16Z</time>
      </trkpt>
      <trkpt lat="47.48545" lon="-1.24344">
        <ele>33</ele>
        <time>2020-09-20T12:49:20Z</time>
      </trkpt>
      <trkpt lat="47.48509" lon="-1.24326">
        <ele>32</ele>
        <time>2020-09-20T12:49:27Z</time>
      </trkpt>
      <trkpt lat="47.48514" lon="-1.24304">
        <ele>33</ele>
        <time>2020-09-20T12:49:30Z</time>
      </trkpt>
      <trkpt lat="47.48517" lon="-1.2426">
        <ele>33</ele>
        <time>2020-09-20T12:49:35Z</time>
      </trkpt>
      <trkpt lat="47.48499" lon="-1.24185">
        <ele>34</ele>
        <time>2020-09-20T12:49:45Z</time>
      </trkpt>
      <trkpt lat="47.48499" lon="-1.24156">
        <ele>34</ele>
        <time>2020-09-20T12:49:48Z</time>
      </trkpt>
      <trkpt lat="47.48534" lon="-1.23974">
        <ele>34</ele>
        <time>2020-09-20T12:50:11Z</time>
      </trkpt>
      <trkpt lat="47.48538" lon="-1.23932">
        <ele>34</ele>
        <time>2020-09-20T12:50:16Z</time>
      </trkpt>
      <trkpt lat="47.48546" lon="-1.23911">
        <ele>33</ele>
        <time>2020-09-20T12:50:19Z</time>
      </trkpt>
      <trkpt lat="47.48497" lon="-1.23858">
        <ele>32</ele>
        <time>2020-09-20T12:50:30Z</time>
      </trkpt>
      <trkpt lat="47.48427" lon="-1.23794">
        <ele>30</ele>
        <time>2020-09-20T12:50:45Z</time>
      </trkpt>
      <trkpt lat="47.48378" lon="-1.23763">
        <ele>31</ele>
        <time>2020-09-20T12:50:54Z</time>
      </trkpt>
      <trkpt lat="47.48349" lon="-1.2375">
        <ele>32</ele>
        <time>2020-09-20T12:50:59Z</time>
      </trkpt>
      <trkpt lat="47.4832" lon="-1.23741">
        <ele>33</ele>
        <time>2020-09-20T12:51:05Z</time>
      </trkpt>
      <trkpt lat="47.48142" lon="-1.2371">
        <ele>41</ele>
        <time>2020-09-20T12:51:37Z</time>
      </trkpt>
      <trkpt lat="47.48113" lon="-1.23701">
        <ele>42</ele>
        <time>2020-09-20T12:51:42Z</time>
      </trkpt>
      <trkpt lat="47.48087" lon="-1.23687">
        <ele>42</ele>
        <time>2020-09-20T12:51:47Z</time>
      </trkpt>
      <trkpt lat="47.47998" lon="-1.23622">
        <ele>43</ele>
        <time>2020-09-20T12:52:04Z</time>
      </trkpt>
      <trkpt lat="47.47977" lon="-1.23602">
        <ele>43</ele>
        <time>2020-09-20T12:52:09Z</time>
      </trkpt>
      <trkpt lat="47.47953" lon="-1.23574">
        <ele>44</ele>
        <time>2020-09-20T12:52:14Z</time>
      </trkpt>
      <trkpt lat="47.47932" lon="-1.23539">
        <ele>44</ele>
        <time>2020-09-20T12:52:20Z</time>
      </trkpt>
      <trkpt lat="47.47913" lon="-1.23499">
        <ele>44</ele>
        <time>2020-09-20T12:52:26Z</time>
      </trkpt>
      <trkpt lat="47.47603" lon="-1.22725">
        <ele>46</ele>
        <time>2020-09-20T12:54:14Z</time>
      </trkpt>
      <trkpt lat="47.47573" lon="-1.22664">
        <ele>46</ele>
        <time>2020-09-20T12:54:23Z</time>
      </trkpt>
      <trkpt lat="47.47544" lon="-1.22618">
        <ele>45</ele>
        <time>2020-09-20T12:54:31Z</time>
      </trkpt>
      <trkpt lat="47.4751" lon="-1.22571">
        <ele>44</ele>
        <time>2020-09-20T12:54:39Z</time>
      </trkpt>
      <trkpt lat="47.47463" lon="-1.22521">
        <ele>44</ele>
        <time>2020-09-20T12:54:49Z</time>
      </trkpt>
      <trkpt lat="47.47421" lon="-1.22468">
        <ele>45</ele>
        <time>2020-09-20T12:54:59Z</time>
      </trkpt>
      <trkpt lat="47.47199" lon="-1.22152">
        <ele>46</ele>
        <time>2020-09-20T12:55:54Z</time>
      </trkpt>
      <trkpt lat="47.47181" lon="-1.22115">
        <ele>46</ele>
        <time>2020-09-20T12:55:59Z</time>
      </trkpt>
      <trkpt lat="47.46954" lon="-1.21385">
        <ele>47</ele>
        <time>2020-09-20T12:57:36Z</time>
      </trkpt>
      <trkpt lat="47.46946" lon="-1.21351">
        <ele>47</ele>
        <time>2020-09-20T12:57:40Z</time>
      </trkpt>
      <trkpt lat="47.46938" lon="-1.21277">
        <ele>46</ele>
        <time>2020-09-20T12:57:49Z</time>
      </trkpt>
      <trkpt lat="47.46874" lon="-1.20286">
        <ele>52</ele>
        <time>2020-09-20T12:59:49Z</time>
      </trkpt>
      <trkpt lat="47.46868" lon="-1.20241">
        <ele>52</ele>
        <time>2020-09-20T12:59:55Z</time>
      </trkpt>
      <trkpt lat="47.46795" lon="-1.19896">
        <ele>50</ele>
        <time>2020-09-20T13:00:38Z</time>
      </trkpt>
      <trkpt lat="47.46777" lon="-1.19836">
        <ele>51</ele>
        <time>2020-09-20T13:00:46Z</time>
      </trkpt>
      <trkpt lat="47.46504" lon="-1.19107">
        <ele>58</ele>
        <time>2020-09-20T13:02:26Z</time>
      </trkpt>
      <trkpt lat="47.46492" lon="-1.19065">
        <ele>59</ele>
        <time>2020-09-20T13:02:32Z</time>
      </trkpt>
      <trkpt lat="47.4648" lon="-1.19009">
        <ele>60</ele>
        <time>2020-09-20T13:02:39Z</time>
      </trkpt>
      <trkpt lat="47.46447" lon="-1.18802">
        <ele>63</ele>
        <time>2020-09-20T13:03:04Z</time>
      </trkpt>
      <trkpt lat="47.46429" lon="-1.1873">
        <ele>64</ele>
        <time>2020-09-20T13:03:14Z</time>
      </trkpt>
      <trkpt lat="47.46132" lon="-1.17914">
        <ele>72</ele>
        <time>2020-09-20T13:05:05Z</time>
      </trkpt>
      <trkpt lat="47.46124" lon="-1.17917">
        <ele>72</ele>
        <time>2020-09-20T13:05:07Z</time>
      </trkpt>
      <trkpt lat="47.4612" lon="-1.17916">
        <ele>72</ele>
        <time>2020-09-20T13:05:07Z</time>
      </trkpt>
      <trkpt lat="47.46112" lon="-1.1791">
        <ele>73</ele>
        <time>2020-09-20T13:05:09Z</time>
      </trkpt>
      <trkpt lat="47.46107" lon="-1.17898">
        <ele>73</ele>
        <time>2020-09-20T13:05:11Z</time>
      </trkpt>
      <trkpt lat="47.46109" lon="-1.17879">
        <ele>72</ele>
        <time>2020-09-20T13:05:13Z</time>
      </trkpt>
      <trkpt lat="47.46116" lon="-1.1787">
        <ele>72</ele>
        <time>2020-09-20T13:05:15Z</time>
      </trkpt>
      <trkpt lat="47.46128" lon="-1.17867">
        <ele>72</ele>
        <time>2020-09-20T13:05:17Z</time>
      </trkpt>
      <trkpt lat="47.46135" lon="-1.17872">
        <ele>71</ele>
        <time>2020-09-20T13:05:18Z</time>
      </trkpt>
      <trkpt lat="47.46128" lon="-1.17867">
        <ele>72</ele>
        <time>2020-09-20T13:05:19Z</time>
      </trkpt>
      <trkpt lat="47.46124" lon="-1.17867">
        <ele>72</ele>
        <time>2020-09-20T13:05:20Z</time>
      </trkpt>
      <trkpt lat="47.46118" lon="-1.1786">
        <ele>72</ele>
        <time>2020-09-20T13:05:22Z</time>
      </trkpt>
      <trkpt lat="47.4609" lon="-1.17801">
        <ele>72</ele>
        <time>2020-09-20T13:05:30Z</time>
      </trkpt>
      <trkpt lat="47.46046" lon="-1.17672">
        <ele>73</ele>
        <time>2020-09-20T13:05:48Z</time>
      </trkpt>
      <trkpt lat="47.45923" lon="-1.17335">
        <ele>71</ele>
        <time>2020-09-20T13:06:34Z</time>
      </trkpt>
      <trkpt lat="47.45905" lon="-1.17295">
        <ele>71</ele>
        <time>2020-09-20T13:06:39Z</time>
      </trkpt>
      <trkpt lat="47.45901" lon="-1.17294">
        <ele>71</ele>
        <time>2020-09-20T13:06:40Z</time>
      </trkpt>
      <trkpt lat="47.45897" lon="-1.17289">
        <ele>71</ele>
        <time>2020-09-20T13:06:41Z</time>
      </trkpt>
      <trkpt lat="47.45896" lon="-1.17279">
        <ele>71</ele>
        <time>2020-09-20T13:06:42Z</time>
      </trkpt>
      <trkpt lat="47.459" lon="-1.17271">
        <ele>71</ele>
        <time>2020-09-20T13:06:44Z</time>
      </trkpt>
      <trkpt lat="47.4589" lon="-1.17216">
        <ele>71</ele>
        <time>2020-09-20T13:06:50Z</time>
      </trkpt>
      <trkpt lat="47.4587" lon="-1.17059">
        <ele>72</ele>
        <time>2020-09-20T13:07:10Z</time>
      </trkpt>
      <trkpt lat="47.45855" lon="-1.16992">
        <ele>70</ele>
        <time>2020-09-20T13:07:18Z</time>
      </trkpt>
      <trkpt lat="47.45776" lon="-1.16784">
        <ele>69</ele>
        <time>2020-09-20T13:07:47Z</time>
      </trkpt>
      <trkpt lat="47.45759" lon="-1.16745">
        <ele>69</ele>
        <time>2020-09-20T13:07:52Z</time>
      </trkpt>
      <trkpt lat="47.45696" lon="-1.16638">
        <ele>65</ele>
        <time>2020-09-20T13:08:09Z</time>
      </trkpt>
      <trkpt lat="47.45689" lon="-1.16611">
        <ele>64</ele>
        <time>2020-09-20T13:08:13Z</time>
      </trkpt>
      <trkpt lat="47.45678" lon="-1.16536">
        <ele>63</ele>
        <time>2020-09-20T13:08:22Z</time>
      </trkpt>
      <trkpt lat="47.45669" lon="-1.16536">
        <ele>63</ele>
        <time>2020-09-20T13:08:24Z</time>
      </trkpt>
      <trkpt lat="47.45666" lon="-1.16531">
        <ele>63</ele>
        <time>2020-09-20T13:08:25Z</time>
      </trkpt>
      <trkpt lat="47.45666" lon="-1.16519">
        <ele>63</ele>
        <time>2020-09-20T13:08:26Z</time>
      </trkpt>
      <trkpt lat="47.45642" lon="-1.16465">
        <ele>63</ele>
        <time>2020-09-20T13:08:34Z</time>
      </trkpt>
      <trkpt lat="47.45609" lon="-1.16406">
        <ele>64</ele>
        <time>2020-09-20T13:08:43Z</time>
      </trkpt>
      <trkpt lat="47.45572" lon="-1.16307">
        <ele>67</ele>
        <time>2020-09-20T13:08:57Z</time>
      </trkpt>
      <trkpt lat="47.45513" lon="-1.16169">
        <ele>69</ele>
        <time>2020-09-20T13:09:16Z</time>
      </trkpt>
      <trkpt lat="47.45504" lon="-1.16156">
        <ele>69</ele>
        <time>2020-09-20T13:09:18Z</time>
      </trkpt>
      <trkpt lat="47.45494" lon="-1.16148">
        <ele>68</ele>
        <time>2020-09-20T13:09:20Z</time>
      </trkpt>
      <trkpt lat="47.4548" lon="-1.16146">
        <ele>68</ele>
        <time>2020-09-20T13:09:23Z</time>
      </trkpt>
      <trkpt lat="47.45405" lon="-1.1616">
        <ele>64</ele>
        <time>2020-09-20T13:09:36Z</time>
      </trkpt>
      <trkpt lat="47.45386" lon="-1.16174">
        <ele>63</ele>
        <time>2020-09-20T13:09:40Z</time>
      </trkpt>
      <trkpt lat="47.45371" lon="-1.16197">
        <ele>62</ele>
        <time>2020-09-20T13:09:44Z</time>
      </trkpt>
      <trkpt lat="47.45338" lon="-1.16266">
        <ele>58</ele>
        <time>2020-09-20T13:09:54Z</time>
      </trkpt>
      <trkpt lat="47.45321" lon="-1.1629">
        <ele>57</ele>
        <time>2020-09-20T13:09:58Z</time>
      </trkpt>
      <trkpt lat="47.45307" lon="-1.163">
        <ele>57</ele>
        <time>2020-09-20T13:10:01Z</time>
      </trkpt>
      <trkpt lat="47.45292" lon="-1.16302">
        <ele>56</ele>
        <time>2020-09-20T13:10:04Z</time>
      </trkpt>
      <trkpt lat="47.45276" lon="-1.16296">
        <ele>55</ele>
        <time>2020-09-20T13:10:07Z</time>
      </trkpt>
      <trkpt lat="47.45262" lon="-1.16285">
        <ele>55</ele>
        <time>2020-09-20T13:10:10Z</time>
      </trkpt>
      <trkpt lat="47.45252" lon="-1.16267">
        <ele>54</ele>
        <time>2020-09-20T13:10:12Z</time>
      </trkpt>
      <trkpt lat="47.45244" lon="-1.16237">
        <ele>53</ele>
        <time>2020-09-20T13:10:16Z</time>
      </trkpt>
      <trkpt lat="47.45237" lon="-1.16073">
        <ele>48</ele>
        <time>2020-09-20T13:10:36Z</time>
      </trkpt>
      <trkpt lat="47.45234" lon="-1.16056">
        <ele>47</ele>
        <time>2020-09-20T13:10:38Z</time>
      </trkpt>
      <trkpt lat="47.45227" lon="-1.16025">
        <ele>45</ele>
        <time>2020-09-20T13:10:42Z</time>
      </trkpt>
      <trkpt lat="47.45216" lon="-1.15996">
        <ele>43</ele>
        <time>2020-09-20T13:10:46Z</time>
      </trkpt>
      <trkpt lat="47.45178" lon="-1.15911">
        <ele>39</ele>
        <time>2020-09-20T13:10:58Z</time>
      </trkpt>
      <trkpt lat="47.45173" lon="-1.1589">
        <ele>38</ele>
        <time>2020-09-20T13:11:01Z</time>
      </trkpt>
      <trkpt lat="47.45172" lon="-1.15871">
        <ele>37</ele>
        <time>2020-09-20T13:11:03Z</time>
      </trkpt>
      <trkpt lat="47.45182" lon="-1.15835">
        <ele>36</ele>
        <time>2020-09-20T13:11:08Z</time>
      </trkpt>
      <trkpt lat="47.45239" lon="-1.1569">
        <ele>30</ele>
        <time>2020-09-20T13:11:28Z</time>
      </trkpt>
      <trkpt lat="47.45251" lon="-1.15672">
        <ele>29</ele>
        <time>2020-09-20T13:11:31Z</time>
      </trkpt>
      <trkpt lat="47.45282" lon="-1.15644">
        <ele>29</ele>
        <time>2020-09-20T13:11:38Z</time>
      </trkpt>
      <trkpt lat="47.4529" lon="-1.15629">
        <ele>28</ele>
        <time>2020-09-20T13:11:40Z</time>
      </trkpt>
      <trkpt lat="47.45302" lon="-1.15582">
        <ele>24</ele>
        <time>2020-09-20T13:11:46Z</time>
      </trkpt>
      <trkpt lat="47.45313" lon="-1.15566">
        <ele>24</ele>
        <time>2020-09-20T13:11:49Z</time>
      </trkpt>
      <trkpt lat="47.45334" lon="-1.1555">
        <ele>24</ele>
        <time>2020-09-20T13:11:53Z</time>
      </trkpt>
      <trkpt lat="47.45345" lon="-1.15535">
        <ele>24</ele>
        <time>2020-09-20T13:11:56Z</time>
      </trkpt>
      <trkpt lat="47.45384" lon="-1.1541">
        <ele>26</ele>
        <time>2020-09-20T13:12:12Z</time>
      </trkpt>
      <trkpt lat="47.45413" lon="-1.15358">
        <ele>27</ele>
        <time>2020-09-20T13:12:20Z</time>
      </trkpt>
      <trkpt lat="47.45418" lon="-1.15332">
        <ele>28</ele>
        <time>2020-09-20T13:12:24Z</time>
      </trkpt>
      <trkpt lat="47.45417" lon="-1.15319">
        <ele>29</ele>
        <time>2020-09-20T13:12:25Z</time>
      </trkpt>
      <trkpt lat="47.45408" lon="-1.15293">
        <ele>30</ele>
        <time>2020-09-20T13:12:29Z</time>
      </trkpt>
      <trkpt lat="47.45357" lon="-1.15201">
        <ele>35</ele>
        <time>2020-09-20T13:12:43Z</time>
      </trkpt>
      <trkpt lat="47.45341" lon="-1.15167">
        <ele>37</ele>
        <time>2020-09-20T13:12:48Z</time>
      </trkpt>
      <trkpt lat="47.45331" lon="-1.15137">
        <ele>38</ele>
        <time>2020-09-20T13:12:52Z</time>
      </trkpt>
      <trkpt lat="47.45291" lon="-1.14955">
        <ele>46</ele>
        <time>2020-09-20T13:13:15Z</time>
      </trkpt>
      <trkpt lat="47.45278" lon="-1.14922">
        <ele>48</ele>
        <time>2020-09-20T13:13:20Z</time>
      </trkpt>
      <trkpt lat="47.4526" lon="-1.14902">
        <ele>48</ele>
        <time>2020-09-20T13:13:24Z</time>
      </trkpt>
      <trkpt lat="47.45241" lon="-1.14888">
        <ele>49</ele>
        <time>2020-09-20T13:13:27Z</time>
      </trkpt>
      <trkpt lat="47.4469" lon="-1.14601">
        <ele>76</ele>
        <time>2020-09-20T13:15:11Z</time>
      </trkpt>
      <trkpt lat="47.44664" lon="-1.14585">
        <ele>76</ele>
        <time>2020-09-20T13:15:16Z</time>
      </trkpt>
      <trkpt lat="47.44646" lon="-1.1457">
        <ele>76</ele>
        <time>2020-09-20T13:15:20Z</time>
      </trkpt>
      <trkpt lat="47.44637" lon="-1.14559">
        <ele>76</ele>
        <time>2020-09-20T13:15:22Z</time>
      </trkpt>
      <trkpt lat="47.44509" lon="-1.14378">
        <ele>71</ele>
        <time>2020-09-20T13:15:54Z</time>
      </trkpt>
      <trkpt lat="47.44412" lon="-1.14236">
        <ele>66</ele>
        <time>2020-09-20T13:16:18Z</time>
      </trkpt>
      <trkpt lat="47.44378" lon="-1.14198">
        <ele>65</ele>
        <time>2020-09-20T13:16:26Z</time>
      </trkpt>
      <trkpt lat="47.44339" lon="-1.14173">
        <ele>64</ele>
        <time>2020-09-20T13:16:33Z</time>
      </trkpt>
      <trkpt lat="47.44124" lon="-1.14065">
        <ele>73</ele>
        <time>2020-09-20T13:17:13Z</time>
      </trkpt>
      <trkpt lat="47.44074" lon="-1.14041">
        <ele>74</ele>
        <time>2020-09-20T13:17:23Z</time>
      </trkpt>
      <trkpt lat="47.44069" lon="-1.14045">
        <ele>74</ele>
        <time>2020-09-20T13:17:24Z</time>
      </trkpt>
      <trkpt lat="47.44067" lon="-1.14044">
        <ele>74</ele>
        <time>2020-09-20T13:17:24Z</time>
      </trkpt>
      <trkpt lat="47.44065" lon="-1.14037">
        <ele>74</ele>
        <time>2020-09-20T13:17:25Z</time>
      </trkpt>
      <trkpt lat="47.44054" lon="-1.14031">
        <ele>74</ele>
        <time>2020-09-20T13:17:27Z</time>
      </trkpt>
      <trkpt lat="47.44065" lon="-1.14037">
        <ele>74</ele>
        <time>2020-09-20T13:17:29Z</time>
      </trkpt>
      <trkpt lat="47.44069" lon="-1.14033">
        <ele>74</ele>
        <time>2020-09-20T13:17:30Z</time>
      </trkpt>
      <trkpt lat="47.44075" lon="-1.13706">
        <ele>72</ele>
        <time>2020-09-20T13:18:10Z</time>
      </trkpt>
      <trkpt lat="47.44077" lon="-1.13667">
        <ele>72</ele>
        <time>2020-09-20T13:18:14Z</time>
      </trkpt>
      <trkpt lat="47.44084" lon="-1.1361">
        <ele>72</ele>
        <time>2020-09-20T13:18:21Z</time>
      </trkpt>
      <trkpt lat="47.44099" lon="-1.13547">
        <ele>72</ele>
        <time>2020-09-20T13:18:29Z</time>
      </trkpt>
      <trkpt lat="47.44212" lon="-1.13209">
        <ele>72</ele>
        <time>2020-09-20T13:19:15Z</time>
      </trkpt>
      <trkpt lat="47.44231" lon="-1.13142">
        <ele>73</ele>
        <time>2020-09-20T13:19:23Z</time>
      </trkpt>
      <trkpt lat="47.44227" lon="-1.13137">
        <ele>73</ele>
        <time>2020-09-20T13:19:24Z</time>
      </trkpt>
      <trkpt lat="47.44226" lon="-1.13126">
        <ele>73</ele>
        <time>2020-09-20T13:19:26Z</time>
      </trkpt>
      <trkpt lat="47.44227" lon="-1.13121">
        <ele>73</ele>
        <time>2020-09-20T13:19:26Z</time>
      </trkpt>
      <trkpt lat="47.44236" lon="-1.13114">
        <ele>73</ele>
        <time>2020-09-20T13:19:28Z</time>
      </trkpt>
      <trkpt lat="47.44244" lon="-1.13063">
        <ele>73</ele>
        <time>2020-09-20T13:19:34Z</time>
      </trkpt>
      <trkpt lat="47.44262" lon="-1.1284">
        <ele>73</ele>
        <time>2020-09-20T13:20:01Z</time>
      </trkpt>
      <trkpt lat="47.44261" lon="-1.12791">
        <ele>73</ele>
        <time>2020-09-20T13:20:07Z</time>
      </trkpt>
      <trkpt lat="47.44258" lon="-1.12763">
        <ele>72</ele>
        <time>2020-09-20T13:20:11Z</time>
      </trkpt>
      <trkpt lat="47.44246" lon="-1.12698">
        <ele>71</ele>
        <time>2020-09-20T13:20:19Z</time>
      </trkpt>
      <trkpt lat="47.44185" lon="-1.12419">
        <ele>68</ele>
        <time>2020-09-20T13:20:54Z</time>
      </trkpt>
      <trkpt lat="47.44186" lon="-1.12399">
        <ele>68</ele>
        <time>2020-09-20T13:20:56Z</time>
      </trkpt>
      <trkpt lat="47.4425" lon="-1.12037">
        <ele>63</ele>
        <time>2020-09-20T13:21:42Z</time>
      </trkpt>
      <trkpt lat="47.4425" lon="-1.11965">
        <ele>63</ele>
        <time>2020-09-20T13:21:50Z</time>
      </trkpt>
      <trkpt lat="47.44238" lon="-1.11907">
        <ele>65</ele>
        <time>2020-09-20T13:21:57Z</time>
      </trkpt>
      <trkpt lat="47.44183" lon="-1.11693">
        <ele>66</ele>
        <time>2020-09-20T13:22:25Z</time>
      </trkpt>
      <trkpt lat="47.44136" lon="-1.11476">
        <ele>61</ele>
        <time>2020-09-20T13:22:52Z</time>
      </trkpt>
      <trkpt lat="47.44121" lon="-1.11377">
        <ele>58</ele>
        <time>2020-09-20T13:23:05Z</time>
      </trkpt>
      <trkpt lat="47.44113" lon="-1.11215">
        <ele>53</ele>
        <time>2020-09-20T13:23:24Z</time>
      </trkpt>
      <trkpt lat="47.44116" lon="-1.1118">
        <ele>51</ele>
        <time>2020-09-20T13:23:28Z</time>
      </trkpt>
      <trkpt lat="47.44125" lon="-1.11148">
        <ele>50</ele>
        <time>2020-09-20T13:23:33Z</time>
      </trkpt>
      <trkpt lat="47.44167" lon="-1.11056">
        <ele>49</ele>
        <time>2020-09-20T13:23:46Z</time>
      </trkpt>
      <trkpt lat="47.44177" lon="-1.11028">
        <ele>50</ele>
        <time>2020-09-20T13:23:50Z</time>
      </trkpt>
      <trkpt lat="47.44195" lon="-1.10927">
        <ele>52</ele>
        <time>2020-09-20T13:24:02Z</time>
      </trkpt>
      <trkpt lat="47.44213" lon="-1.10862">
        <ele>56</ele>
        <time>2020-09-20T13:24:11Z</time>
      </trkpt>
      <trkpt lat="47.44475" lon="-1.10021">
        <ele>57</ele>
        <time>2020-09-20T13:26:02Z</time>
      </trkpt>
      <trkpt lat="47.44495" lon="-1.0997">
        <ele>57</ele>
        <time>2020-09-20T13:26:09Z</time>
      </trkpt>
      <trkpt lat="47.44592" lon="-1.09773">
        <ele>51</ele>
        <time>2020-09-20T13:26:39Z</time>
      </trkpt>
      <trkpt lat="47.44613" lon="-1.0972">
        <ele>49</ele>
        <time>2020-09-20T13:26:46Z</time>
      </trkpt>
      <trkpt lat="47.44623" lon="-1.09671">
        <ele>47</ele>
        <time>2020-09-20T13:26:52Z</time>
      </trkpt>
      <trkpt lat="47.44625" lon="-1.09646">
        <ele>46</ele>
        <time>2020-09-20T13:26:55Z</time>
      </trkpt>
      <trkpt lat="47.44625" lon="-1.0962">
        <ele>45</ele>
        <time>2020-09-20T13:26:58Z</time>
      </trkpt>
      <trkpt lat="47.44616" lon="-1.09509">
        <ele>42</ele>
        <time>2020-09-20T13:27:12Z</time>
      </trkpt>
      <trkpt lat="47.44616" lon="-1.09465">
        <ele>41</ele>
        <time>2020-09-20T13:27:17Z</time>
      </trkpt>
      <trkpt lat="47.44624" lon="-1.0942">
        <ele>40</ele>
        <time>2020-09-20T13:27:23Z</time>
      </trkpt>
      <trkpt lat="47.44648" lon="-1.09342">
        <ele>40</ele>
        <time>2020-09-20T13:27:33Z</time>
      </trkpt>
      <trkpt lat="47.44657" lon="-1.09323">
        <ele>40</ele>
        <time>2020-09-20T13:27:36Z</time>
      </trkpt>
      <trkpt lat="47.44679" lon="-1.09295">
        <ele>40</ele>
        <time>2020-09-20T13:27:41Z</time>
      </trkpt>
      <trkpt lat="47.44745" lon="-1.09238">
        <ele>40</ele>
        <time>2020-09-20T13:27:55Z</time>
      </trkpt>
      <trkpt lat="47.44769" lon="-1.09212">
        <ele>41</ele>
        <time>2020-09-20T13:28:00Z</time>
      </trkpt>
      <trkpt lat="47.44778" lon="-1.09198">
        <ele>42</ele>
        <time>2020-09-20T13:28:02Z</time>
      </trkpt>
      <trkpt lat="47.44789" lon="-1.09171">
        <ele>42</ele>
        <time>2020-09-20T13:28:06Z</time>
      </trkpt>
      <trkpt lat="47.44795" lon="-1.09144">
        <ele>42</ele>
        <time>2020-09-20T13:28:09Z</time>
      </trkpt>
      <trkpt lat="47.44795" lon="-1.09099">
        <ele>42</ele>
        <time>2020-09-20T13:28:15Z</time>
      </trkpt>
      <trkpt lat="47.44788" lon="-1.09055">
        <ele>42</ele>
        <time>2020-09-20T13:28:20Z</time>
      </trkpt>
      <trkpt lat="47.44766" lon="-1.08989">
        <ele>41</ele>
        <time>2020-09-20T13:28:29Z</time>
      </trkpt>
      <trkpt lat="47.44727" lon="-1.0891">
        <ele>40</ele>
        <time>2020-09-20T13:28:41Z</time>
      </trkpt>
      <trkpt lat="47.44718" lon="-1.08874">
        <ele>40</ele>
        <time>2020-09-20T13:28:46Z</time>
      </trkpt>
      <trkpt lat="47.44715" lon="-1.08837">
        <ele>40</ele>
        <time>2020-09-20T13:28:50Z</time>
      </trkpt>
      <trkpt lat="47.44718" lon="-1.08765">
        <ele>38</ele>
        <time>2020-09-20T13:28:59Z</time>
      </trkpt>
      <trkpt lat="47.44704" lon="-1.08625">
        <ele>40</ele>
        <time>2020-09-20T13:29:16Z</time>
      </trkpt>
      <trkpt lat="47.447" lon="-1.08602">
        <ele>41</ele>
        <time>2020-09-20T13:29:19Z</time>
      </trkpt>
      <trkpt lat="47.44687" lon="-1.08558">
        <ele>42</ele>
        <time>2020-09-20T13:29:24Z</time>
      </trkpt>
      <trkpt lat="47.44662" lon="-1.08494">
        <ele>43</ele>
        <time>2020-09-20T13:29:33Z</time>
      </trkpt>
      <trkpt lat="47.44629" lon="-1.08432">
        <ele>45</ele>
        <time>2020-09-20T13:29:43Z</time>
      </trkpt>
      <trkpt lat="47.44584" lon="-1.0837">
        <ele>50</ele>
        <time>2020-09-20T13:29:54Z</time>
      </trkpt>
      <trkpt lat="47.44569" lon="-1.08353">
        <ele>50</ele>
        <time>2020-09-20T13:29:57Z</time>
      </trkpt>
      <trkpt lat="47.44542" lon="-1.08332">
        <ele>51</ele>
        <time>2020-09-20T13:30:02Z</time>
      </trkpt>
      <trkpt lat="47.44481" lon="-1.08299">
        <ele>52</ele>
        <time>2020-09-20T13:30:14Z</time>
      </trkpt>
      <trkpt lat="47.44462" lon="-1.08285">
        <ele>52</ele>
        <time>2020-09-20T13:30:18Z</time>
      </trkpt>
      <trkpt lat="47.44453" lon="-1.08272">
        <ele>52</ele>
        <time>2020-09-20T13:30:20Z</time>
      </trkpt>
      <trkpt lat="47.44446" lon="-1.08251">
        <ele>52</ele>
        <time>2020-09-20T13:30:23Z</time>
      </trkpt>
      <trkpt lat="47.44446" lon="-1.08207">
        <ele>52</ele>
        <time>2020-09-20T13:30:28Z</time>
      </trkpt>
      <trkpt lat="47.44456" lon="-1.08116">
        <ele>51</ele>
        <time>2020-09-20T13:30:39Z</time>
      </trkpt>
      <trkpt lat="47.44445" lon="-1.07978">
        <ele>51</ele>
        <time>2020-09-20T13:30:56Z</time>
      </trkpt>
      <trkpt lat="47.44445" lon="-1.07924">
        <ele>50</ele>
        <time>2020-09-20T13:31:02Z</time>
      </trkpt>
      <trkpt lat="47.4445" lon="-1.07895">
        <ele>50</ele>
        <time>2020-09-20T13:31:06Z</time>
      </trkpt>
      <trkpt lat="47.44459" lon="-1.07863">
        <ele>50</ele>
        <time>2020-09-20T13:31:10Z</time>
      </trkpt>
      <trkpt lat="47.4451" lon="-1.07733">
        <ele>49</ele>
        <time>2020-09-20T13:31:28Z</time>
      </trkpt>
      <trkpt lat="47.4452" lon="-1.0768">
        <ele>48</ele>
        <time>2020-09-20T13:31:35Z</time>
      </trkpt>
      <trkpt lat="47.4452" lon="-1.07642">
        <ele>48</ele>
        <time>2020-09-20T13:31:40Z</time>
      </trkpt>
      <trkpt lat="47.4451" lon="-1.07595">
        <ele>47</ele>
        <time>2020-09-20T13:31:45Z</time>
      </trkpt>
      <trkpt lat="47.44479" lon="-1.0751">
        <ele>45</ele>
        <time>2020-09-20T13:31:57Z</time>
      </trkpt>
      <trkpt lat="47.44475" lon="-1.07485">
        <ele>46</ele>
        <time>2020-09-20T13:32:00Z</time>
      </trkpt>
      <trkpt lat="47.44471" lon="-1.07404">
        <ele>48</ele>
        <time>2020-09-20T13:32:10Z</time>
      </trkpt>
      <trkpt lat="47.4445" lon="-1.07356">
        <ele>49</ele>
        <time>2020-09-20T13:32:17Z</time>
      </trkpt>
      <trkpt lat="47.44427" lon="-1.07318">
        <ele>49</ele>
        <time>2020-09-20T13:32:23Z</time>
      </trkpt>
      <trkpt lat="47.44417" lon="-1.07295">
        <ele>50</ele>
        <time>2020-09-20T13:32:26Z</time>
      </trkpt>
      <trkpt lat="47.44404" lon="-1.07256">
        <ele>52</ele>
        <time>2020-09-20T13:32:31Z</time>
      </trkpt>
      <trkpt lat="47.4439" lon="-1.07197">
        <ele>54</ele>
        <time>2020-09-20T13:32:39Z</time>
      </trkpt>
      <trkpt lat="47.44378" lon="-1.07158">
        <ele>54</ele>
        <time>2020-09-20T13:32:44Z</time>
      </trkpt>
      <trkpt lat="47.44339" lon="-1.07066">
        <ele>55</ele>
        <time>2020-09-20T13:32:57Z</time>
      </trkpt>
      <trkpt lat="47.44331" lon="-1.07011">
        <ele>58</ele>
        <time>2020-09-20T13:33:04Z</time>
      </trkpt>
      <trkpt lat="47.44321" lon="-1.06862">
        <ele>62</ele>
        <time>2020-09-20T13:33:22Z</time>
      </trkpt>
      <trkpt lat="47.44314" lon="-1.06796">
        <ele>62</ele>
        <time>2020-09-20T13:33:30Z</time>
      </trkpt>
      <trkpt lat="47.44296" lon="-1.06682">
        <ele>60</ele>
        <time>2020-09-20T13:33:44Z</time>
      </trkpt>
      <trkpt lat="47.44275" lon="-1.06683">
        <ele>59</ele>
        <time>2020-09-20T13:33:48Z</time>
      </trkpt>
      <trkpt lat="47.44193" lon="-1.067">
        <ele>53</ele>
        <time>2020-09-20T13:34:03Z</time>
      </trkpt>
      <trkpt lat="47.44169" lon="-1.06702">
        <ele>51</ele>
        <time>2020-09-20T13:34:07Z</time>
      </trkpt>
      <trkpt lat="47.44166" lon="-1.06708">
        <ele>51</ele>
        <time>2020-09-20T13:34:08Z</time>
      </trkpt>
      <trkpt lat="47.44162" lon="-1.06706">
        <ele>51</ele>
        <time>2020-09-20T13:34:09Z</time>
      </trkpt>
      <trkpt lat="47.44131" lon="-1.06728">
        <ele>50</ele>
        <time>2020-09-20T13:34:15Z</time>
      </trkpt>
      <trkpt lat="47.4413" lon="-1.06735">
        <ele>50</ele>
        <time>2020-09-20T13:34:15Z</time>
      </trkpt>
      <trkpt lat="47.44125" lon="-1.06737">
        <ele>49</ele>
        <time>2020-09-20T13:34:16Z</time>
      </trkpt>
      <trkpt lat="47.44122" lon="-1.06732">
        <ele>49</ele>
        <time>2020-09-20T13:34:17Z</time>
      </trkpt>
      <trkpt lat="47.44123" lon="-1.06725">
        <ele>50</ele>
        <time>2020-09-20T13:34:18Z</time>
      </trkpt>
      <trkpt lat="47.44108" lon="-1.06711">
        <ele>50</ele>
        <time>2020-09-20T13:34:21Z</time>
      </trkpt>
      <trkpt lat="47.43786" lon="-1.06309">
        <ele>57</ele>
        <time>2020-09-20T13:35:36Z</time>
      </trkpt>
      <trkpt lat="47.43758" lon="-1.06281">
        <ele>58</ele>
        <time>2020-09-20T13:35:42Z</time>
      </trkpt>
      <trkpt lat="47.4372" lon="-1.06255">
        <ele>61</ele>
        <time>2020-09-20T13:35:50Z</time>
      </trkpt>
      <trkpt lat="47.43459" lon="-1.06131">
        <ele>63</ele>
        <time>2020-09-20T13:36:38Z</time>
      </trkpt>
      <trkpt lat="47.43431" lon="-1.06122">
        <ele>63</ele>
        <time>2020-09-20T13:36:44Z</time>
      </trkpt>
      <trkpt lat="47.43375" lon="-1.06111">
        <ele>62</ele>
        <time>2020-09-20T13:36:54Z</time>
      </trkpt>
      <trkpt lat="47.43348" lon="-1.06098">
        <ele>60</ele>
        <time>2020-09-20T13:36:59Z</time>
      </trkpt>
      <trkpt lat="47.43298" lon="-1.06054">
        <ele>59</ele>
        <time>2020-09-20T13:37:09Z</time>
      </trkpt>
      <trkpt lat="47.43226" lon="-1.05984">
        <ele>59</ele>
        <time>2020-09-20T13:37:24Z</time>
      </trkpt>
      <trkpt lat="47.4318" lon="-1.05933">
        <ele>60</ele>
        <time>2020-09-20T13:37:35Z</time>
      </trkpt>
      <trkpt lat="47.4317" lon="-1.05917">
        <ele>60</ele>
        <time>2020-09-20T13:37:37Z</time>
      </trkpt>
      <trkpt lat="47.4315" lon="-1.05874">
        <ele>60</ele>
        <time>2020-09-20T13:37:43Z</time>
      </trkpt>
      <trkpt lat="47.43073" lon="-1.05689">
        <ele>59</ele>
        <time>2020-09-20T13:38:10Z</time>
      </trkpt>
      <trkpt lat="47.43063" lon="-1.05659">
        <ele>59</ele>
        <time>2020-09-20T13:38:14Z</time>
      </trkpt>
      <trkpt lat="47.43059" lon="-1.05642">
        <ele>60</ele>
        <time>2020-09-20T13:38:16Z</time>
      </trkpt>
      <trkpt lat="47.43056" lon="-1.05609">
        <ele>60</ele>
        <time>2020-09-20T13:38:20Z</time>
      </trkpt>
      <trkpt lat="47.43063" lon="-1.05491">
        <ele>60</ele>
        <time>2020-09-20T13:38:34Z</time>
      </trkpt>
      <trkpt lat="47.43062" lon="-1.05469">
        <ele>60</ele>
        <time>2020-09-20T13:38:37Z</time>
      </trkpt>
      <trkpt lat="47.43055" lon="-1.05436">
        <ele>60</ele>
        <time>2020-09-20T13:38:41Z</time>
      </trkpt>
      <trkpt lat="47.43035" lon="-1.05382">
        <ele>60</ele>
        <time>2020-09-20T13:38:48Z</time>
      </trkpt>
      <trkpt lat="47.42984" lon="-1.0526">
        <ele>60</ele>
        <time>2020-09-20T13:39:06Z</time>
      </trkpt>
      <trkpt lat="47.42964" lon="-1.05201">
        <ele>61</ele>
        <time>2020-09-20T13:39:14Z</time>
      </trkpt>
      <trkpt lat="47.42865" lon="-1.04803">
        <ele>60</ele>
        <time>2020-09-20T13:40:05Z</time>
      </trkpt>
      <trkpt lat="47.42856" lon="-1.04785">
        <ele>60</ele>
        <time>2020-09-20T13:40:07Z</time>
      </trkpt>
      <trkpt lat="47.42842" lon="-1.04776">
        <ele>60</ele>
        <time>2020-09-20T13:40:10Z</time>
      </trkpt>
      <trkpt lat="47.42553" lon="-1.04727">
        <ele>61</ele>
        <time>2020-09-20T13:41:02Z</time>
      </trkpt>
      <trkpt lat="47.42504" lon="-1.04711">
        <ele>61</ele>
        <time>2020-09-20T13:41:11Z</time>
      </trkpt>
      <trkpt lat="47.42383" lon="-1.04642">
        <ele>63</ele>
        <time>2020-09-20T13:41:34Z</time>
      </trkpt>
      <trkpt lat="47.42349" lon="-1.04627">
        <ele>64</ele>
        <time>2020-09-20T13:41:40Z</time>
      </trkpt>
      <trkpt lat="47.42297" lon="-1.04614">
        <ele>65</ele>
        <time>2020-09-20T13:41:49Z</time>
      </trkpt>
      <trkpt lat="47.4221" lon="-1.04609">
        <ele>66</ele>
        <time>2020-09-20T13:42:05Z</time>
      </trkpt>
      <trkpt lat="47.42055" lon="-1.04606">
        <ele>66</ele>
        <time>2020-09-20T13:42:33Z</time>
      </trkpt>
      <trkpt lat="47.42013" lon="-1.04601">
        <ele>66</ele>
        <time>2020-09-20T13:42:40Z</time>
      </trkpt>
      <trkpt lat="47.4194" lon="-1.04585">
        <ele>66</ele>
        <time>2020-09-20T13:42:53Z</time>
      </trkpt>
      <trkpt lat="47.41355" lon="-1.04398">
        <ele>50</ele>
        <time>2020-09-20T13:44:40Z</time>
      </trkpt>
      <trkpt lat="47.41071" lon="-1.04296">
        <ele>48</ele>
        <time>2020-09-20T13:45:32Z</time>
      </trkpt>
      <trkpt lat="47.41053" lon="-1.04292">
        <ele>48</ele>
        <time>2020-09-20T13:45:35Z</time>
      </trkpt>
      <trkpt lat="47.41015" lon="-1.04288">
        <ele>48</ele>
        <time>2020-09-20T13:45:42Z</time>
      </trkpt>
      <trkpt lat="47.40995" lon="-1.04289">
        <ele>48</ele>
        <time>2020-09-20T13:45:45Z</time>
      </trkpt>
      <trkpt lat="47.40563" lon="-1.04336">
        <ele>41</ele>
        <time>2020-09-20T13:47:02Z</time>
      </trkpt>
      <trkpt lat="47.40531" lon="-1.04336">
        <ele>40</ele>
        <time>2020-09-20T13:47:08Z</time>
      </trkpt>
      <trkpt lat="47.40512" lon="-1.04332">
        <ele>39</ele>
        <time>2020-09-20T13:47:11Z</time>
      </trkpt>
      <trkpt lat="47.40484" lon="-1.04312">
        <ele>39</ele>
        <time>2020-09-20T13:47:17Z</time>
      </trkpt>
      <trkpt lat="47.40469" lon="-1.04294">
        <ele>38</ele>
        <time>2020-09-20T13:47:20Z</time>
      </trkpt>
      <trkpt lat="47.40278" lon="-1.03998">
        <ele>36</ele>
        <time>2020-09-20T13:48:10Z</time>
      </trkpt>
      <trkpt lat="47.40239" lon="-1.03946">
        <ele>36</ele>
        <time>2020-09-20T13:48:19Z</time>
      </trkpt>
      <trkpt lat="47.40217" lon="-1.0392">
        <ele>36</ele>
        <time>2020-09-20T13:48:24Z</time>
      </trkpt>
      <trkpt lat="47.40139" lon="-1.03848">
        <ele>37</ele>
        <time>2020-09-20T13:48:40Z</time>
      </trkpt>
      <trkpt lat="47.40099" lon="-1.03817">
        <ele>37</ele>
        <time>2020-09-20T13:48:48Z</time>
      </trkpt>
      <trkpt lat="47.40068" lon="-1.03804">
        <ele>37</ele>
        <time>2020-09-20T13:48:54Z</time>
      </trkpt>
      <trkpt lat="47.40035" lon="-1.03794">
        <ele>37</ele>
        <time>2020-09-20T13:49:00Z</time>
      </trkpt>
      <trkpt lat="47.39476" lon="-1.03641">
        <ele>37</ele>
        <time>2020-09-20T13:50:41Z</time>
      </trkpt>
      <trkpt lat="47.39369" lon="-1.03614">
        <ele>37</ele>
        <time>2020-09-20T13:51:01Z</time>
      </trkpt>
      <trkpt lat="47.38922" lon="-1.03552">
        <ele>40</ele>
        <time>2020-09-20T13:52:20Z</time>
      </trkpt>
      <trkpt lat="47.3884" lon="-1.03537">
        <ele>38</ele>
        <time>2020-09-20T13:52:35Z</time>
      </trkpt>
      <trkpt lat="47.38715" lon="-1.035">
        <ele>35</ele>
        <time>2020-09-20T13:52:58Z</time>
      </trkpt>
      <trkpt lat="47.38688" lon="-1.03494">
        <ele>34</ele>
        <time>2020-09-20T13:53:03Z</time>
      </trkpt>
      <trkpt lat="47.38686" lon="-1.03504">
        <ele>34</ele>
        <time>2020-09-20T13:53:04Z</time>
      </trkpt>
      <trkpt lat="47.3868" lon="-1.03507">
        <ele>34</ele>
        <time>2020-09-20T13:53:05Z</time>
      </trkpt>
      <trkpt lat="47.38675" lon="-1.03499">
        <ele>33</ele>
        <time>2020-09-20T13:53:06Z</time>
      </trkpt>
      <trkpt lat="47.38677" lon="-1.03488">
        <ele>33</ele>
        <time>2020-09-20T13:53:08Z</time>
      </trkpt>
      <trkpt lat="47.38662" lon="-1.03449">
        <ele>32</ele>
        <time>2020-09-20T13:53:13Z</time>
      </trkpt>
      <trkpt lat="47.38608" lon="-1.0328">
        <ele>32</ele>
        <time>2020-09-20T13:53:36Z</time>
      </trkpt>
      <trkpt lat="47.38586" lon="-1.0324">
        <ele>33</ele>
        <time>2020-09-20T13:53:42Z</time>
      </trkpt>
      <trkpt lat="47.38499" lon="-1.03105">
        <ele>36</ele>
        <time>2020-09-20T13:54:04Z</time>
      </trkpt>
      <trkpt lat="47.38495" lon="-1.03092">
        <ele>36</ele>
        <time>2020-09-20T13:54:06Z</time>
      </trkpt>
      <trkpt lat="47.38486" lon="-1.02919">
        <ele>34</ele>
        <time>2020-09-20T13:54:27Z</time>
      </trkpt>
      <trkpt lat="47.38487" lon="-1.029">
        <ele>33</ele>
        <time>2020-09-20T13:54:29Z</time>
      </trkpt>
      <trkpt lat="47.38495" lon="-1.02855">
        <ele>32</ele>
        <time>2020-09-20T13:54:35Z</time>
      </trkpt>
      <trkpt lat="47.38516" lon="-1.02782">
        <ele>31</ele>
        <time>2020-09-20T13:54:44Z</time>
      </trkpt>
      <trkpt lat="47.3851" lon="-1.02747">
        <ele>31</ele>
        <time>2020-09-20T13:54:49Z</time>
      </trkpt>
      <trkpt lat="47.38502" lon="-1.0259">
        <ele>27</ele>
        <time>2020-09-20T13:55:08Z</time>
      </trkpt>
      <trkpt lat="47.38498" lon="-1.02561">
        <ele>26</ele>
        <time>2020-09-20T13:55:11Z</time>
      </trkpt>
      <trkpt lat="47.38491" lon="-1.02534">
        <ele>26</ele>
        <time>2020-09-20T13:55:15Z</time>
      </trkpt>
      <trkpt lat="47.38443" lon="-1.02397">
        <ele>27</ele>
        <time>2020-09-20T13:55:33Z</time>
      </trkpt>
      <trkpt lat="47.38437" lon="-1.02369">
        <ele>27</ele>
        <time>2020-09-20T13:55:37Z</time>
      </trkpt>
      <trkpt lat="47.38392" lon="-1.02115">
        <ele>31</ele>
        <time>2020-09-20T13:56:09Z</time>
      </trkpt>
      <trkpt lat="47.38378" lon="-1.01992">
        <ele>31</ele>
        <time>2020-09-20T13:56:24Z</time>
      </trkpt>
      <trkpt lat="47.38372" lon="-1.01893">
        <ele>31</ele>
        <time>2020-09-20T13:56:36Z</time>
      </trkpt>
      <trkpt lat="47.38373" lon="-1.01854">
        <ele>31</ele>
        <time>2020-09-20T13:56:40Z</time>
      </trkpt>
      <trkpt lat="47.38423" lon="-1.01189">
        <ele>24</ele>
        <time>2020-09-20T13:58:01Z</time>
      </trkpt>
      <trkpt lat="47.38424" lon="-1.01123">
        <ele>24</ele>
        <time>2020-09-20T13:58:09Z</time>
      </trkpt>
      <trkpt lat="47.38392" lon="-1.007">
        <ele>25</ele>
        <time>2020-09-20T13:59:00Z</time>
      </trkpt>
      <trkpt lat="47.38372" lon="-1.00573">
        <ele>23</ele>
        <time>2020-09-20T13:59:16Z</time>
      </trkpt>
      <trkpt lat="47.38368" lon="-1.00534">
        <ele>23</ele>
        <time>2020-09-20T13:59:21Z</time>
      </trkpt>
      <trkpt lat="47.38362" lon="-1.00397">
        <ele>23</ele>
        <time>2020-09-20T13:59:37Z</time>
      </trkpt>
      <trkpt lat="47.38355" lon="-1.00303">
        <ele>21</ele>
        <time>2020-09-20T13:59:48Z</time>
      </trkpt>
      <trkpt lat="47.38319" lon="-1.00063">
        <ele>21</ele>
        <time>2020-09-20T14:00:18Z</time>
      </trkpt>
      <trkpt lat="47.38315" lon="-1.00001">
        <ele>21</ele>
        <time>2020-09-20T14:00:26Z</time>
      </trkpt>
      <trkpt lat="47.38319" lon="-0.99975">
        <ele>21</ele>
        <time>2020-09-20T14:00:29Z</time>
      </trkpt>
      <trkpt lat="47.38334" lon="-0.99942">
        <ele>22</ele>
        <time>2020-09-20T14:00:34Z</time>
      </trkpt>
      <trkpt lat="47.38394" lon="-0.99882">
        <ele>19</ele>
        <time>2020-09-20T14:00:46Z</time>
      </trkpt>
      <trkpt lat="47.38402" lon="-0.9987">
        <ele>19</ele>
        <time>2020-09-20T14:00:49Z</time>
      </trkpt>
      <trkpt lat="47.38416" lon="-0.99839">
        <ele>18</ele>
        <time>2020-09-20T14:00:53Z</time>
      </trkpt>
      <trkpt lat="47.38525" lon="-0.9953">
        <ele>12</ele>
        <time>2020-09-20T14:01:35Z</time>
      </trkpt>
      <trkpt lat="47.38576" lon="-0.99348">
        <ele>14</ele>
        <time>2020-09-20T14:01:59Z</time>
      </trkpt>
      <trkpt lat="47.38587" lon="-0.99317">
        <ele>15</ele>
        <time>2020-09-20T14:02:03Z</time>
      </trkpt>
      <trkpt lat="47.38623" lon="-0.99235">
        <ele>17</ele>
        <time>2020-09-20T14:02:15Z</time>
      </trkpt>
      <trkpt lat="47.38634" lon="-0.99196">
        <ele>17</ele>
        <time>2020-09-20T14:02:20Z</time>
      </trkpt>
      <trkpt lat="47.38638" lon="-0.99165">
        <ele>18</ele>
        <time>2020-09-20T14:02:24Z</time>
      </trkpt>
      <trkpt lat="47.38664" lon="-0.98877">
        <ele>18</ele>
        <time>2020-09-20T14:02:59Z</time>
      </trkpt>
      <trkpt lat="47.38668" lon="-0.9868">
        <ele>16</ele>
        <time>2020-09-20T14:03:22Z</time>
      </trkpt>
      <trkpt lat="47.38673" lon="-0.98647">
        <ele>16</ele>
        <time>2020-09-20T14:03:26Z</time>
      </trkpt>
      <trkpt lat="47.38687" lon="-0.98611">
        <ele>15</ele>
        <time>2020-09-20T14:03:31Z</time>
      </trkpt>
      <trkpt lat="47.38741" lon="-0.98528">
        <ele>16</ele>
        <time>2020-09-20T14:03:45Z</time>
      </trkpt>
      <trkpt lat="47.3877" lon="-0.98473">
        <ele>16</ele>
        <time>2020-09-20T14:03:54Z</time>
      </trkpt>
      <trkpt lat="47.38819" lon="-0.98353">
        <ele>16</ele>
        <time>2020-09-20T14:04:11Z</time>
      </trkpt>
      <trkpt lat="47.38833" lon="-0.98309">
        <ele>15</ele>
        <time>2020-09-20T14:04:16Z</time>
      </trkpt>
      <trkpt lat="47.38834" lon="-0.98276">
        <ele>15</ele>
        <time>2020-09-20T14:04:20Z</time>
      </trkpt>
      <trkpt lat="47.38826" lon="-0.98214">
        <ele>14</ele>
        <time>2020-09-20T14:04:28Z</time>
      </trkpt>
      <trkpt lat="47.38824" lon="-0.98177">
        <ele>14</ele>
        <time>2020-09-20T14:04:32Z</time>
      </trkpt>
      <trkpt lat="47.38828" lon="-0.98087">
        <ele>16</ele>
        <time>2020-09-20T14:04:43Z</time>
      </trkpt>
      <trkpt lat="47.38827" lon="-0.98048">
        <ele>16</ele>
        <time>2020-09-20T14:04:48Z</time>
      </trkpt>
      <trkpt lat="47.38806" lon="-0.9793">
        <ele>15</ele>
        <time>2020-09-20T14:05:03Z</time>
      </trkpt>
      <trkpt lat="47.38802" lon="-0.97893">
        <ele>15</ele>
        <time>2020-09-20T14:05:07Z</time>
      </trkpt>
      <trkpt lat="47.38806" lon="-0.9784">
        <ele>15</ele>
        <time>2020-09-20T14:05:14Z</time>
      </trkpt>
      <trkpt lat="47.38827" lon="-0.97686">
        <ele>16</ele>
        <time>2020-09-20T14:05:33Z</time>
      </trkpt>
      <trkpt lat="47.38877" lon="-0.97492">
        <ele>18</ele>
        <time>2020-09-20T14:05:58Z</time>
      </trkpt>
      <trkpt lat="47.38922" lon="-0.97225">
        <ele>18</ele>
        <time>2020-09-20T14:06:31Z</time>
      </trkpt>
      <trkpt lat="47.38933" lon="-0.97141">
        <ele>17</ele>
        <time>2020-09-20T14:06:41Z</time>
      </trkpt>
      <trkpt lat="47.38936" lon="-0.97097">
        <ele>17</ele>
        <time>2020-09-20T14:06:46Z</time>
      </trkpt>
      <trkpt lat="47.38936" lon="-0.9704">
        <ele>16</ele>
        <time>2020-09-20T14:06:53Z</time>
      </trkpt>
      <trkpt lat="47.38907" lon="-0.96998">
        <ele>15</ele>
        <time>2020-09-20T14:07:00Z</time>
      </trkpt>
      <trkpt lat="47.38821" lon="-0.96945">
        <ele>15</ele>
        <time>2020-09-20T14:07:17Z</time>
      </trkpt>
      <trkpt lat="47.38796" lon="-0.96923">
        <ele>15</ele>
        <time>2020-09-20T14:07:22Z</time>
      </trkpt>
      <trkpt lat="47.38782" lon="-0.96904">
        <ele>15</ele>
        <time>2020-09-20T14:07:26Z</time>
      </trkpt>
      <trkpt lat="47.38771" lon="-0.96883">
        <ele>14</ele>
        <time>2020-09-20T14:07:29Z</time>
      </trkpt>
      <trkpt lat="47.38762" lon="-0.96854">
        <ele>14</ele>
        <time>2020-09-20T14:07:33Z</time>
      </trkpt>
      <trkpt lat="47.38757" lon="-0.96825">
        <ele>13</ele>
        <time>2020-09-20T14:07:36Z</time>
      </trkpt>
      <trkpt lat="47.38756" lon="-0.96776">
        <ele>14</ele>
        <time>2020-09-20T14:07:42Z</time>
      </trkpt>
      <trkpt lat="47.38761" lon="-0.96709">
        <ele>14</ele>
        <time>2020-09-20T14:07:50Z</time>
      </trkpt>
      <trkpt lat="47.38777" lon="-0.96584">
        <ele>13</ele>
        <time>2020-09-20T14:08:06Z</time>
      </trkpt>
      <trkpt lat="47.38791" lon="-0.96535">
        <ele>13</ele>
        <time>2020-09-20T14:08:12Z</time>
      </trkpt>
      <trkpt lat="47.38807" lon="-0.96502">
        <ele>12</ele>
        <time>2020-09-20T14:08:17Z</time>
      </trkpt>
      <trkpt lat="47.38821" lon="-0.96483">
        <ele>13</ele>
        <time>2020-09-20T14:08:20Z</time>
      </trkpt>
      <trkpt lat="47.38892" lon="-0.96424">
        <ele>14</ele>
        <time>2020-09-20T14:08:35Z</time>
      </trkpt>
      <trkpt lat="47.38912" lon="-0.96391">
        <ele>13</ele>
        <time>2020-09-20T14:08:40Z</time>
      </trkpt>
      <trkpt lat="47.38936" lon="-0.96321">
        <ele>13</ele>
        <time>2020-09-20T14:08:50Z</time>
      </trkpt>
      <trkpt lat="47.38962" lon="-0.96228">
        <ele>12</ele>
        <time>2020-09-20T14:09:02Z</time>
      </trkpt>
      <trkpt lat="47.38973" lon="-0.96172">
        <ele>12</ele>
        <time>2020-09-20T14:09:09Z</time>
      </trkpt>
      <trkpt lat="47.38976" lon="-0.96135">
        <ele>12</ele>
        <time>2020-09-20T14:09:13Z</time>
      </trkpt>
      <trkpt lat="47.38974" lon="-0.9608">
        <ele>12</ele>
        <time>2020-09-20T14:09:20Z</time>
      </trkpt>
      <trkpt lat="47.38966" lon="-0.95998">
        <ele>12</ele>
        <time>2020-09-20T14:09:30Z</time>
      </trkpt>
      <trkpt lat="47.38967" lon="-0.95967">
        <ele>12</ele>
        <time>2020-09-20T14:09:34Z</time>
      </trkpt>
      <trkpt lat="47.38996" lon="-0.9572">
        <ele>12</ele>
        <time>2020-09-20T14:10:04Z</time>
      </trkpt>
      <trkpt lat="47.39015" lon="-0.95633">
        <ele>11</ele>
        <time>2020-09-20T14:10:15Z</time>
      </trkpt>
      <trkpt lat="47.3907" lon="-0.9545">
        <ele>12</ele>
        <time>2020-09-20T14:10:39Z</time>
      </trkpt>
      <trkpt lat="47.39087" lon="-0.95413">
        <ele>13</ele>
        <time>2020-09-20T14:10:44Z</time>
      </trkpt>
      <trkpt lat="47.39098" lon="-0.95397">
        <ele>13</ele>
        <time>2020-09-20T14:10:47Z</time>
      </trkpt>
      <trkpt lat="47.39304" lon="-0.9512">
        <ele>12</ele>
        <time>2020-09-20T14:11:37Z</time>
      </trkpt>
      <trkpt lat="47.39319" lon="-0.95108">
        <ele>13</ele>
        <time>2020-09-20T14:11:40Z</time>
      </trkpt>
      <trkpt lat="47.39334" lon="-0.95105">
        <ele>13</ele>
        <time>2020-09-20T14:11:42Z</time>
      </trkpt>
      <trkpt lat="47.39358" lon="-0.95115">
        <ele>12</ele>
        <time>2020-09-20T14:11:47Z</time>
      </trkpt>
      <trkpt lat="47.39365" lon="-0.95113">
        <ele>12</ele>
        <time>2020-09-20T14:11:48Z</time>
      </trkpt>
      <trkpt lat="47.39371" lon="-0.95097">
        <ele>12</ele>
        <time>2020-09-20T14:11:50Z</time>
      </trkpt>
      <trkpt lat="47.39385" lon="-0.95039">
        <ele>12</ele>
        <time>2020-09-20T14:11:58Z</time>
      </trkpt>
      <trkpt lat="47.39399" lon="-0.94999">
        <ele>12</ele>
        <time>2020-09-20T14:12:03Z</time>
      </trkpt>
      <trkpt lat="47.39516" lon="-0.94769">
        <ele>12</ele>
        <time>2020-09-20T14:12:38Z</time>
      </trkpt>
      <trkpt lat="47.39537" lon="-0.94724">
        <ele>12</ele>
        <time>2020-09-20T14:12:44Z</time>
      </trkpt>
      <trkpt lat="47.39555" lon="-0.94677">
        <ele>11</ele>
        <time>2020-09-20T14:12:51Z</time>
      </trkpt>
      <trkpt lat="47.39634" lon="-0.9437">
        <ele>12</ele>
        <time>2020-09-20T14:13:30Z</time>
      </trkpt>
      <trkpt lat="47.39656" lon="-0.94276">
        <ele>13</ele>
        <time>2020-09-20T14:13:42Z</time>
      </trkpt>
      <trkpt lat="47.39677" lon="-0.94154">
        <ele>13</ele>
        <time>2020-09-20T14:13:57Z</time>
      </trkpt>
      <trkpt lat="47.39733" lon="-0.93881">
        <ele>14</ele>
        <time>2020-09-20T14:14:32Z</time>
      </trkpt>
      <trkpt lat="47.39783" lon="-0.93719">
        <ele>16</ele>
        <time>2020-09-20T14:14:53Z</time>
      </trkpt>
      <trkpt lat="47.39823" lon="-0.93566">
        <ele>16</ele>
        <time>2020-09-20T14:15:13Z</time>
      </trkpt>
      <trkpt lat="47.39849" lon="-0.93484">
        <ele>17</ele>
        <time>2020-09-20T14:15:24Z</time>
      </trkpt>
      <trkpt lat="47.39869" lon="-0.93437">
        <ele>18</ele>
        <time>2020-09-20T14:15:31Z</time>
      </trkpt>
      <trkpt lat="47.39895" lon="-0.93389">
        <ele>19</ele>
        <time>2020-09-20T14:15:38Z</time>
      </trkpt>
      <trkpt lat="47.4007" lon="-0.93094">
        <ele>23</ele>
        <time>2020-09-20T14:16:25Z</time>
      </trkpt>
      <trkpt lat="47.40067" lon="-0.93089">
        <ele>22</ele>
        <time>2020-09-20T14:16:26Z</time>
      </trkpt>
      <trkpt lat="47.40067" lon="-0.93083">
        <ele>22</ele>
        <time>2020-09-20T14:16:27Z</time>
      </trkpt>
      <trkpt lat="47.4004" lon="-0.93067">
        <ele>21</ele>
        <time>2020-09-20T14:16:32Z</time>
      </trkpt>
      <trkpt lat="47.39971" lon="-0.93019">
        <ele>18</ele>
        <time>2020-09-20T14:16:46Z</time>
      </trkpt>
      <trkpt lat="47.3996" lon="-0.93008">
        <ele>17</ele>
        <time>2020-09-20T14:16:48Z</time>
      </trkpt>
      <trkpt lat="47.39956" lon="-0.92993">
        <ele>16</ele>
        <time>2020-09-20T14:16:50Z</time>
      </trkpt>
      <trkpt lat="47.39996" lon="-0.92772">
        <ele>17</ele>
        <time>2020-09-20T14:17:17Z</time>
      </trkpt>
      <trkpt lat="47.40013" lon="-0.92707">
        <ele>18</ele>
        <time>2020-09-20T14:17:26Z</time>
      </trkpt>
      <trkpt lat="47.40027" lon="-0.92662">
        <ele>19</ele>
        <time>2020-09-20T14:17:32Z</time>
      </trkpt>
      <trkpt lat="47.40068" lon="-0.92565">
        <ele>18</ele>
        <time>2020-09-20T14:17:46Z</time>
      </trkpt>
      <trkpt lat="47.40086" lon="-0.92508">
        <ele>17</ele>
        <time>2020-09-20T14:17:53Z</time>
      </trkpt>
      <trkpt lat="47.401" lon="-0.92472">
        <ele>16</ele>
        <time>2020-09-20T14:17:58Z</time>
      </trkpt>
      <trkpt lat="47.40174" lon="-0.92307">
        <ele>17</ele>
        <time>2020-09-20T14:18:22Z</time>
      </trkpt>
      <trkpt lat="47.40197" lon="-0.92273">
        <ele>18</ele>
        <time>2020-09-20T14:18:28Z</time>
      </trkpt>
      <trkpt lat="47.40207" lon="-0.92254">
        <ele>18</ele>
        <time>2020-09-20T14:18:31Z</time>
      </trkpt>
      <trkpt lat="47.40218" lon="-0.9222">
        <ele>17</ele>
        <time>2020-09-20T14:18:35Z</time>
      </trkpt>
      <trkpt lat="47.40246" lon="-0.92162">
        <ele>18</ele>
        <time>2020-09-20T14:18:44Z</time>
      </trkpt>
      <trkpt lat="47.40305" lon="-0.92074">
        <ele>17</ele>
        <time>2020-09-20T14:18:59Z</time>
      </trkpt>
      <trkpt lat="47.40188" lon="-0.91969">
        <ele>9</ele>
        <time>2020-09-20T14:19:23Z</time>
      </trkpt>
      <trkpt lat="47.39843" lon="-0.91672">
        <ele>14</ele>
        <time>2020-09-20T14:20:34Z</time>
      </trkpt>
      <trkpt lat="47.39855" lon="-0.91682">
        <ele>13</ele>
        <time>2020-09-20T14:20:37Z</time>
      </trkpt>
      <trkpt lat="47.39948" lon="-0.91449">
        <ele>13</ele>
        <time>2020-09-20T14:21:09Z</time>
      </trkpt>
      <trkpt lat="47.39964" lon="-0.91404">
        <ele>12</ele>
        <time>2020-09-20T14:21:15Z</time>
      </trkpt>
      <trkpt lat="47.39977" lon="-0.91358">
        <ele>13</ele>
        <time>2020-09-20T14:21:21Z</time>
      </trkpt>
      <trkpt lat="47.39993" lon="-0.9128">
        <ele>12</ele>
        <time>2020-09-20T14:21:31Z</time>
      </trkpt>
      <trkpt lat="47.40002" lon="-0.91211">
        <ele>13</ele>
        <time>2020-09-20T14:21:40Z</time>
      </trkpt>
      <trkpt lat="47.40005" lon="-0.91167">
        <ele>14</ele>
        <time>2020-09-20T14:21:45Z</time>
      </trkpt>
      <trkpt lat="47.40023" lon="-0.90632">
        <ele>13</ele>
        <time>2020-09-20T14:22:49Z</time>
      </trkpt>
      <trkpt lat="47.40022" lon="-0.90576">
        <ele>12</ele>
        <time>2020-09-20T14:22:56Z</time>
      </trkpt>
      <trkpt lat="47.40011" lon="-0.90467">
        <ele>12</ele>
        <time>2020-09-20T14:23:09Z</time>
      </trkpt>
      <trkpt lat="47.39992" lon="-0.90381">
        <ele>13</ele>
        <time>2020-09-20T14:23:20Z</time>
      </trkpt>
      <trkpt lat="47.3997" lon="-0.90307">
        <ele>13</ele>
        <time>2020-09-20T14:23:30Z</time>
      </trkpt>
      <trkpt lat="47.39664" lon="-0.89409">
        <ele>14</ele>
        <time>2020-09-20T14:25:31Z</time>
      </trkpt>
      <trkpt lat="47.39649" lon="-0.89352">
        <ele>13</ele>
        <time>2020-09-20T14:25:38Z</time>
      </trkpt>
      <trkpt lat="47.3963" lon="-0.89225">
        <ele>12</ele>
        <time>2020-09-20T14:25:54Z</time>
      </trkpt>
      <trkpt lat="47.39609" lon="-0.88931">
        <ele>11</ele>
        <time>2020-09-20T14:26:30Z</time>
      </trkpt>
      <trkpt lat="47.39599" lon="-0.88853">
        <ele>11</ele>
        <time>2020-09-20T14:26:39Z</time>
      </trkpt>
      <trkpt lat="47.39553" lon="-0.88714">
        <ele>11</ele>
        <time>2020-09-20T14:26:58Z</time>
      </trkpt>
      <trkpt lat="47.39502" lon="-0.88578">
        <ele>12</ele>
        <time>2020-09-20T14:27:17Z</time>
      </trkpt>
      <trkpt lat="47.3947" lon="-0.88483">
        <ele>12</ele>
        <time>2020-09-20T14:27:29Z</time>
      </trkpt>
      <trkpt lat="47.39454" lon="-0.88424">
        <ele>12</ele>
        <time>2020-09-20T14:27:37Z</time>
      </trkpt>
      <trkpt lat="47.39413" lon="-0.88145">
        <ele>11</ele>
        <time>2020-09-20T14:28:11Z</time>
      </trkpt>
      <trkpt lat="47.39313" lon="-0.87772">
        <ele>12</ele>
        <time>2020-09-20T14:29:00Z</time>
      </trkpt>
      <trkpt lat="47.39249" lon="-0.87525">
        <ele>12</ele>
        <time>2020-09-20T14:29:32Z</time>
      </trkpt>
      <trkpt lat="47.39239" lon="-0.87477">
        <ele>12</ele>
        <time>2020-09-20T14:29:38Z</time>
      </trkpt>
      <trkpt lat="47.39231" lon="-0.87401">
        <ele>13</ele>
        <time>2020-09-20T14:29:47Z</time>
      </trkpt>
      <trkpt lat="47.39208" lon="-0.86709">
        <ele>10</ele>
        <time>2020-09-20T14:31:10Z</time>
      </trkpt>
      <trkpt lat="47.39231" lon="-0.86289">
        <ele>13</ele>
        <time>2020-09-20T14:32:01Z</time>
      </trkpt>
      <trkpt lat="47.39231" lon="-0.86222">
        <ele>13</ele>
        <time>2020-09-20T14:32:09Z</time>
      </trkpt>
      <trkpt lat="47.39224" lon="-0.86191">
        <ele>13</ele>
        <time>2020-09-20T14:32:13Z</time>
      </trkpt>
      <trkpt lat="47.39197" lon="-0.86112">
        <ele>14</ele>
        <time>2020-09-20T14:32:24Z</time>
      </trkpt>
      <trkpt lat="47.39732" lon="-0.85742">
        <ele>14</ele>
        <time>2020-09-20T14:34:09Z</time>
      </trkpt>
      <trkpt lat="47.39872" lon="-0.85642">
        <ele>12</ele>
        <time>2020-09-20T14:34:37Z</time>
      </trkpt>
      <trkpt lat="47.40272" lon="-0.85364">
        <ele>14</ele>
        <time>2020-09-20T14:35:55Z</time>
      </trkpt>
      <trkpt lat="47.40199" lon="-0.85142">
        <ele>12</ele>
        <time>2020-09-20T14:36:25Z</time>
      </trkpt>
      <trkpt lat="47.40134" lon="-0.84981">
        <ele>11</ele>
        <time>2020-09-20T14:36:48Z</time>
      </trkpt>
      <trkpt lat="47.39902" lon="-0.84446">
        <ele>12</ele>
        <time>2020-09-20T14:38:04Z</time>
      </trkpt>
      <trkpt lat="47.39834" lon="-0.84298">
        <ele>12</ele>
        <time>2020-09-20T14:38:26Z</time>
      </trkpt>
      <trkpt lat="47.39765" lon="-0.84113">
        <ele>12</ele>
        <time>2020-09-20T14:38:51Z</time>
      </trkpt>
      <trkpt lat="47.39763" lon="-0.84062">
        <ele>12</ele>
        <time>2020-09-20T14:38:57Z</time>
      </trkpt>
      <trkpt lat="47.39767" lon="-0.83824">
        <ele>11</ele>
        <time>2020-09-20T14:39:26Z</time>
      </trkpt>
      <trkpt lat="47.39853" lon="-0.8385">
        <ele>11</ele>
        <time>2020-09-20T14:39:42Z</time>
      </trkpt>
      <trkpt lat="47.39878" lon="-0.83849">
        <ele>11</ele>
        <time>2020-09-20T14:39:46Z</time>
      </trkpt>
      <trkpt lat="47.39885" lon="-0.83846">
        <ele>11</ele>
        <time>2020-09-20T14:39:47Z</time>
      </trkpt>
      <trkpt lat="47.39904" lon="-0.83833">
        <ele>11</ele>
        <time>2020-09-20T14:39:51Z</time>
      </trkpt>
      <trkpt lat="47.40048" lon="-0.83648">
        <ele>12</ele>
        <time>2020-09-20T14:40:25Z</time>
      </trkpt>
      <trkpt lat="47.40079" lon="-0.83622">
        <ele>11</ele>
        <time>2020-09-20T14:40:31Z</time>
      </trkpt>
      <trkpt lat="47.40137" lon="-0.83595">
        <ele>11</ele>
        <time>2020-09-20T14:40:42Z</time>
      </trkpt>
      <trkpt lat="47.40791" lon="-0.83451">
        <ele>13</ele>
        <time>2020-09-20T14:42:40Z</time>
      </trkpt>
      <trkpt lat="47.40789" lon="-0.83368">
        <ele>14</ele>
        <time>2020-09-20T14:42:50Z</time>
      </trkpt>
      <trkpt lat="47.40771" lon="-0.83033">
        <ele>18</ele>
        <time>2020-09-20T14:43:30Z</time>
      </trkpt>
      <trkpt lat="47.40751" lon="-0.82879">
        <ele>22</ele>
        <time>2020-09-20T14:43:49Z</time>
      </trkpt>
      <trkpt lat="47.40732" lon="-0.82805">
        <ele>21</ele>
        <time>2020-09-20T14:43:59Z</time>
      </trkpt>
      <trkpt lat="47.40694" lon="-0.8272">
        <ele>19</ele>
        <time>2020-09-20T14:44:11Z</time>
      </trkpt>
      <trkpt lat="47.40671" lon="-0.82643">
        <ele>17</ele>
        <time>2020-09-20T14:44:21Z</time>
      </trkpt>
      <trkpt lat="47.4066" lon="-0.82626">
        <ele>17</ele>
        <time>2020-09-20T14:44:24Z</time>
      </trkpt>
      <trkpt lat="47.40642" lon="-0.82611">
        <ele>17</ele>
        <time>2020-09-20T14:44:28Z</time>
      </trkpt>
      <trkpt lat="47.40616" lon="-0.82595">
        <ele>16</ele>
        <time>2020-09-20T14:44:33Z</time>
      </trkpt>
      <trkpt lat="47.40604" lon="-0.82567">
        <ele>16</ele>
        <time>2020-09-20T14:44:37Z</time>
      </trkpt>
      <trkpt lat="47.40552" lon="-0.82384">
        <ele>16</ele>
        <time>2020-09-20T14:45:00Z</time>
      </trkpt>
      <trkpt lat="47.40521" lon="-0.82231">
        <ele>16</ele>
        <time>2020-09-20T14:45:20Z</time>
      </trkpt>
      <trkpt lat="47.40485" lon="-0.8209">
        <ele>17</ele>
        <time>2020-09-20T14:45:38Z</time>
      </trkpt>
      <trkpt lat="47.40473" lon="-0.82028">
        <ele>17</ele>
        <time>2020-09-20T14:45:46Z</time>
      </trkpt>
      <trkpt lat="47.4046" lon="-0.81978">
        <ele>17</ele>
        <time>2020-09-20T14:45:52Z</time>
      </trkpt>
      <trkpt lat="47.4043" lon="-0.81883">
        <ele>16</ele>
        <time>2020-09-20T14:46:05Z</time>
      </trkpt>
      <trkpt lat="47.40417" lon="-0.81852">
        <ele>15</ele>
        <time>2020-09-20T14:46:09Z</time>
      </trkpt>
      <trkpt lat="47.40351" lon="-0.8173">
        <ele>16</ele>
        <time>2020-09-20T14:46:28Z</time>
      </trkpt>
      <trkpt lat="47.40265" lon="-0.81532">
        <ele>18</ele>
        <time>2020-09-20T14:46:56Z</time>
      </trkpt>
      <trkpt lat="47.40213" lon="-0.81292">
        <ele>17</ele>
        <time>2020-09-20T14:47:27Z</time>
      </trkpt>
      <trkpt lat="47.40203" lon="-0.81272">
        <ele>16</ele>
        <time>2020-09-20T14:47:30Z</time>
      </trkpt>
      <trkpt lat="47.40153" lon="-0.81119">
        <ele>16</ele>
        <time>2020-09-20T14:47:50Z</time>
      </trkpt>
      <trkpt lat="47.40123" lon="-0.81054">
        <ele>16</ele>
        <time>2020-09-20T14:47:59Z</time>
      </trkpt>
      <trkpt lat="47.40118" lon="-0.8103">
        <ele>16</ele>
        <time>2020-09-20T14:48:03Z</time>
      </trkpt>
      <trkpt lat="47.40094" lon="-0.80889">
        <ele>14</ele>
        <time>2020-09-20T14:48:20Z</time>
      </trkpt>
      <trkpt lat="47.40084" lon="-0.80806">
        <ele>15</ele>
        <time>2020-09-20T14:48:30Z</time>
      </trkpt>
      <trkpt lat="47.40081" lon="-0.80702">
        <ele>15</ele>
        <time>2020-09-20T14:48:43Z</time>
      </trkpt>
      <trkpt lat="47.40072" lon="-0.80604">
        <ele>16</ele>
        <time>2020-09-20T14:48:55Z</time>
      </trkpt>
      <trkpt lat="47.40056" lon="-0.80561">
        <ele>16</ele>
        <time>2020-09-20T14:49:01Z</time>
      </trkpt>
      <trkpt lat="47.3999" lon="-0.80421">
        <ele>15</ele>
        <time>2020-09-20T14:49:21Z</time>
      </trkpt>
      <trkpt lat="47.39834" lon="-0.80069">
        <ele>16</ele>
        <time>2020-09-20T14:50:12Z</time>
      </trkpt>
      <trkpt lat="47.39851" lon="-0.80052">
        <ele>17</ele>
        <time>2020-09-20T14:50:15Z</time>
      </trkpt>
      <trkpt lat="47.39867" lon="-0.80024">
        <ele>19</ele>
        <time>2020-09-20T14:50:20Z</time>
      </trkpt>
      <trkpt lat="47.39875" lon="-0.79994">
        <ele>19</ele>
        <time>2020-09-20T14:50:24Z</time>
      </trkpt>
      <trkpt lat="47.3984" lon="-0.79947">
        <ele>17</ele>
        <time>2020-09-20T14:50:32Z</time>
      </trkpt>
      <trkpt lat="47.39836" lon="-0.79931">
        <ele>16</ele>
        <time>2020-09-20T14:50:34Z</time>
      </trkpt>
      <trkpt lat="47.39835" lon="-0.79912">
        <ele>16</ele>
        <time>2020-09-20T14:50:36Z</time>
      </trkpt>
      <trkpt lat="47.39843" lon="-0.79819">
        <ele>16</ele>
        <time>2020-09-20T14:50:48Z</time>
      </trkpt>
      <trkpt lat="47.39834" lon="-0.79794">
        <ele>16</ele>
        <time>2020-09-20T14:50:51Z</time>
      </trkpt>
      <trkpt lat="47.39798" lon="-0.79731">
        <ele>17</ele>
        <time>2020-09-20T14:51:01Z</time>
      </trkpt>
      <trkpt lat="47.39673" lon="-0.79522">
        <ele>23</ele>
        <time>2020-09-20T14:51:35Z</time>
      </trkpt>
      <trkpt lat="47.39654" lon="-0.79507">
        <ele>23</ele>
        <time>2020-09-20T14:51:39Z</time>
      </trkpt>
      <trkpt lat="47.39625" lon="-0.79514">
        <ele>23</ele>
        <time>2020-09-20T14:51:44Z</time>
      </trkpt>
      <trkpt lat="47.3962" lon="-0.79513">
        <ele>23</ele>
        <time>2020-09-20T14:51:45Z</time>
      </trkpt>
      <trkpt lat="47.39614" lon="-0.79508">
        <ele>23</ele>
        <time>2020-09-20T14:51:46Z</time>
      </trkpt>
      <trkpt lat="47.39581" lon="-0.79443">
        <ele>24</ele>
        <time>2020-09-20T14:51:56Z</time>
      </trkpt>
      <trkpt lat="47.39485" lon="-0.79221">
        <ele>25</ele>
        <time>2020-09-20T14:52:27Z</time>
      </trkpt>
      <trkpt lat="47.39473" lon="-0.79228">
        <ele>24</ele>
        <time>2020-09-20T14:52:30Z</time>
      </trkpt>
      <trkpt lat="47.39441" lon="-0.79275">
        <ele>24</ele>
        <time>2020-09-20T14:52:38Z</time>
      </trkpt>
      <trkpt lat="47.39427" lon="-0.79302">
        <ele>24</ele>
        <time>2020-09-20T14:52:42Z</time>
      </trkpt>
      <trkpt lat="47.39393" lon="-0.79325">
        <ele>24</ele>
        <time>2020-09-20T14:52:48Z</time>
      </trkpt>
      <trkpt lat="47.39378" lon="-0.7933">
        <ele>24</ele>
        <time>2020-09-20T14:52:51Z</time>
      </trkpt>
      <trkpt lat="47.39363" lon="-0.79325">
        <ele>23</ele>
        <time>2020-09-20T14:52:54Z</time>
      </trkpt>
      <trkpt lat="47.39313" lon="-0.79278">
        <ele>22</ele>
        <time>2020-09-20T14:53:04Z</time>
      </trkpt>
      <trkpt lat="47.39257" lon="-0.79249">
        <ele>21</ele>
        <time>2020-09-20T14:53:15Z</time>
      </trkpt>
      <trkpt lat="47.39248" lon="-0.79239">
        <ele>21</ele>
        <time>2020-09-20T14:53:17Z</time>
      </trkpt>
      <trkpt lat="47.39229" lon="-0.79209">
        <ele>20</ele>
        <time>2020-09-20T14:53:22Z</time>
      </trkpt>
      <trkpt lat="47.39212" lon="-0.79174">
        <ele>19</ele>
        <time>2020-09-20T14:53:27Z</time>
      </trkpt>
      <trkpt lat="47.39198" lon="-0.79153">
        <ele>19</ele>
        <time>2020-09-20T14:53:31Z</time>
      </trkpt>
      <trkpt lat="47.39153" lon="-0.79102">
        <ele>18</ele>
        <time>2020-09-20T14:53:41Z</time>
      </trkpt>
      <trkpt lat="47.39101" lon="-0.79011">
        <ele>19</ele>
        <time>2020-09-20T14:53:55Z</time>
      </trkpt>
      <trkpt lat="47.39064" lon="-0.78965">
        <ele>17</ele>
        <time>2020-09-20T14:54:04Z</time>
      </trkpt>
      <trkpt lat="47.39049" lon="-0.78936">
        <ele>16</ele>
        <time>2020-09-20T14:54:08Z</time>
      </trkpt>
      <trkpt lat="47.3903" lon="-0.78891">
        <ele>14</ele>
        <time>2020-09-20T14:54:15Z</time>
      </trkpt>
      <trkpt lat="47.3901" lon="-0.78837">
        <ele>13</ele>
        <time>2020-09-20T14:54:22Z</time>
      </trkpt>
      <trkpt lat="47.38977" lon="-0.78793">
        <ele>12</ele>
        <time>2020-09-20T14:54:30Z</time>
      </trkpt>
      <trkpt lat="47.38945" lon="-0.78736">
        <ele>12</ele>
        <time>2020-09-20T14:54:39Z</time>
      </trkpt>
      <trkpt lat="47.38925" lon="-0.78712">
        <ele>12</ele>
        <time>2020-09-20T14:54:43Z</time>
      </trkpt>
      <trkpt lat="47.38879" lon="-0.78674">
        <ele>14</ele>
        <time>2020-09-20T14:54:53Z</time>
      </trkpt>
      <trkpt lat="47.38839" lon="-0.78591">
        <ele>15</ele>
        <time>2020-09-20T14:55:05Z</time>
      </trkpt>
      <trkpt lat="47.38829" lon="-0.78575">
        <ele>15</ele>
        <time>2020-09-20T14:55:08Z</time>
      </trkpt>
      <trkpt lat="47.38798" lon="-0.78545">
        <ele>15</ele>
        <time>2020-09-20T14:55:14Z</time>
      </trkpt>
      <trkpt lat="47.38783" lon="-0.78517">
        <ele>15</ele>
        <time>2020-09-20T14:55:19Z</time>
      </trkpt>
      <trkpt lat="47.38748" lon="-0.78424">
        <ele>17</ele>
        <time>2020-09-20T14:55:31Z</time>
      </trkpt>
      <trkpt lat="47.38732" lon="-0.78372">
        <ele>17</ele>
        <time>2020-09-20T14:55:38Z</time>
      </trkpt>
      <trkpt lat="47.38706" lon="-0.78264">
        <ele>18</ele>
        <time>2020-09-20T14:55:52Z</time>
      </trkpt>
      <trkpt lat="47.38701" lon="-0.78195">
        <ele>19</ele>
        <time>2020-09-20T14:56:00Z</time>
      </trkpt>
      <trkpt lat="47.38701" lon="-0.78144">
        <ele>19</ele>
        <time>2020-09-20T14:56:07Z</time>
      </trkpt>
      <trkpt lat="47.38712" lon="-0.78026">
        <ele>19</ele>
        <time>2020-09-20T14:56:21Z</time>
      </trkpt>
      <trkpt lat="47.38712" lon="-0.78006">
        <ele>19</ele>
        <time>2020-09-20T14:56:23Z</time>
      </trkpt>
      <trkpt lat="47.38701" lon="-0.77945">
        <ele>18</ele>
        <time>2020-09-20T14:56:31Z</time>
      </trkpt>
      <trkpt lat="47.38687" lon="-0.77898">
        <ele>17</ele>
        <time>2020-09-20T14:56:37Z</time>
      </trkpt>
      <trkpt lat="47.38661" lon="-0.77774">
        <ele>17</ele>
        <time>2020-09-20T14:56:53Z</time>
      </trkpt>
      <trkpt lat="47.3866" lon="-0.77705">
        <ele>17</ele>
        <time>2020-09-20T14:57:01Z</time>
      </trkpt>
      <trkpt lat="47.38663" lon="-0.77654">
        <ele>16</ele>
        <time>2020-09-20T14:57:07Z</time>
      </trkpt>
      <trkpt lat="47.38686" lon="-0.77546">
        <ele>17</ele>
        <time>2020-09-20T14:57:21Z</time>
      </trkpt>
      <trkpt lat="47.38689" lon="-0.77521">
        <ele>17</ele>
        <time>2020-09-20T14:57:24Z</time>
      </trkpt>
      <trkpt lat="47.38689" lon="-0.77428">
        <ele>15</ele>
        <time>2020-09-20T14:57:35Z</time>
      </trkpt>
      <trkpt lat="47.38695" lon="-0.77413">
        <ele>15</ele>
        <time>2020-09-20T14:57:37Z</time>
      </trkpt>
      <trkpt lat="47.38705" lon="-0.77406">
        <ele>15</ele>
        <time>2020-09-20T14:57:39Z</time>
      </trkpt>
      <trkpt lat="47.38715" lon="-0.77405">
        <ele>16</ele>
        <time>2020-09-20T14:57:41Z</time>
      </trkpt>
      <trkpt lat="47.38756" lon="-0.77409">
        <ele>17</ele>
        <time>2020-09-20T14:57:48Z</time>
      </trkpt>
      <trkpt lat="47.3877" lon="-0.77405">
        <ele>17</ele>
        <time>2020-09-20T14:57:51Z</time>
      </trkpt>
      <trkpt lat="47.38796" lon="-0.77388">
        <ele>17</ele>
        <time>2020-09-20T14:57:56Z</time>
      </trkpt>
      <trkpt lat="47.38903" lon="-0.77344">
        <ele>16</ele>
        <time>2020-09-20T14:58:16Z</time>
      </trkpt>
      <trkpt lat="47.38986" lon="-0.77305">
        <ele>16</ele>
        <time>2020-09-20T14:58:31Z</time>
      </trkpt>
      <trkpt lat="47.39039" lon="-0.77252">
        <ele>18</ele>
        <time>2020-09-20T14:58:43Z</time>
      </trkpt>
      <trkpt lat="47.3906" lon="-0.77234">
        <ele>19</ele>
        <time>2020-09-20T14:58:47Z</time>
      </trkpt>
      <trkpt lat="47.39124" lon="-0.77199">
        <ele>22</ele>
        <time>2020-09-20T14:58:59Z</time>
      </trkpt>
      <trkpt lat="47.39157" lon="-0.77189">
        <ele>24</ele>
        <time>2020-09-20T14:59:05Z</time>
      </trkpt>
      <trkpt lat="47.39187" lon="-0.77176">
        <ele>26</ele>
        <time>2020-09-20T14:59:11Z</time>
      </trkpt>
      <trkpt lat="47.39203" lon="-0.77166">
        <ele>26</ele>
        <time>2020-09-20T14:59:14Z</time>
      </trkpt>
      <trkpt lat="47.39276" lon="-0.77136">
        <ele>29</ele>
        <time>2020-09-20T14:59:27Z</time>
      </trkpt>
      <trkpt lat="47.39399" lon="-0.77094">
        <ele>32</ele>
        <time>2020-09-20T14:59:50Z</time>
      </trkpt>
      <trkpt lat="47.3943" lon="-0.77087">
        <ele>32</ele>
        <time>2020-09-20T14:59:55Z</time>
      </trkpt>
      <trkpt lat="47.39474" lon="-0.77085">
        <ele>33</ele>
        <time>2020-09-20T15:00:03Z</time>
      </trkpt>
      <trkpt lat="47.39525" lon="-0.77078">
        <ele>33</ele>
        <time>2020-09-20T15:00:12Z</time>
      </trkpt>
      <trkpt lat="47.39535" lon="-0.77068">
        <ele>33</ele>
        <time>2020-09-20T15:00:14Z</time>
      </trkpt>
      <trkpt lat="47.39548" lon="-0.76958">
        <ele>32</ele>
        <time>2020-09-20T15:00:28Z</time>
      </trkpt>
      <trkpt lat="47.3956" lon="-0.76942">
        <ele>32</ele>
        <time>2020-09-20T15:00:31Z</time>
      </trkpt>
      <trkpt lat="47.3958" lon="-0.76929">
        <ele>33</ele>
        <time>2020-09-20T15:00:34Z</time>
      </trkpt>
      <trkpt lat="47.39601" lon="-0.76919">
        <ele>33</ele>
        <time>2020-09-20T15:00:38Z</time>
      </trkpt>
      <trkpt lat="47.39623" lon="-0.76911">
        <ele>32</ele>
        <time>2020-09-20T15:00:42Z</time>
      </trkpt>
      <trkpt lat="47.39651" lon="-0.76908">
        <ele>32</ele>
        <time>2020-09-20T15:00:47Z</time>
      </trkpt>
      <trkpt lat="47.39739" lon="-0.7691">
        <ele>33</ele>
        <time>2020-09-20T15:01:03Z</time>
      </trkpt>
      <trkpt lat="47.39773" lon="-0.76908">
        <ele>33</ele>
        <time>2020-09-20T15:01:09Z</time>
      </trkpt>
      <trkpt lat="47.39832" lon="-0.76893">
        <ele>35</ele>
        <time>2020-09-20T15:01:20Z</time>
      </trkpt>
      <trkpt lat="47.39921" lon="-0.76882">
        <ele>37</ele>
        <time>2020-09-20T15:01:36Z</time>
      </trkpt>
      <trkpt lat="47.3994" lon="-0.76872">
        <ele>37</ele>
        <time>2020-09-20T15:01:39Z</time>
      </trkpt>
      <trkpt lat="47.39959" lon="-0.76856">
        <ele>37</ele>
        <time>2020-09-20T15:01:43Z</time>
      </trkpt>
      <trkpt lat="47.4" lon="-0.7681">
        <ele>37</ele>
        <time>2020-09-20T15:01:52Z</time>
      </trkpt>
      <trkpt lat="47.40058" lon="-0.76736">
        <ele>37</ele>
        <time>2020-09-20T15:02:06Z</time>
      </trkpt>
      <trkpt lat="47.40099" lon="-0.76699">
        <ele>38</ele>
        <time>2020-09-20T15:02:15Z</time>
      </trkpt>
      <trkpt lat="47.4016" lon="-0.76649">
        <ele>39</ele>
        <time>2020-09-20T15:02:27Z</time>
      </trkpt>
      <trkpt lat="47.40211" lon="-0.76613">
        <ele>40</ele>
        <time>2020-09-20T15:02:37Z</time>
      </trkpt>
      <trkpt lat="47.40264" lon="-0.76555">
        <ele>40</ele>
        <time>2020-09-20T15:02:49Z</time>
      </trkpt>
      <trkpt lat="47.40278" lon="-0.76543">
        <ele>40</ele>
        <time>2020-09-20T15:02:52Z</time>
      </trkpt>
      <trkpt lat="47.40292" lon="-0.76534">
        <ele>40</ele>
        <time>2020-09-20T15:02:54Z</time>
      </trkpt>
      <trkpt lat="47.4033" lon="-0.76517">
        <ele>40</ele>
        <time>2020-09-20T15:03:01Z</time>
      </trkpt>
      <trkpt lat="47.40375" lon="-0.76489">
        <ele>41</ele>
        <time>2020-09-20T15:03:10Z</time>
      </trkpt>
      <trkpt lat="47.40394" lon="-0.7647">
        <ele>40</ele>
        <time>2020-09-20T15:03:14Z</time>
      </trkpt>
      <trkpt lat="47.40442" lon="-0.76441">
        <ele>40</ele>
        <time>2020-09-20T15:03:23Z</time>
      </trkpt>
      <trkpt lat="47.40485" lon="-0.76422">
        <ele>40</ele>
        <time>2020-09-20T15:03:31Z</time>
      </trkpt>
      <trkpt lat="47.40517" lon="-0.76395">
        <ele>40</ele>
        <time>2020-09-20T15:03:38Z</time>
      </trkpt>
      <trkpt lat="47.40542" lon="-0.76364">
        <ele>40</ele>
        <time>2020-09-20T15:03:44Z</time>
      </trkpt>
      <trkpt lat="47.40542" lon="-0.76332">
        <ele>41</ele>
        <time>2020-09-20T15:03:48Z</time>
      </trkpt>
      <trkpt lat="47.40549" lon="-0.76324">
        <ele>40</ele>
        <time>2020-09-20T15:03:49Z</time>
      </trkpt>
      <trkpt lat="47.40564" lon="-0.7621">
        <ele>42</ele>
        <time>2020-09-20T15:04:03Z</time>
      </trkpt>
      <trkpt lat="47.40563" lon="-0.76177">
        <ele>42</ele>
        <time>2020-09-20T15:04:07Z</time>
      </trkpt>
      <trkpt lat="47.4056" lon="-0.76158">
        <ele>42</ele>
        <time>2020-09-20T15:04:09Z</time>
      </trkpt>
      <trkpt lat="47.40542" lon="-0.76105">
        <ele>42</ele>
        <time>2020-09-20T15:04:17Z</time>
      </trkpt>
      <trkpt lat="47.40539" lon="-0.76083">
        <ele>42</ele>
        <time>2020-09-20T15:04:19Z</time>
      </trkpt>
      <trkpt lat="47.40542" lon="-0.76056">
        <ele>42</ele>
        <time>2020-09-20T15:04:23Z</time>
      </trkpt>
      <trkpt lat="47.40556" lon="-0.76016">
        <ele>41</ele>
        <time>2020-09-20T15:04:28Z</time>
      </trkpt>
      <trkpt lat="47.40582" lon="-0.7597">
        <ele>41</ele>
        <time>2020-09-20T15:04:35Z</time>
      </trkpt>
      <trkpt lat="47.40812" lon="-0.76042">
        <ele>49</ele>
        <time>2020-09-20T15:05:17Z</time>
      </trkpt>
      <trkpt lat="47.40844" lon="-0.75995">
        <ele>48</ele>
        <time>2020-09-20T15:05:25Z</time>
      </trkpt>
      <trkpt lat="47.40876" lon="-0.75908">
        <ele>48</ele>
        <time>2020-09-20T15:05:37Z</time>
      </trkpt>
      <trkpt lat="47.40895" lon="-0.75871">
        <ele>49</ele>
        <time>2020-09-20T15:05:43Z</time>
      </trkpt>
      <trkpt lat="47.40909" lon="-0.7585">
        <ele>49</ele>
        <time>2020-09-20T15:05:46Z</time>
      </trkpt>
      <trkpt lat="47.40929" lon="-0.75801">
        <ele>48</ele>
        <time>2020-09-20T15:05:53Z</time>
      </trkpt>
      <trkpt lat="47.40938" lon="-0.7573">
        <ele>47</ele>
        <time>2020-09-20T15:06:02Z</time>
      </trkpt>
      <trkpt lat="47.40941" lon="-0.75495">
        <ele>45</ele>
        <time>2020-09-20T15:06:30Z</time>
      </trkpt>
      <trkpt lat="47.40938" lon="-0.75474">
        <ele>45</ele>
        <time>2020-09-20T15:06:33Z</time>
      </trkpt>
      <trkpt lat="47.40933" lon="-0.75458">
        <ele>45</ele>
        <time>2020-09-20T15:06:35Z</time>
      </trkpt>
      <trkpt lat="47.40888" lon="-0.75345">
        <ele>47</ele>
        <time>2020-09-20T15:06:51Z</time>
      </trkpt>
      <trkpt lat="47.4088" lon="-0.75358">
        <ele>46</ele>
        <time>2020-09-20T15:06:53Z</time>
      </trkpt>
      <trkpt lat="47.40892" lon="-0.75338">
        <ele>47</ele>
        <time>2020-09-20T15:06:56Z</time>
      </trkpt>
      <trkpt lat="47.40894" lon="-0.75321">
        <ele>47</ele>
        <time>2020-09-20T15:06:58Z</time>
      </trkpt>
      <trkpt lat="47.40872" lon="-0.75191">
        <ele>51</ele>
        <time>2020-09-20T15:07:14Z</time>
      </trkpt>
      <trkpt lat="47.40859" lon="-0.75095">
        <ele>52</ele>
        <time>2020-09-20T15:07:26Z</time>
      </trkpt>
      <trkpt lat="47.40855" lon="-0.75056">
        <ele>52</ele>
        <time>2020-09-20T15:07:31Z</time>
      </trkpt>
      <trkpt lat="47.4085" lon="-0.74936">
        <ele>51</ele>
        <time>2020-09-20T15:07:45Z</time>
      </trkpt>
      <trkpt lat="47.40801" lon="-0.74627">
        <ele>52</ele>
        <time>2020-09-20T15:08:23Z</time>
      </trkpt>
      <trkpt lat="47.40776" lon="-0.74453">
        <ele>53</ele>
        <time>2020-09-20T15:08:45Z</time>
      </trkpt>
      <trkpt lat="47.4073" lon="-0.74234">
        <ele>53</ele>
        <time>2020-09-20T15:09:12Z</time>
      </trkpt>
      <trkpt lat="47.40721" lon="-0.74155">
        <ele>53</ele>
        <time>2020-09-20T15:09:22Z</time>
      </trkpt>
      <trkpt lat="47.40714" lon="-0.74082">
        <ele>54</ele>
        <time>2020-09-20T15:09:31Z</time>
      </trkpt>
      <trkpt lat="47.40715" lon="-0.74022">
        <ele>54</ele>
        <time>2020-09-20T15:09:38Z</time>
      </trkpt>
      <trkpt lat="47.40726" lon="-0.73864">
        <ele>53</ele>
        <time>2020-09-20T15:09:57Z</time>
      </trkpt>
      <trkpt lat="47.40728" lon="-0.73613">
        <ele>55</ele>
        <time>2020-09-20T15:10:27Z</time>
      </trkpt>
      <trkpt lat="47.40726" lon="-0.73552">
        <ele>55</ele>
        <time>2020-09-20T15:10:35Z</time>
      </trkpt>
      <trkpt lat="47.40713" lon="-0.73414">
        <ele>55</ele>
        <time>2020-09-20T15:10:52Z</time>
      </trkpt>
      <trkpt lat="47.40709" lon="-0.73293">
        <ele>55</ele>
        <time>2020-09-20T15:11:06Z</time>
      </trkpt>
      <trkpt lat="47.40717" lon="-0.73248">
        <ele>55</ele>
        <time>2020-09-20T15:11:12Z</time>
      </trkpt>
      <trkpt lat="47.40732" lon="-0.7321">
        <ele>55</ele>
        <time>2020-09-20T15:11:17Z</time>
      </trkpt>
      <trkpt lat="47.40752" lon="-0.73131">
        <ele>54</ele>
        <time>2020-09-20T15:11:27Z</time>
      </trkpt>
      <trkpt lat="47.40778" lon="-0.72992">
        <ele>57</ele>
        <time>2020-09-20T15:11:45Z</time>
      </trkpt>
      <trkpt lat="47.40788" lon="-0.72912">
        <ele>59</ele>
        <time>2020-09-20T15:11:54Z</time>
      </trkpt>
      <trkpt lat="47.40798" lon="-0.7279">
        <ele>61</ele>
        <time>2020-09-20T15:12:09Z</time>
      </trkpt>
      <trkpt lat="47.40797" lon="-0.7267">
        <ele>61</ele>
        <time>2020-09-20T15:12:24Z</time>
      </trkpt>
      <trkpt lat="47.408" lon="-0.72592">
        <ele>61</ele>
        <time>2020-09-20T15:12:33Z</time>
      </trkpt>
      <trkpt lat="47.40809" lon="-0.72504">
        <ele>61</ele>
        <time>2020-09-20T15:12:44Z</time>
      </trkpt>
      <trkpt lat="47.40826" lon="-0.72418">
        <ele>61</ele>
        <time>2020-09-20T15:12:55Z</time>
      </trkpt>
      <trkpt lat="47.40871" lon="-0.72242">
        <ele>60</ele>
        <time>2020-09-20T15:13:17Z</time>
      </trkpt>
      <trkpt lat="47.40929" lon="-0.71985">
        <ele>61</ele>
        <time>2020-09-20T15:13:50Z</time>
      </trkpt>
      <trkpt lat="47.40966" lon="-0.7188">
        <ele>61</ele>
        <time>2020-09-20T15:14:04Z</time>
      </trkpt>
      <trkpt lat="47.40985" lon="-0.71815">
        <ele>62</ele>
        <time>2020-09-20T15:14:13Z</time>
      </trkpt>
      <trkpt lat="47.40991" lon="-0.71786">
        <ele>62</ele>
        <time>2020-09-20T15:14:16Z</time>
      </trkpt>
      <trkpt lat="47.40997" lon="-0.71733">
        <ele>62</ele>
        <time>2020-09-20T15:14:23Z</time>
      </trkpt>
      <trkpt lat="47.41096" lon="-0.71717">
        <ele>60</ele>
        <time>2020-09-20T15:14:40Z</time>
      </trkpt>
      <trkpt lat="47.41195" lon="-0.71668">
        <ele>60</ele>
        <time>2020-09-20T15:14:59Z</time>
      </trkpt>
      <trkpt lat="47.41328" lon="-0.71613">
        <ele>57</ele>
        <time>2020-09-20T15:15:24Z</time>
      </trkpt>
      <trkpt lat="47.41407" lon="-0.71595">
        <ele>58</ele>
        <time>2020-09-20T15:15:38Z</time>
      </trkpt>
      <trkpt lat="47.41518" lon="-0.71579">
        <ele>58</ele>
        <time>2020-09-20T15:15:58Z</time>
      </trkpt>
      <trkpt lat="47.41549" lon="-0.71571">
        <ele>59</ele>
        <time>2020-09-20T15:16:03Z</time>
      </trkpt>
      <trkpt lat="47.41603" lon="-0.71555">
        <ele>60</ele>
        <time>2020-09-20T15:16:13Z</time>
      </trkpt>
      <trkpt lat="47.41699" lon="-0.71514">
        <ele>62</ele>
        <time>2020-09-20T15:16:31Z</time>
      </trkpt>
      <trkpt lat="47.41846" lon="-0.71465">
        <ele>67</ele>
        <time>2020-09-20T15:16:58Z</time>
      </trkpt>
      <trkpt lat="47.41872" lon="-0.71463">
        <ele>68</ele>
        <time>2020-09-20T15:17:02Z</time>
      </trkpt>
      <trkpt lat="47.4191" lon="-0.71464">
        <ele>69</ele>
        <time>2020-09-20T15:17:09Z</time>
      </trkpt>
      <trkpt lat="47.41976" lon="-0.71478">
        <ele>72</ele>
        <time>2020-09-20T15:17:21Z</time>
      </trkpt>
      <trkpt lat="47.42002" lon="-0.71479">
        <ele>73</ele>
        <time>2020-09-20T15:17:26Z</time>
      </trkpt>
      <trkpt lat="47.4203" lon="-0.71474">
        <ele>73</ele>
        <time>2020-09-20T15:17:31Z</time>
      </trkpt>
      <trkpt lat="47.42147" lon="-0.71437">
        <ele>77</ele>
        <time>2020-09-20T15:17:52Z</time>
      </trkpt>
      <trkpt lat="47.42269" lon="-0.71404">
        <ele>79</ele>
        <time>2020-09-20T15:18:14Z</time>
      </trkpt>
      <trkpt lat="47.42363" lon="-0.71367">
        <ele>80</ele>
        <time>2020-09-20T15:18:31Z</time>
      </trkpt>
      <trkpt lat="47.42408" lon="-0.71337">
        <ele>79</ele>
        <time>2020-09-20T15:18:40Z</time>
      </trkpt>
      <trkpt lat="47.42427" lon="-0.7133">
        <ele>79</ele>
        <time>2020-09-20T15:18:44Z</time>
      </trkpt>
      <trkpt lat="47.42464" lon="-0.71323">
        <ele>78</ele>
        <time>2020-09-20T15:18:50Z</time>
      </trkpt>
      <trkpt lat="47.42541" lon="-0.71317">
        <ele>77</ele>
        <time>2020-09-20T15:19:04Z</time>
      </trkpt>
      <trkpt lat="47.42575" lon="-0.71309">
        <ele>77</ele>
        <time>2020-09-20T15:19:10Z</time>
      </trkpt>
      <trkpt lat="47.42602" lon="-0.713">
        <ele>77</ele>
        <time>2020-09-20T15:19:15Z</time>
      </trkpt>
      <trkpt lat="47.4266" lon="-0.71268">
        <ele>75</ele>
        <time>2020-09-20T15:19:26Z</time>
      </trkpt>
      <trkpt lat="47.42716" lon="-0.71242">
        <ele>73</ele>
        <time>2020-09-20T15:19:36Z</time>
      </trkpt>
      <trkpt lat="47.4273" lon="-0.71256">
        <ele>73</ele>
        <time>2020-09-20T15:19:39Z</time>
      </trkpt>
      <trkpt lat="47.42768" lon="-0.71138">
        <ele>72</ele>
        <time>2020-09-20T15:19:55Z</time>
      </trkpt>
      <trkpt lat="47.42795" lon="-0.71078">
        <ele>72</ele>
        <time>2020-09-20T15:20:04Z</time>
      </trkpt>
      <trkpt lat="47.42865" lon="-0.70949">
        <ele>69</ele>
        <time>2020-09-20T15:20:24Z</time>
      </trkpt>
      <trkpt lat="47.42901" lon="-0.70852">
        <ele>69</ele>
        <time>2020-09-20T15:20:37Z</time>
      </trkpt>
      <trkpt lat="47.42921" lon="-0.70813">
        <ele>70</ele>
        <time>2020-09-20T15:20:43Z</time>
      </trkpt>
      <trkpt lat="47.42957" lon="-0.70723">
        <ele>69</ele>
        <time>2020-09-20T15:20:56Z</time>
      </trkpt>
      <trkpt lat="47.42981" lon="-0.70683">
        <ele>70</ele>
        <time>2020-09-20T15:21:02Z</time>
      </trkpt>
      <trkpt lat="47.43011" lon="-0.70645">
        <ele>70</ele>
        <time>2020-09-20T15:21:09Z</time>
      </trkpt>
      <trkpt lat="47.43063" lon="-0.70557">
        <ele>70</ele>
        <time>2020-09-20T15:21:23Z</time>
      </trkpt>
      <trkpt lat="47.43097" lon="-0.70523">
        <ele>71</ele>
        <time>2020-09-20T15:21:30Z</time>
      </trkpt>
      <trkpt lat="47.43125" lon="-0.70504">
        <ele>70</ele>
        <time>2020-09-20T15:21:36Z</time>
      </trkpt>
      <trkpt lat="47.43142" lon="-0.70489">
        <ele>70</ele>
        <time>2020-09-20T15:21:39Z</time>
      </trkpt>
      <trkpt lat="47.43146" lon="-0.70482">
        <ele>70</ele>
        <time>2020-09-20T15:21:40Z</time>
      </trkpt>
      <trkpt lat="47.43144" lon="-0.70461">
        <ele>70</ele>
        <time>2020-09-20T15:21:43Z</time>
      </trkpt>
      <trkpt lat="47.43132" lon="-0.70422">
        <ele>71</ele>
        <time>2020-09-20T15:21:48Z</time>
      </trkpt>
      <trkpt lat="47.43132" lon="-0.70389">
        <ele>71</ele>
        <time>2020-09-20T15:21:52Z</time>
      </trkpt>
      <trkpt lat="47.43138" lon="-0.70335">
        <ele>71</ele>
        <time>2020-09-20T15:21:59Z</time>
      </trkpt>
      <trkpt lat="47.43138" lon="-0.70308">
        <ele>71</ele>
        <time>2020-09-20T15:22:02Z</time>
      </trkpt>
      <trkpt lat="47.43125" lon="-0.70214">
        <ele>70</ele>
        <time>2020-09-20T15:22:14Z</time>
      </trkpt>
      <trkpt lat="47.43124" lon="-0.70198">
        <ele>70</ele>
        <time>2020-09-20T15:22:15Z</time>
      </trkpt>
      <trkpt lat="47.43127" lon="-0.70163">
        <ele>69</ele>
        <time>2020-09-20T15:22:20Z</time>
      </trkpt>
      <trkpt lat="47.43137" lon="-0.70126">
        <ele>69</ele>
        <time>2020-09-20T15:22:24Z</time>
      </trkpt>
      <trkpt lat="47.43147" lon="-0.70101">
        <ele>68</ele>
        <time>2020-09-20T15:22:28Z</time>
      </trkpt>
      <trkpt lat="47.43214" lon="-0.69955">
        <ele>71</ele>
        <time>2020-09-20T15:22:49Z</time>
      </trkpt>
      <trkpt lat="47.43265" lon="-0.69821">
        <ele>73</ele>
        <time>2020-09-20T15:23:08Z</time>
      </trkpt>
      <trkpt lat="47.4327" lon="-0.69801">
        <ele>72</ele>
        <time>2020-09-20T15:23:10Z</time>
      </trkpt>
      <trkpt lat="47.43265" lon="-0.69788">
        <ele>72</ele>
        <time>2020-09-20T15:23:12Z</time>
      </trkpt>
      <trkpt lat="47.43266" lon="-0.69734">
        <ele>71</ele>
        <time>2020-09-20T15:23:19Z</time>
      </trkpt>
      <trkpt lat="47.43281" lon="-0.69564">
        <ele>71</ele>
        <time>2020-09-20T15:23:39Z</time>
      </trkpt>
      <trkpt lat="47.4328" lon="-0.69476">
        <ele>71</ele>
        <time>2020-09-20T15:23:50Z</time>
      </trkpt>
      <trkpt lat="47.43283" lon="-0.69436">
        <ele>71</ele>
        <time>2020-09-20T15:23:55Z</time>
      </trkpt>
      <trkpt lat="47.43308" lon="-0.69334">
        <ele>69</ele>
        <time>2020-09-20T15:24:08Z</time>
      </trkpt>
      <trkpt lat="47.43312" lon="-0.69292">
        <ele>68</ele>
        <time>2020-09-20T15:24:13Z</time>
      </trkpt>
      <trkpt lat="47.43289" lon="-0.69071">
        <ele>63</ele>
        <time>2020-09-20T15:24:40Z</time>
      </trkpt>
      <trkpt lat="47.43356" lon="-0.68632">
        <ele>58</ele>
        <time>2020-09-20T15:25:34Z</time>
      </trkpt>
      <trkpt lat="47.43363" lon="-0.68507">
        <ele>57</ele>
        <time>2020-09-20T15:25:49Z</time>
      </trkpt>
      <trkpt lat="47.43361" lon="-0.6849">
        <ele>57</ele>
        <time>2020-09-20T15:25:51Z</time>
      </trkpt>
      <trkpt lat="47.4335" lon="-0.68446">
        <ele>57</ele>
        <time>2020-09-20T15:25:57Z</time>
      </trkpt>
      <trkpt lat="47.4334" lon="-0.68419">
        <ele>57</ele>
        <time>2020-09-20T15:26:00Z</time>
      </trkpt>
      <trkpt lat="47.43268" lon="-0.68267">
        <ele>57</ele>
        <time>2020-09-20T15:26:23Z</time>
      </trkpt>
      <trkpt lat="47.43259" lon="-0.68238">
        <ele>57</ele>
        <time>2020-09-20T15:26:27Z</time>
      </trkpt>
      <trkpt lat="47.43243" lon="-0.68126">
        <ele>56</ele>
        <time>2020-09-20T15:26:40Z</time>
      </trkpt>
      <trkpt lat="47.43224" lon="-0.68047">
        <ele>52</ele>
        <time>2020-09-20T15:26:50Z</time>
      </trkpt>
      <trkpt lat="47.43245" lon="-0.68037">
        <ele>54</ele>
        <time>2020-09-20T15:26:54Z</time>
      </trkpt>
      <trkpt lat="47.43261" lon="-0.68023">
        <ele>54</ele>
        <time>2020-09-20T15:26:58Z</time>
      </trkpt>
      <trkpt lat="47.43272" lon="-0.68007">
        <ele>53</ele>
        <time>2020-09-20T15:27:00Z</time>
      </trkpt>
      <trkpt lat="47.43334" lon="-0.67895">
        <ele>50</ele>
        <time>2020-09-20T15:27:18Z</time>
      </trkpt>
      <trkpt lat="47.43368" lon="-0.67856">
        <ele>50</ele>
        <time>2020-09-20T15:27:26Z</time>
      </trkpt>
      <trkpt lat="47.43401" lon="-0.67834">
        <ele>52</ele>
        <time>2020-09-20T15:27:32Z</time>
      </trkpt>
      <trkpt lat="47.43426" lon="-0.67825">
        <ele>53</ele>
        <time>2020-09-20T15:27:37Z</time>
      </trkpt>
      <trkpt lat="47.43432" lon="-0.67819">
        <ele>54</ele>
        <time>2020-09-20T15:27:38Z</time>
      </trkpt>
      <trkpt lat="47.43449" lon="-0.67779">
        <ele>55</ele>
        <time>2020-09-20T15:27:44Z</time>
      </trkpt>
      <trkpt lat="47.43463" lon="-0.67709">
        <ele>56</ele>
        <time>2020-09-20T15:27:52Z</time>
      </trkpt>
      <trkpt lat="47.43466" lon="-0.67665">
        <ele>56</ele>
        <time>2020-09-20T15:27:58Z</time>
      </trkpt>
      <trkpt lat="47.43479" lon="-0.67637">
        <ele>54</ele>
        <time>2020-09-20T15:28:02Z</time>
      </trkpt>
      <trkpt lat="47.4349" lon="-0.67631">
        <ele>54</ele>
        <time>2020-09-20T15:28:04Z</time>
      </trkpt>
      <trkpt lat="47.43523" lon="-0.67623">
        <ele>54</ele>
        <time>2020-09-20T15:28:10Z</time>
      </trkpt>
      <trkpt lat="47.43548" lon="-0.67626">
        <ele>54</ele>
        <time>2020-09-20T15:28:14Z</time>
      </trkpt>
      <trkpt lat="47.43564" lon="-0.67622">
        <ele>54</ele>
        <time>2020-09-20T15:28:17Z</time>
      </trkpt>
      <trkpt lat="47.43612" lon="-0.67567">
        <ele>53</ele>
        <time>2020-09-20T15:28:28Z</time>
      </trkpt>
      <trkpt lat="47.43629" lon="-0.67553">
        <ele>53</ele>
        <time>2020-09-20T15:28:31Z</time>
      </trkpt>
      <trkpt lat="47.43662" lon="-0.67535">
        <ele>52</ele>
        <time>2020-09-20T15:28:38Z</time>
      </trkpt>
      <trkpt lat="47.43745" lon="-0.67557">
        <ele>50</ele>
        <time>2020-09-20T15:28:53Z</time>
      </trkpt>
      <trkpt lat="47.43769" lon="-0.6756">
        <ele>49</ele>
        <time>2020-09-20T15:28:57Z</time>
      </trkpt>
      <trkpt lat="47.43806" lon="-0.67555">
        <ele>49</ele>
        <time>2020-09-20T15:29:04Z</time>
      </trkpt>
      <trkpt lat="47.4385" lon="-0.67545">
        <ele>48</ele>
        <time>2020-09-20T15:29:11Z</time>
      </trkpt>
      <trkpt lat="47.43871" lon="-0.67536">
        <ele>48</ele>
        <time>2020-09-20T15:29:15Z</time>
      </trkpt>
      <trkpt lat="47.43959" lon="-0.67478">
        <ele>48</ele>
        <time>2020-09-20T15:29:32Z</time>
      </trkpt>
      <trkpt lat="47.43977" lon="-0.67469">
        <ele>47</ele>
        <time>2020-09-20T15:29:36Z</time>
      </trkpt>
      <trkpt lat="47.44017" lon="-0.67465">
        <ele>46</ele>
        <time>2020-09-20T15:29:43Z</time>
      </trkpt>
      <trkpt lat="47.4404" lon="-0.6746">
        <ele>45</ele>
        <time>2020-09-20T15:29:47Z</time>
      </trkpt>
      <trkpt lat="47.44206" lon="-0.67366">
        <ele>43</ele>
        <time>2020-09-20T15:30:19Z</time>
      </trkpt>
      <trkpt lat="47.44223" lon="-0.67354">
        <ele>43</ele>
        <time>2020-09-20T15:30:22Z</time>
      </trkpt>
      <trkpt lat="47.44402" lon="-0.67256">
        <ele>41</ele>
        <time>2020-09-20T15:30:56Z</time>
      </trkpt>
      <trkpt lat="47.44425" lon="-0.67246">
        <ele>41</ele>
        <time>2020-09-20T15:31:00Z</time>
      </trkpt>
      <trkpt lat="47.44454" lon="-0.67249">
        <ele>41</ele>
        <time>2020-09-20T15:31:06Z</time>
      </trkpt>
      <trkpt lat="47.44519" lon="-0.67275">
        <ele>42</ele>
        <time>2020-09-20T15:31:18Z</time>
      </trkpt>
      <trkpt lat="47.44548" lon="-0.67278">
        <ele>40</ele>
        <time>2020-09-20T15:31:23Z</time>
      </trkpt>
      <trkpt lat="47.44563" lon="-0.67274">
        <ele>40</ele>
        <time>2020-09-20T15:31:25Z</time>
      </trkpt>
      <trkpt lat="47.44608" lon="-0.67239">
        <ele>38</ele>
        <time>2020-09-20T15:31:34Z</time>
      </trkpt>
      <trkpt lat="47.44628" lon="-0.67228">
        <ele>38</ele>
        <time>2020-09-20T15:31:38Z</time>
      </trkpt>
      <trkpt lat="47.44648" lon="-0.67225">
        <ele>38</ele>
        <time>2020-09-20T15:31:42Z</time>
      </trkpt>
      <trkpt lat="47.44687" lon="-0.67213">
        <ele>40</ele>
        <time>2020-09-20T15:31:49Z</time>
      </trkpt>
      <trkpt lat="47.44708" lon="-0.67201">
        <ele>41</ele>
        <time>2020-09-20T15:31:53Z</time>
      </trkpt>
      <trkpt lat="47.44738" lon="-0.67179">
        <ele>42</ele>
        <time>2020-09-20T15:31:59Z</time>
      </trkpt>
      <trkpt lat="47.44771" lon="-0.67148">
        <ele>43</ele>
        <time>2020-09-20T15:32:06Z</time>
      </trkpt>
      <trkpt lat="47.44789" lon="-0.67125">
        <ele>42</ele>
        <time>2020-09-20T15:32:10Z</time>
      </trkpt>
      <trkpt lat="47.4482" lon="-0.67078">
        <ele>42</ele>
        <time>2020-09-20T15:32:18Z</time>
      </trkpt>
      <trkpt lat="47.44953" lon="-0.66851">
        <ele>49</ele>
        <time>2020-09-20T15:32:54Z</time>
      </trkpt>
      <trkpt lat="47.44969" lon="-0.66818">
        <ele>50</ele>
        <time>2020-09-20T15:32:59Z</time>
      </trkpt>
      <trkpt lat="47.44976" lon="-0.6678">
        <ele>50</ele>
        <time>2020-09-20T15:33:04Z</time>
      </trkpt>
      <trkpt lat="47.44981" lon="-0.66765">
        <ele>50</ele>
        <time>2020-09-20T15:33:06Z</time>
      </trkpt>
      <trkpt lat="47.4499" lon="-0.66749">
        <ele>51</ele>
        <time>2020-09-20T15:33:08Z</time>
      </trkpt>
      <trkpt lat="47.45031" lon="-0.66702">
        <ele>54</ele>
        <time>2020-09-20T15:33:17Z</time>
      </trkpt>
      <trkpt lat="47.45072" lon="-0.6666">
        <ele>56</ele>
        <time>2020-09-20T15:33:26Z</time>
      </trkpt>
      <trkpt lat="47.45126" lon="-0.66612">
        <ele>61</ele>
        <time>2020-09-20T15:33:38Z</time>
      </trkpt>
      <trkpt lat="47.45251" lon="-0.66483">
        <ele>65</ele>
        <time>2020-09-20T15:34:05Z</time>
      </trkpt>
      <trkpt lat="47.45329" lon="-0.66413">
        <ele>69</ele>
        <time>2020-09-20T15:34:21Z</time>
      </trkpt>
      <trkpt lat="47.45247" lon="-0.66334">
        <ele>70</ele>
        <time>2020-09-20T15:34:38Z</time>
      </trkpt>
      <trkpt lat="47.45235" lon="-0.66316">
        <ele>70</ele>
        <time>2020-09-20T15:34:41Z</time>
      </trkpt>
      <trkpt lat="47.4523" lon="-0.663">
        <ele>70</ele>
        <time>2020-09-20T15:34:43Z</time>
      </trkpt>
      <trkpt lat="47.45235" lon="-0.66262">
        <ele>69</ele>
        <time>2020-09-20T15:34:48Z</time>
      </trkpt>
      <trkpt lat="47.45245" lon="-0.66236">
        <ele>69</ele>
        <time>2020-09-20T15:34:52Z</time>
      </trkpt>
      <trkpt lat="47.45252" lon="-0.66206">
        <ele>70</ele>
        <time>2020-09-20T15:34:56Z</time>
      </trkpt>
      <trkpt lat="47.45254" lon="-0.66127">
        <ele>71</ele>
        <time>2020-09-20T15:35:05Z</time>
      </trkpt>
      <trkpt lat="47.45255" lon="-0.66001">
        <ele>74</ele>
        <time>2020-09-20T15:35:20Z</time>
      </trkpt>
      <trkpt lat="47.45252" lon="-0.65964">
        <ele>74</ele>
        <time>2020-09-20T15:35:25Z</time>
      </trkpt>
      <trkpt lat="47.45237" lon="-0.65926">
        <ele>73</ele>
        <time>2020-09-20T15:35:30Z</time>
      </trkpt>
      <trkpt lat="47.45232" lon="-0.65898">
        <ele>73</ele>
        <time>2020-09-20T15:35:33Z</time>
      </trkpt>
      <trkpt lat="47.45235" lon="-0.65876">
        <ele>73</ele>
        <time>2020-09-20T15:35:36Z</time>
      </trkpt>
      <trkpt lat="47.45245" lon="-0.65844">
        <ele>74</ele>
        <time>2020-09-20T15:35:40Z</time>
      </trkpt>
      <trkpt lat="47.45246" lon="-0.65825">
        <ele>74</ele>
        <time>2020-09-20T15:35:43Z</time>
      </trkpt>
      <trkpt lat="47.4524" lon="-0.65715">
        <ele>75</ele>
        <time>2020-09-20T15:35:56Z</time>
      </trkpt>
      <trkpt lat="47.45331" lon="-0.65714">
        <ele>74</ele>
        <time>2020-09-20T15:36:12Z</time>
      </trkpt>
      <trkpt lat="47.45354" lon="-0.65712">
        <ele>74</ele>
        <time>2020-09-20T15:36:16Z</time>
      </trkpt>
      <trkpt lat="47.45369" lon="-0.65707">
        <ele>74</ele>
        <time>2020-09-20T15:36:19Z</time>
      </trkpt>
      <trkpt lat="47.45398" lon="-0.6568">
        <ele>73</ele>
        <time>2020-09-20T15:36:25Z</time>
      </trkpt>
      <trkpt lat="47.45421" lon="-0.65653">
        <ele>73</ele>
        <time>2020-09-20T15:36:30Z</time>
      </trkpt>
      <trkpt lat="47.4547" lon="-0.65603">
        <ele>74</ele>
        <time>2020-09-20T15:36:41Z</time>
      </trkpt>
      <trkpt lat="47.45531" lon="-0.65558">
        <ele>75</ele>
        <time>2020-09-20T15:36:53Z</time>
      </trkpt>
      <trkpt lat="47.45532" lon="-0.65516">
        <ele>76</ele>
        <time>2020-09-20T15:36:58Z</time>
      </trkpt>
      <trkpt lat="47.45527" lon="-0.65468">
        <ele>76</ele>
        <time>2020-09-20T15:37:04Z</time>
      </trkpt>
      <trkpt lat="47.45516" lon="-0.65399">
        <ele>76</ele>
        <time>2020-09-20T15:37:12Z</time>
      </trkpt>
      <trkpt lat="47.45497" lon="-0.65343">
        <ele>75</ele>
        <time>2020-09-20T15:37:20Z</time>
      </trkpt>
      <trkpt lat="47.4549" lon="-0.65312">
        <ele>75</ele>
        <time>2020-09-20T15:37:24Z</time>
      </trkpt>
      <trkpt lat="47.4547" lon="-0.65148">
        <ele>76</ele>
        <time>2020-09-20T15:37:44Z</time>
      </trkpt>
      <trkpt lat="47.45465" lon="-0.65124">
        <ele>75</ele>
        <time>2020-09-20T15:37:47Z</time>
      </trkpt>
      <trkpt lat="47.45441" lon="-0.65062">
        <ele>74</ele>
        <time>2020-09-20T15:37:56Z</time>
      </trkpt>
      <trkpt lat="47.45278" lon="-0.64696">
        <ele>72</ele>
        <time>2020-09-20T15:38:48Z</time>
      </trkpt>
      <trkpt lat="47.4526" lon="-0.64662">
        <ele>74</ele>
        <time>2020-09-20T15:38:54Z</time>
      </trkpt>
      <trkpt lat="47.45315" lon="-0.64589">
        <ele>75</ele>
        <time>2020-09-20T15:39:07Z</time>
      </trkpt>
      <trkpt lat="47.45352" lon="-0.64547">
        <ele>75</ele>
        <time>2020-09-20T15:39:15Z</time>
      </trkpt>
      <trkpt lat="47.45378" lon="-0.64509">
        <ele>73</ele>
        <time>2020-09-20T15:39:22Z</time>
      </trkpt>
      <trkpt lat="47.45401" lon="-0.64484">
        <ele>72</ele>
        <time>2020-09-20T15:39:27Z</time>
      </trkpt>
      <trkpt lat="47.45434" lon="-0.64456">
        <ele>72</ele>
        <time>2020-09-20T15:39:33Z</time>
      </trkpt>
      <trkpt lat="47.45479" lon="-0.64434">
        <ele>73</ele>
        <time>2020-09-20T15:39:42Z</time>
      </trkpt>
      <trkpt lat="47.45517" lon="-0.64399">
        <ele>72</ele>
        <time>2020-09-20T15:39:50Z</time>
      </trkpt>
      <trkpt lat="47.45703" lon="-0.64156">
        <ele>68</ele>
        <time>2020-09-20T15:40:34Z</time>
      </trkpt>
      <trkpt lat="47.45714" lon="-0.64138">
        <ele>69</ele>
        <time>2020-09-20T15:40:37Z</time>
      </trkpt>
      <trkpt lat="47.4594" lon="-0.63898">
        <ele>71</ele>
        <time>2020-09-20T15:41:26Z</time>
      </trkpt>
      <trkpt lat="47.45962" lon="-0.6388">
        <ele>71</ele>
        <time>2020-09-20T15:41:31Z</time>
      </trkpt>
      <trkpt lat="47.45991" lon="-0.63861">
        <ele>71</ele>
        <time>2020-09-20T15:41:36Z</time>
      </trkpt>
      <trkpt lat="47.46038" lon="-0.63842">
        <ele>72</ele>
        <time>2020-09-20T15:41:45Z</time>
      </trkpt>
      <trkpt lat="47.46065" lon="-0.63827">
        <ele>73</ele>
        <time>2020-09-20T15:41:50Z</time>
      </trkpt>
      <trkpt lat="47.46091" lon="-0.63807">
        <ele>74</ele>
        <time>2020-09-20T15:41:55Z</time>
      </trkpt>
      <trkpt lat="47.46215" lon="-0.63682">
        <ele>78</ele>
        <time>2020-09-20T15:42:22Z</time>
      </trkpt>
      <trkpt lat="47.46234" lon="-0.6366">
        <ele>80</ele>
        <time>2020-09-20T15:42:26Z</time>
      </trkpt>
      <trkpt lat="47.46269" lon="-0.63632">
        <ele>81</ele>
        <time>2020-09-20T15:42:34Z</time>
      </trkpt>
      <trkpt lat="47.46326" lon="-0.63616">
        <ele>81</ele>
        <time>2020-09-20T15:42:44Z</time>
      </trkpt>
      <trkpt lat="47.46319" lon="-0.63579">
        <ele>81</ele>
        <time>2020-09-20T15:42:48Z</time>
      </trkpt>
      <trkpt lat="47.46317" lon="-0.63551">
        <ele>80</ele>
        <time>2020-09-20T15:42:52Z</time>
      </trkpt>
      <trkpt lat="47.46326" lon="-0.63401">
        <ele>77</ele>
        <time>2020-09-20T15:43:10Z</time>
      </trkpt>
      <trkpt lat="47.46316" lon="-0.63312">
        <ele>76</ele>
        <time>2020-09-20T15:43:21Z</time>
      </trkpt>
      <trkpt lat="47.46299" lon="-0.63041">
        <ele>74</ele>
        <time>2020-09-20T15:43:54Z</time>
      </trkpt>
      <trkpt lat="47.463" lon="-0.62974">
        <ele>73</ele>
        <time>2020-09-20T15:44:02Z</time>
      </trkpt>
      <trkpt lat="47.46303" lon="-0.62938">
        <ele>73</ele>
        <time>2020-09-20T15:44:06Z</time>
      </trkpt>
      <trkpt lat="47.46313" lon="-0.62867">
        <ele>72</ele>
        <time>2020-09-20T15:44:15Z</time>
      </trkpt>
      <trkpt lat="47.46324" lon="-0.62818">
        <ele>72</ele>
        <time>2020-09-20T15:44:21Z</time>
      </trkpt>
      <trkpt lat="47.46494" lon="-0.62315">
        <ele>67</ele>
        <time>2020-09-20T15:45:29Z</time>
      </trkpt>
      <trkpt lat="47.46519" lon="-0.6225">
        <ele>65</ele>
        <time>2020-09-20T15:45:38Z</time>
      </trkpt>
      <trkpt lat="47.46547" lon="-0.62187">
        <ele>66</ele>
        <time>2020-09-20T15:45:47Z</time>
      </trkpt>
      <trkpt lat="47.46623" lon="-0.6203">
        <ele>68</ele>
        <time>2020-09-20T15:46:10Z</time>
      </trkpt>
      <trkpt lat="47.46628" lon="-0.62007">
        <ele>68</ele>
        <time>2020-09-20T15:46:13Z</time>
      </trkpt>
      <trkpt lat="47.46629" lon="-0.61981">
        <ele>68</ele>
        <time>2020-09-20T15:46:16Z</time>
      </trkpt>
      <trkpt lat="47.46626" lon="-0.61967">
        <ele>68</ele>
        <time>2020-09-20T15:46:18Z</time>
      </trkpt>
      <trkpt lat="47.46629" lon="-0.61952">
        <ele>68</ele>
        <time>2020-09-20T15:46:20Z</time>
      </trkpt>
      <trkpt lat="47.4664" lon="-0.61939">
        <ele>68</ele>
        <time>2020-09-20T15:46:22Z</time>
      </trkpt>
      <trkpt lat="47.4665" lon="-0.61939">
        <ele>68</ele>
        <time>2020-09-20T15:46:24Z</time>
      </trkpt>
      <trkpt lat="47.46657" lon="-0.61944">
        <ele>68</ele>
        <time>2020-09-20T15:46:25Z</time>
      </trkpt>
      <trkpt lat="47.46675" lon="-0.61916">
        <ele>68</ele>
        <time>2020-09-20T15:46:30Z</time>
      </trkpt>
      <trkpt lat="47.4672" lon="-0.61823">
        <ele>67</ele>
        <time>2020-09-20T15:46:44Z</time>
      </trkpt>
      <trkpt lat="47.46715" lon="-0.61814">
        <ele>67</ele>
        <time>2020-09-20T15:46:45Z</time>
      </trkpt>
      <trkpt lat="47.46716" lon="-0.61806">
        <ele>67</ele>
        <time>2020-09-20T15:46:46Z</time>
      </trkpt>
      <trkpt lat="47.46721" lon="-0.618">
        <ele>67</ele>
        <time>2020-09-20T15:46:47Z</time>
      </trkpt>
      <trkpt lat="47.46727" lon="-0.61799">
        <ele>67</ele>
        <time>2020-09-20T15:46:48Z</time>
      </trkpt>
      <trkpt lat="47.4673" lon="-0.61802">
        <ele>67</ele>
        <time>2020-09-20T15:46:49Z</time>
      </trkpt>
      <trkpt lat="47.46733" lon="-0.61813">
        <ele>67</ele>
        <time>2020-09-20T15:46:50Z</time>
      </trkpt>
      <trkpt lat="47.4677" lon="-0.6183">
        <ele>66</ele>
        <time>2020-09-20T15:46:57Z</time>
      </trkpt>
      <trkpt lat="47.4678" lon="-0.61824">
        <ele>65</ele>
        <time>2020-09-20T15:46:59Z</time>
      </trkpt>
      <trkpt lat="47.4679" lon="-0.61824">
        <ele>65</ele>
        <time>2020-09-20T15:47:01Z</time>
      </trkpt>
      <trkpt lat="47.46813" lon="-0.61815">
        <ele>63</ele>
        <time>2020-09-20T15:47:05Z</time>
      </trkpt>
      <trkpt lat="47.46837" lon="-0.61794">
        <ele>62</ele>
        <time>2020-09-20T15:47:10Z</time>
      </trkpt>
      <trkpt lat="47.46867" lon="-0.61734">
        <ele>62</ele>
        <time>2020-09-20T15:47:19Z</time>
      </trkpt>
      <trkpt lat="47.46909" lon="-0.61635">
        <ele>60</ele>
        <time>2020-09-20T15:47:33Z</time>
      </trkpt>
      <trkpt lat="47.4692" lon="-0.61614">
        <ele>59</ele>
        <time>2020-09-20T15:47:36Z</time>
      </trkpt>
      <trkpt lat="47.46964" lon="-0.6149">
        <ele>57</ele>
        <time>2020-09-20T15:47:53Z</time>
      </trkpt>
      <trkpt lat="47.4697" lon="-0.61436">
        <ele>55</ele>
        <time>2020-09-20T15:48:00Z</time>
      </trkpt>
      <trkpt lat="47.46968" lon="-0.61408">
        <ele>55</ele>
        <time>2020-09-20T15:48:03Z</time>
      </trkpt>
      <trkpt lat="47.46898" lon="-0.61105">
        <ele>55</ele>
        <time>2020-09-20T15:48:42Z</time>
      </trkpt>
      <trkpt lat="47.46885" lon="-0.61032">
        <ele>54</ele>
        <time>2020-09-20T15:48:51Z</time>
      </trkpt>
      <trkpt lat="47.46885" lon="-0.61018">
        <ele>54</ele>
        <time>2020-09-20T15:48:52Z</time>
      </trkpt>
      <trkpt lat="47.46871" lon="-0.60946">
        <ele>54</ele>
        <time>2020-09-20T15:49:01Z</time>
      </trkpt>
      <trkpt lat="47.46859" lon="-0.60903">
        <ele>53</ele>
        <time>2020-09-20T15:49:07Z</time>
      </trkpt>
      <trkpt lat="47.46836" lon="-0.60848">
        <ele>52</ele>
        <time>2020-09-20T15:49:15Z</time>
      </trkpt>
      <trkpt lat="47.46823" lon="-0.60825">
        <ele>52</ele>
        <time>2020-09-20T15:49:18Z</time>
      </trkpt>
      <trkpt lat="47.46793" lon="-0.60797">
        <ele>52</ele>
        <time>2020-09-20T15:49:25Z</time>
      </trkpt>
      <trkpt lat="47.46725" lon="-0.60749">
        <ele>50</ele>
        <time>2020-09-20T15:49:38Z</time>
      </trkpt>
      <trkpt lat="47.4671" lon="-0.60727">
        <ele>49</ele>
        <time>2020-09-20T15:49:42Z</time>
      </trkpt>
      <trkpt lat="47.46688" lon="-0.60686">
        <ele>48</ele>
        <time>2020-09-20T15:49:48Z</time>
      </trkpt>
      <trkpt lat="47.46671" lon="-0.60639">
        <ele>46</ele>
        <time>2020-09-20T15:49:55Z</time>
      </trkpt>
      <trkpt lat="47.46636" lon="-0.60524">
        <ele>46</ele>
        <time>2020-09-20T15:50:10Z</time>
      </trkpt>
      <trkpt lat="47.46622" lon="-0.60489">
        <ele>45</ele>
        <time>2020-09-20T15:50:15Z</time>
      </trkpt>
      <trkpt lat="47.46596" lon="-0.60402">
        <ele>44</ele>
        <time>2020-09-20T15:50:26Z</time>
      </trkpt>
      <trkpt lat="47.46572" lon="-0.60309">
        <ele>41</ele>
        <time>2020-09-20T15:50:38Z</time>
      </trkpt>
      <trkpt lat="47.46562" lon="-0.60306">
        <ele>41</ele>
        <time>2020-09-20T15:50:40Z</time>
      </trkpt>
      <trkpt lat="47.46553" lon="-0.60298">
        <ele>41</ele>
        <time>2020-09-20T15:50:42Z</time>
      </trkpt>
      <trkpt lat="47.46547" lon="-0.60282">
        <ele>40</ele>
        <time>2020-09-20T15:50:44Z</time>
      </trkpt>
      <trkpt lat="47.46549" lon="-0.60256">
        <ele>39</ele>
        <time>2020-09-20T15:50:47Z</time>
      </trkpt>
      <trkpt lat="47.46557" lon="-0.60244">
        <ele>39</ele>
        <time>2020-09-20T15:50:49Z</time>
      </trkpt>
      <trkpt lat="47.46567" lon="-0.60238">
        <ele>39</ele>
        <time>2020-09-20T15:50:51Z</time>
      </trkpt>
      <trkpt lat="47.46554" lon="-0.60112">
        <ele>36</ele>
        <time>2020-09-20T15:51:06Z</time>
      </trkpt>
      <trkpt lat="47.46549" lon="-0.60034">
        <ele>34</ele>
        <time>2020-09-20T15:51:16Z</time>
      </trkpt>
      <trkpt lat="47.46557" lon="-0.59967">
        <ele>32</ele>
        <time>2020-09-20T15:51:24Z</time>
      </trkpt>
      <trkpt lat="47.46554" lon="-0.5996">
        <ele>32</ele>
        <time>2020-09-20T15:51:25Z</time>
      </trkpt>
      <trkpt lat="47.46557" lon="-0.59953">
        <ele>32</ele>
        <time>2020-09-20T15:51:26Z</time>
      </trkpt>
      <trkpt lat="47.46563" lon="-0.59953">
        <ele>31</ele>
        <time>2020-09-20T15:51:27Z</time>
      </trkpt>
      <trkpt lat="47.46576" lon="-0.59917">
        <ele>29</ele>
        <time>2020-09-20T15:51:32Z</time>
      </trkpt>
      <trkpt lat="47.46591" lon="-0.59887">
        <ele>29</ele>
        <time>2020-09-20T15:51:36Z</time>
      </trkpt>
      <trkpt lat="47.46611" lon="-0.5983">
        <ele>30</ele>
        <time>2020-09-20T15:51:44Z</time>
      </trkpt>
      <trkpt lat="47.46614" lon="-0.59747">
        <ele>30</ele>
        <time>2020-09-20T15:51:54Z</time>
      </trkpt>
      <trkpt lat="47.46606" lon="-0.59655">
        <ele>29</ele>
        <time>2020-09-20T15:52:05Z</time>
      </trkpt>
      <trkpt lat="47.46597" lon="-0.59628">
        <ele>28</ele>
        <time>2020-09-20T15:52:09Z</time>
      </trkpt>
      <trkpt lat="47.46551" lon="-0.59521">
        <ele>27</ele>
        <time>2020-09-20T15:52:24Z</time>
      </trkpt>
      <trkpt lat="47.46548" lon="-0.59523">
        <ele>27</ele>
        <time>2020-09-20T15:52:25Z</time>
      </trkpt>
      <trkpt lat="47.46541" lon="-0.59521">
        <ele>27</ele>
        <time>2020-09-20T15:52:26Z</time>
      </trkpt>
      <trkpt lat="47.46534" lon="-0.59514">
        <ele>27</ele>
        <time>2020-09-20T15:52:28Z</time>
      </trkpt>
      <trkpt lat="47.46532" lon="-0.5949">
        <ele>27</ele>
        <time>2020-09-20T15:52:30Z</time>
      </trkpt>
      <trkpt lat="47.46513" lon="-0.59441">
        <ele>25</ele>
        <time>2020-09-20T15:52:37Z</time>
      </trkpt>
      <trkpt lat="47.4649" lon="-0.59392">
        <ele>25</ele>
        <time>2020-09-20T15:52:44Z</time>
      </trkpt>
      <trkpt lat="47.4648" lon="-0.5939">
        <ele>25</ele>
        <time>2020-09-20T15:52:46Z</time>
      </trkpt>
      <trkpt lat="47.46474" lon="-0.59376">
        <ele>25</ele>
        <time>2020-09-20T15:52:48Z</time>
      </trkpt>
      <trkpt lat="47.46465" lon="-0.59381">
        <ele>25</ele>
        <time>2020-09-20T15:52:50Z</time>
      </trkpt>
      <trkpt lat="47.46474" lon="-0.59376">
        <ele>25</ele>
        <time>2020-09-20T15:52:52Z</time>
      </trkpt>
      <trkpt lat="47.46477" lon="-0.59359">
        <ele>24</ele>
        <time>2020-09-20T15:52:54Z</time>
      </trkpt>
      <trkpt lat="47.46486" lon="-0.59352">
        <ele>24</ele>
        <time>2020-09-20T15:52:56Z</time>
      </trkpt>
      <trkpt lat="47.46507" lon="-0.5932">
        <ele>24</ele>
        <time>2020-09-20T15:53:01Z</time>
      </trkpt>
      <trkpt lat="47.4654" lon="-0.59281">
        <ele>23</ele>
        <time>2020-09-20T15:53:08Z</time>
      </trkpt>
      <trkpt lat="47.46576" lon="-0.59251">
        <ele>23</ele>
        <time>2020-09-20T15:53:16Z</time>
      </trkpt>
      <trkpt lat="47.46679" lon="-0.59178">
        <ele>24</ele>
        <time>2020-09-20T15:53:36Z</time>
      </trkpt>
      <trkpt lat="47.46689" lon="-0.59167">
        <ele>24</ele>
        <time>2020-09-20T15:53:38Z</time>
      </trkpt>
      <trkpt lat="47.46721" lon="-0.59125">
        <ele>24</ele>
        <time>2020-09-20T15:53:46Z</time>
      </trkpt>
      <trkpt lat="47.46792" lon="-0.59015">
        <ele>24</ele>
        <time>2020-09-20T15:54:04Z</time>
      </trkpt>
      <trkpt lat="47.46826" lon="-0.58973">
        <ele>25</ele>
        <time>2020-09-20T15:54:12Z</time>
      </trkpt>
      <trkpt lat="47.46848" lon="-0.58953">
        <ele>25</ele>
        <time>2020-09-20T15:54:17Z</time>
      </trkpt>
      <trkpt lat="47.46858" lon="-0.58947">
        <ele>25</ele>
        <time>2020-09-20T15:54:19Z</time>
      </trkpt>
      <trkpt lat="47.46983" lon="-0.58888">
        <ele>26</ele>
        <time>2020-09-20T15:54:42Z</time>
      </trkpt>
      <trkpt lat="47.47013" lon="-0.58871">
        <ele>28</ele>
        <time>2020-09-20T15:54:48Z</time>
      </trkpt>
      <trkpt lat="47.47022" lon="-0.58863">
        <ele>28</ele>
        <time>2020-09-20T15:54:50Z</time>
      </trkpt>
      <trkpt lat="47.47002" lon="-0.58842">
        <ele>27</ele>
        <time>2020-09-20T15:54:54Z</time>
      </trkpt>
      <trkpt lat="47.47022" lon="-0.58863">
        <ele>28</ele>
        <time>2020-09-20T15:54:58Z</time>
      </trkpt>
      <trkpt lat="47.47044" lon="-0.58832">
        <ele>29</ele>
        <time>2020-09-20T15:55:04Z</time>
      </trkpt>
      <trkpt lat="47.47044" lon="-0.58822">
        <ele>29</ele>
        <time>2020-09-20T15:55:05Z</time>
      </trkpt>
      <trkpt lat="47.47049" lon="-0.58819">
        <ele>29</ele>
        <time>2020-09-20T15:55:06Z</time>
      </trkpt>
      <trkpt lat="47.47051" lon="-0.5882">
        <ele>29</ele>
        <time>2020-09-20T15:55:06Z</time>
      </trkpt>
      <trkpt lat="47.47091" lon="-0.5874">
        <ele>31</ele>
        <time>2020-09-20T15:55:18Z</time>
      </trkpt>
      <trkpt lat="47.47132" lon="-0.5867">
        <ele>32</ele>
        <time>2020-09-20T15:55:29Z</time>
      </trkpt>
      <trkpt lat="47.47131" lon="-0.58664">
        <ele>32</ele>
        <time>2020-09-20T15:55:30Z</time>
      </trkpt>
      <trkpt lat="47.47133" lon="-0.58661">
        <ele>32</ele>
        <time>2020-09-20T15:55:31Z</time>
      </trkpt>
      <trkpt lat="47.47136" lon="-0.58661">
        <ele>32</ele>
        <time>2020-09-20T15:55:31Z</time>
      </trkpt>
      <trkpt lat="47.47137" lon="-0.58664">
        <ele>32</ele>
        <time>2020-09-20T15:55:32Z</time>
      </trkpt>
      <trkpt lat="47.47199" lon="-0.58589">
        <ele>34</ele>
        <time>2020-09-20T15:55:46Z</time>
      </trkpt>
      <trkpt lat="47.472" lon="-0.58583">
        <ele>34</ele>
        <time>2020-09-20T15:55:47Z</time>
      </trkpt>
      <trkpt lat="47.47177" lon="-0.58567">
        <ele>33</ele>
        <time>2020-09-20T15:55:51Z</time>
      </trkpt>
      <trkpt lat="47.472" lon="-0.58583">
        <ele>34</ele>
        <time>2020-09-20T15:55:56Z</time>
      </trkpt>
      <trkpt lat="47.47204" lon="-0.58582">
        <ele>34</ele>
        <time>2020-09-20T15:55:56Z</time>
      </trkpt>
      <trkpt lat="47.47213" lon="-0.58557">
        <ele>34</ele>
        <time>2020-09-20T15:56:00Z</time>
      </trkpt>
      <trkpt lat="47.4721" lon="-0.58549">
        <ele>33</ele>
        <time>2020-09-20T15:56:01Z</time>
      </trkpt>
      <trkpt lat="47.47213" lon="-0.58544">
        <ele>33</ele>
        <time>2020-09-20T15:56:02Z</time>
      </trkpt>
      <trkpt lat="47.47216" lon="-0.58544">
        <ele>33</ele>
        <time>2020-09-20T15:56:02Z</time>
      </trkpt>
      <trkpt lat="47.47234" lon="-0.58461">
        <ele>32</ele>
        <time>2020-09-20T15:56:13Z</time>
      </trkpt>
      <trkpt lat="47.47263" lon="-0.58299">
        <ele>30</ele>
        <time>2020-09-20T15:56:33Z</time>
      </trkpt>
      <trkpt lat="47.47297" lon="-0.58177">
        <ele>32</ele>
        <time>2020-09-20T15:56:49Z</time>
      </trkpt>
    </trkseg>
  </trk>
</gpx>